     2              OBSERVATION DATA    GPS                 RINEX VERSION / TYPE
FIC2RX 9.60 97/08/04                                        PGM / RUN BY / DATE
                                                            COMMENT
Operator input collection int (sec) 30.0000                 COMMENT
Operator input collection int (sec) 30.0000                 COMMENT
Operator input collection int (sec) 30.0000                 COMMENT
Operator input collection int (sec) 30.0000                 COMMENT
Operator input collection int (sec) 30.0000                 COMMENT
Original Marker Name: TAMA                                  COMMENT
Campaign Name: STRC 1988 University                         COMMENT
4-Character Station Name: TAMA                              COMMENT
6-Character Antenna Code: TI4100                            COMMENT
Vertical Measurement Point: PAE                             COMMENT
Vertical Offset to Rinex Ref. Point: 0.0000                 COMMENT
Radial Measurement Point: PAE                               COMMENT
Radial Offset to Rinex Ref. Point: 0.0842                   COMMENT
Antenna Height from Field Measurement: 1.4870 m             COMMENT
Original XYZ: 0.0000 0.0000 0.0000                          COMMENT
New XYZ position is based on association with SCEC monument COMMENT
E1C8W3R0+0011. Position of that monument is believed to be  COMMENT
valid to within 1 m horizontally; vertical accuracy         COMMENT
should be no worse than 3-times this value.                 COMMENT
                                                            COMMENT
Revised Rinex header created by UCSD GPS archive for        COMMENT
GSAC on 10-Apr-1999 (1999:100) 06:12:00 GMT                 COMMENT
For assistance contact dagnew@ucsd.edu or hjohnson@ucsd.edu COMMENT
                                                            COMMENT
TAMARISK 3 1967                                             MARKER NAME
DT MASS INST. OF TECHNOLOGY                                 OBSERVER / AGENCY
UN02 TI 4100 GES 1.50                                       REC # / TYPE / VERS
UN02 TI 4100                                                ANT # / TYPE
 -2306343.0000 -4840065.0000  3443024.0000                  APPROX POSITION XYZ
        1.4846        0.0000        0.0000                  ANTENNA: DELTA H/E/N
     1     1     0                                          WAVELENGTH FACT L1/2
     4    L1    L2    P1    P2                              # / TYPES OF OBSERV
    30                                                      INTERVAL
  1988     3     2     4    37   59.000000                  TIME OF FIRST OBS
  1988     3     2    11    46   59.000000                  TIME OF LAST OBS
     7                                                      # OF SATELLITES
           6   381   381   381   381                        PRN / # OF OBS
           8   285   285   285   285                        PRN / # OF OBS
          11   560   560   560   560                        PRN / # OF OBS
           9   629   629   629   629                        PRN / # OF OBS
          13   574   574   574   574                        PRN / # OF OBS
           3   478   478   478   478                        PRN / # OF OBS
                                                            END OF HEADER
 88  3  2  4 37 59.0800000  0  2  6  8
          .105 8          .162 7  21709885.499 0  21709888.844 0
         -.268 7         -.160 6  20337828.584 0  20337832.737 0
 88  3  2  4 38 29.0800000  0  2  6  8
    -57215.966 8    -44583.778 8  21698998.372 0  21699000.727 0
    -32474.031 7    -25304.369 6  20331649.320 0  20331653.634 0
 88  3  2  4 38 59.0800000  0  2  6  8
   -114294.418 8    -89060.492 7  21688136.894 0  21688139.369 0
    -64264.750 8    -50076.339 6  20325599.833 0  20325604.218 0
 88  3  2  4 39 29.0800000  0  2  6  8
   -171233.481 8   -133428.572 7  21677301.519 0  21677304.074 0
    -95371.595 7    -74315.433 6  20319680.849 0  20319683.910 0
 88  3  2  4 39 59.0800000  0  2  6  8
   -228031.505 7   -177686.764 7  21666493.017 0  21666496.523 0
   -125794.148 7    -98021.298 6  20313891.960 0  20313894.968 0
 88  3  2  4 40 29.0800000  0  2  6  8
   -284686.212 8   -221833.287 7  21655711.937 0  21655715.373 0
   -155531.073 7   -121192.905 6  20308231.973 0  20308235.936 0
 88  3  2  4 40 59.0800000  0  2  6  8
   -341196.116 7   -265866.970 7  21644958.554 0  21644961.881 0
   -184582.039 7   -143830.017 7  20302704.974 0  20302707.770 0
 88  3  2  4 41 29.0800000  0  2  6  8
   -397559.292 7   -309786.312 7  21634231.954 0  21634235.965 0
   -212946.238 7   -165931.976 7  20297306.761 0  20297310.165 0
 88  3  2  4 41 59.0800000  0  2  6  8
   -453773.352 7   -353589.463 7  21623534.815 0  21623539.105 0
   -240622.552 7   -187497.915 6  20292039.860 0  20292043.840 0
 88  3  2  4 42 29.0800000  0  2  6  8
   -509836.669 8   -397275.156 8  21612867.122 0  21612870.367 0
   -267610.544 7   -208527.505 7  20286904.361 0  20286907.960 0
 88  3  2  4 42 59.0800000  0  2  6  8
   -565746.942 8   -440841.591 7  21602227.853 0  21602230.829 0
   -293908.877 7   -229019.697 7  20281900.410 0  20281904.333 0
 88  3  2  4 43 29.0800000  0  2  6  8
   -621502.221 8   -484287.255 7  21591617.262 0  21591621.199 0
   -319516.923 7   -248973.996 7  20277028.107 0  20277029.614 0
 88  3  2  4 43 59.0800000  0  2  6  8
   -677100.725 7   -527610.765 8  21581037.004 0  21581041.721 0
   -344434.448 7   -268390.238 6  20272285.543 0  20272288.926 0
 88  3  2  4 44 29.0800000  0  4  6  8 11  9
   -732540.652 8   -570810.690 7  21570488.401 0  21570491.560 0
   -368661.277 5   -287268.292 5  20267676.353 0  20267678.830 0
          .365 8          .000 1  22390307.745 0          .000 0
         -.246 2          .000 1          .000 0          .000 0
 88  3  2  4 44 59.0800000  0  4  6  8 11  9
   -787819.363 7   -613885.003 8  21559969.650 0  21559972.361 0
   -392196.032 7   -305607.033 6  20263196.226 0  20263200.450 0
    -93076.024 8     83406.813 7  22372625.330 0  22372629.919 0
   -186505.165 7    228000.000 1          .000 0          .000 0
 88  3  2  4 45 29.0800000  0  4  6  8 11  9
   -842935.135 8   -656832.349 7  21549481.228 0  21549484.008 0
   -415038.251 7   -323406.159 7  20258850.782 0  20258853.633 0
   -185807.797 7     11148.331 6  22354979.484 0  22354984.277 0
   -275889.475 7    375111.815 7  23913111.861 0  23913116.243 0
 88  3  2  4 45 59.0800000  0  4  6  8 11  9
   -897886.163 8   -699651.332 7  21539023.899 0  21539027.246 0
   -437187.929 7   -340665.631 7  20254634.248 0  20254638.645 0
   -278193.331 7    -60840.371 7  22337397.334 0  22337403.791 0
   -365322.967 7    305423.924 7  23896093.767 0  23896097.919 0
 88  3  2  4 46 29.0800000  0  4  6  8 11  9
   -952670.065 8   -742340.070 6  21528598.883 0  21528602.459 0
   -458644.274 7   -357384.841 6  20250553.181 0  20250556.033 0
   -370229.879 7   -132557.144 6  22319884.677 0  22319889.657 0
   -454805.327 7    235697.409 7  23879066.137 0  23879069.535 0
 88  3  2  4 46 59.0800000  0  4  6  8 11  9
  -1007285.389 8   -784897.465 7  21518205.741 0  21518210.070 0
   -479407.096 7   -373563.659 7  20246601.039 0  20246604.667 0
   -461915.392 8   -204000.395 7  22302438.003 0  22302441.936 0
   -544335.727 7    165933.476 7  23862029.161 0  23862032.816 0
 88  3  2  4 47 29.0800000  0  4  6  8 11  9
  -1061729.493 8   -827321.426 7  21507845.842 0  21507848.761 0
   -499475.088 7   -389201.037 7  20242782.392 0  20242784.696 0
   -553246.568 7   -275167.511 7  22285056.591 0  22285061.961 0
   -633912.610 8     96133.339 7  23844983.001 0  23844987.683 0
 88  3  2  4 47 59.0800000  0  4  6  8 11  9
  -1116000.426 8   -869610.462 7  21497518.077 0  21497520.836 0
   -518848.579 7   -404297.250 7  20239096.122 0  20239098.976 0
   -644221.187 8   -346056.787 7  22267745.445 0  22267750.087 0
   -723534.768 7     26297.916 7  23827928.487 0  23827931.898 0
 88  3  2  4 48 29.0800000  0  4  6  8 11  9
  -1170096.286 7   -911763.080 8  21487223.145 0  21487226.700 0
   -537527.367 7   -418852.135 7  20235540.642 0  20235543.699 0
   -734836.682 8   -416666.247 7  22250502.178 0  22250506.762 0
   -813201.366 8    -43572.134 7  23810865.845 0  23810869.045 0
 88  3  2  4 48 59.0800000  0  4  6  8 11  9
  -1224014.619 7   -953777.371 8  21476963.346 0  21476967.353 0
   -555510.697 7   -432865.112 6  20232119.858 0  20232123.557 0
   -825090.435 7   -486993.824 6  22233326.915 0  22233332.357 0
   -902910.608 8   -113475.402 7  23793793.671 0  23793797.349 0
 88  3  2  4 49 29.0800000  0  4  6  8 11  9
  -1277753.099 8   -995651.496 7  21466737.011 0  21466740.349 0
   -572798.335 7   -446335.980 6  20228828.988 0  20228832.739 0
   -914979.677 7   -557037.369 7  22216221.883 0  22216226.690 0
   -992661.260 7   -183410.944 7  23776714.557 0  23776718.423 0
 88  3  2  4 49 59.0800000  0  4  6  8 11  9
  -1331310.179 8  -1037384.279 7  21456544.625 0  21456548.431 0
   -589390.091 7   -459264.596 6  20225671.787 0  20225674.254 0
  -1004502.174 8   -626795.139 7  22199186.329 0  22199191.772 0
  -1082452.524 7   -253378.122 8  23759628.397 0  23759631.783 0
 88  3  2  4 50 29.0800000  0  4  6  8 11  9
  -1384683.436 8  -1078973.818 7  21446389.331 0  21446392.396 0
   -605286.393 7   -471651.322 7  20222646.563 0  20222649.876 0
  -1093655.776 7   -696265.451 6  22182220.823 0  22182225.361 0
  -1172282.852 7   -323375.761 7  23742533.626 0  23742538.079 0
 88  3  2  4 50 59.0800000  0  4  6  8 11  9
  -1437871.211 8  -1120418.835 7  21436267.787 0  21436270.964 0
   -620487.083 7   -483495.992 7  20219753.042 0  20219757.429 0
  -1182438.331 7   -765446.645 7  22165325.698 0  22165331.121 0
  -1262151.366 7   -393403.157 7  23725432.622 0  23725436.117 0
 88  3  2  4 51 29.0800000  0  4  6  8 11  9
  -1490871.039 8  -1161717.388 7  21426182.611 0  21426185.847 0
   -634991.620 7   -494798.208 6  20216993.748 0  20216997.304 0
  -1270846.824 7   -834336.342 7  22148502.904 0  22148507.540 0
  -1352056.799 7   -463459.322 7  23708325.490 0  23708328.034 0
 88  3  2  4 51 59.0800000  0  4  6  8 11  9
  -1543680.980 7  -1202867.985 7  21416132.165 0  21416135.932 0
   -648799.885 7   -505557.883 6  20214366.304 0  20214369.853 0
  -1358879.204 8   -902932.982 7  22131750.263 0  22131754.872 0
  -1441997.741 7   -533543.162 7  23691209.979 0  23691213.073 0
 88  3  2  4 52 29.0800000  0  4  6  8 11  9
  -1596298.645 7  -1243868.760 7  21406119.928 0  21406123.449 0
   -661911.468 7   -515774.695 7  20211870.474 0  20211875.045 0
  -1446533.062 7   -971234.668 6  22115070.663 0  22115075.360 0
  -1531972.750 6   -603653.565 6  23674086.861 0  23674091.426 0
 88  3  2  4 52 59.0800000  0  4  6  8 11  9
  -1648722.462 8  -1284718.476 8  21396144.621 0  21396147.627 0
   -674327.181 7   -525449.251 7  20209508.846 0  20209512.591 0
  -1533806.095 7  -1039239.607 7  22098462.985 0  22098468.045 0
  -1621981.123 6   -673789.959 6  23656958.407 0  23656962.567 0
 88  3  2  4 53 29.0800000  0  4  6  8 11  9
  -1700949.617 8  -1325414.945 8  21386205.790 0  21386208.952 0
   -686046.327 7   -534581.047 7  20207279.073 0  20207281.782 0
  -1620695.460 8  -1106945.580 7  22081928.211 0  22081934.049 0
  -1712020.882 6   -743950.796 6  23639824.888 0  23639826.491 0
 88  3  2  4 53 59.0800000  0  4  6  8 11  9
  -1752978.016 7  -1365956.550 7  21376306.062 0  21376308.825 0
   -697068.913 7   -543170.057 6  20205180.619 0  20205183.645 0
  -1707199.047 7  -1174350.960 6  22065467.624 0  22065471.589 0
  -1802090.715 7   -814135.068 6  23622685.767 0  23622690.843 0
 88  3  2  4 54 29.0800000  0  4  6  8 11  9
  -1804805.740 8  -1406341.778 7  21366442.789 0  21366445.735 0
   -707395.104 7   -551216.425 6  20203215.478 0  20203219.959 0
  -1793314.483 8  -1241453.877 6  22049080.292 0  22049084.572 0
  -1892189.488 7   -884341.897 6  23605539.998 0  23605544.288 0
 88  3  2  4 54 59.0800000  0  4  6  8 11  9
  -1856430.217 8  -1446568.636 7  21356619.322 0  21356621.899 0
   -717024.847 7   -558720.109 7  20201384.510 0  20201387.737 0
  -1879038.958 7  -1308252.146 7  22032767.552 0  22032771.909 0
  -1982315.669 7   -954570.081 7  23588390.154 0  23588394.383 0
 88  3  2  4 55 29.0800000  0  4  6  8 11  9
  -1907849.647 7  -1486635.721 7  21346834.455 0  21346838.111 0
   -725958.761 7   -565681.604 7  20199682.333 0  20199687.378 0
  -1964370.609 8  -1374744.315 6  22016529.341 0  22016533.922 0
  -2072467.832 8  -1024818.503 7  23571235.341 0  23571238.520 0
 88  3  2  4 55 59.0800000  0  4  6  8 11  9
  -1959061.719 8  -1526541.232 7  21337088.340 0  21337091.578 0
   -734197.195 7   -572101.152 6  20198116.610 0  20198120.181 0
  -2049306.952 7  -1440928.457 7  22000366.508 0  22000370.911 0
  -2162644.979 8  -1095086.407 7  23554075.306 0  23554078.010 0
 88  3  2  4 56 29.0800000  0  4  6  8 11  9
  -2010064.390 8  -1566283.568 8  21327382.877 0  21327386.860 0
   -741740.112 7   -577978.731 6  20196680.144 0  20196683.262 0
  -2133845.948 7  -1506802.994 7  21984278.716 0  21984284.303 0
  -2252845.358 7  -1165372.405 7  23536909.535 0  23536914.111 0
 88  3  2  4 56 59.0800000  0  4  6  8 11  9
  -2060855.458 7  -1605861.004 7  21317718.321 0  21317721.543 0
   -748587.640 7   -583314.456 6  20195377.399 0  20195380.920 0
  -2217985.736 7  -1572366.432 7  21968267.475 0  21968272.943 0
  -2343068.115 7  -1235675.823 8  23519740.498 0  23519744.900 0
 88  3  2  4 57 29.0800000  0  4  6  8 11  9
  -2111432.370 7  -1645271.586 7  21308093.672 0  21308097.442 0
   -754740.219 7   -588108.666 7  20194207.294 0  20194210.212 0
  -2301723.575 7  -1637616.674 6  21952333.122 0  21952337.298 0
  -2433311.227 7  -1305995.107 6  23502568.418 0  23502573.068 0
 88  3  2  4 57 59.0800000  0  4  6  8 11  9
  -2161793.175 8  -1684513.756 7  21298510.097 0  21298513.090 0
   -760198.199 7   -592361.623 6  20193167.711 0  20193171.768 0
  -2385057.186 7  -1702551.937 6  21936475.598 0  21936480.042 0
  -2523573.599 7  -1376329.387 7  23485392.207 0  23485395.759 0
 88  3  2  4 58 29.0800000  0  4  6  8 11  9
  -2211936.034 7  -1723586.099 7  21288968.133 0  21288972.072 0
   -764962.206 7   -596073.810 6  20192261.780 0  20192263.736 0
  -2467984.571 7  -1767170.673 7  21920693.953 0  21920698.403 0
  -2613854.143 8  -1446677.834 7  23468212.883 0  23468215.976 0
 88  3  2  4 58 59.0800000  0  4  6  8 11  9
  -2261858.959 8  -1762487.076 7  21279468.117 0  21279471.420 0
   -769032.848 7   -599245.738 6  20191487.601 0  20191490.138 0
  -2550504.127 7  -1831471.594 6  21904990.711 0  21904996.860 0
  -2704151.537 8  -1517039.404 7  23451029.072 0  23451032.583 0
 88  3  2  4 59 29.0800000  0  4  6  8 11  9
  -2311559.519 7  -1801214.783 7  21270010.546 0  21270013.801 0
   -772410.658 7   -601877.790 7  20190843.156 0  20190847.446 0
  -2632613.137 8  -1895452.627 7  21889366.194 0  21889370.136 0
  -2794463.952 7  -1587412.686 7  23433843.589 0  23433847.072 0
 88  3  2  4 59 59.0800000  0  4  6  8 11  9
  -2361035.152 8  -1839767.211 8  21260595.505 0  21260599.154 0
   -775095.285 7   -603969.692 6  20190333.944 0  20190336.372 0
  -2714309.219 7  -1959111.897 7  21873820.626 0  21873825.045 0
  -2884790.118 7  -1657796.663 7  23416655.053 0  23416658.933 0
 88  3  2  5  0 29.0800000  0  4  6  8 11  9
  -2410283.542 8  -1878142.586 7  21251224.255 0  21251227.035 0
   -777087.622 7   -605522.156 7  20189953.283 0  20189957.668 0
  -2795590.290 7  -2022447.780 7  21858353.281 0  21858358.209 0
  -2975128.077 7  -1728189.827 8  23399464.467 0  23399468.058 0
 88  3  2  5  0 59.0800000  0  4  6  8 11  9
  -2459302.785 8  -1916339.369 7  21241895.269 0  21241899.194 0
   -778388.524 6   -606535.834 7  20189706.527 0  20189710.208 0
  -2876454.373 7  -2085458.751 7  21842965.572 0  21842969.949 0
  -3065476.588 7  -1798591.185 8  23382270.275 0  23382274.906 0
 88  3  2  5  1 29.0800000  0  4  6  8 11  9
  -2508090.162 8  -1954355.503 8  21232611.622 0  21232615.479 0
   -778997.832 7   -607010.611 7  20189591.036 0  20189594.306 0
  -2956898.793 7  -2148142.682 7  21827657.476 0  21827662.196 0
  -3155833.999 7  -1868999.502 7  23365076.200 0  23365081.461 0
 88  3  2  5  1 59.0800000  0  4  6  8 11  9
  -2556643.722 8  -1992189.443 7  21223372.583 0  21223376.010 0
   -778916.900 7   -606947.531 6  20189606.532 0  20189608.407 0
  -3036921.837 7  -2210498.287 7  21812429.037 0  21812433.379 0
  -3246198.804 7  -1939413.600 7  23347881.122 0  23347884.113 0
 88  3  2  5  2 29.0800000  0  4  6  8 11  9
  -2604961.475 8  -2029839.641 7  21214178.243 0  21214181.068 0
   -778146.212 7   -606346.979 7  20189751.949 0  20189755.414 0
  -3116521.436 8  -2272523.928 7  21797281.723 0  21797286.599 0
  -3336570.025 7  -2009832.708 6  23330684.332 0  23330686.799 0
 88  3  2  5  2 59.0800000  0  4  6  8 11  9
  -2653040.563 8  -2067303.860 7  21205028.937 0  21205031.796 0
   -776685.950 7   -605209.107 7  20190031.114 0  20190034.006 0
  -3195695.352 8  -2334217.882 7  21782215.681 0  21782221.047 0
  -3426945.096 7  -2080254.819 7  23313485.323 0  23313488.929 0
 88  3  2  5  3 29.0800000  0  4  6  8 11  9
  -2700878.768 8  -2104580.377 8  21195925.600 0  21195929.011 0
   -774536.892 7   -603534.495 7  20190439.152 0  20190442.050 0
  -3274440.939 8  -2395578.061 7  21767230.560 0  21767235.946 0
  -3517322.905 7  -2150679.062 7  23296287.257 0  23296291.238 0
 88  3  2  5  3 59.0800000  0  4  6  8 11  9
  -2748474.555 8  -2141667.985 7  21186867.157 0  21186872.641 0
   -771700.266 7   -601324.137 7  20190978.530 0  20190982.997 0
  -3352757.088 7  -2456603.625 7  21752327.692 0  21752331.222 0
  -3607702.490 8  -2221104.687 7  23279088.275 0  23279092.900 0
 88  3  2  5  4 29.0800000  0  4  6  8 11  9
  -2795824.698 8  -2178564.202 7  21177857.924 0  21177860.944 0
   -768176.162 8   -598578.078 7  20191649.142 0  20191653.043 0
  -3430641.024 8  -2517292.392 6  21737506.901 0  21737511.292 0
  -3698081.328 7  -2291529.711 7  23261890.226 0  23261893.434 0
 88  3  2  5  4 59.0800000  0  4  6  8 11  9
  -2842927.564 8  -2215267.736 7  21168894.322 0  21168898.186 0
   -763966.126 8   -595297.521 7  20192450.402 0  20192454.949 0
  -3508091.151 7  -2577643.126 6  21722768.266 0  21722773.734 0
  -3788458.141 8  -2361953.165 7  23244692.363 0  23244695.634 0
 88  3  2  5  5 29.0800000  0  4  6  8 11  9
  -2889781.654 8  -2251777.409 7  21159978.166 0  21159981.611 0
   -759071.787 7   -591483.741 6  20193382.344 0  20193385.413 0
  -3585106.391 8  -2637654.978 6  21708113.392 0  21708117.798 0
  -3878832.610 8  -2432374.797 7  23227494.460 0  23227497.009 0
 88  3  2  5  5 59.0800000  0  4  6  8 11  9
  -2936383.733 8  -2288090.714 7  21151110.346 0  21151113.701 0
   -753492.564 6   -587136.286 7  20194444.060 0  20194446.566 0
  -3661683.859 8  -2697325.726 7  21693541.182 0  21693545.964 0
  -3969201.699 8  -2502792.261 7  23210297.769 0  23210301.132 0
 88  3  2  5  6 29.0800000  0  4  6  8 11  9
  -2982731.759 7  -2324206.062 7  21142290.494 0  21142293.747 0
   -747230.061 7   -582256.404 6  20195635.951 0  20195638.734 0
  -3737821.925 8  -2756654.070 6  21679052.438 0  21679056.583 0
  -4059564.385 7  -2573204.734 7  23193102.385 0  23193105.714 0
 88  3  2  5  6 59.0800000  0  4  6  8 11  9
  -3028824.970 8  -2360122.837 7  21133520.148 0  21133522.125 0
   -740286.524 7   -576845.850 6  20196956.978 0  20196959.772 0
  -3813519.943 8  -2815639.531 6  21664647.436 0  21664652.035 0
  -4149920.364 7  -2643611.982 6  23175907.598 0  23175911.553 0
 88  3  2  5  7 29.0800000  0  4  6  8 11  9
  -3074659.925 8  -2395838.385 8  21124796.511 0  21124800.845 0
   -732661.774 7   -570904.476 7  20198407.316 0  20198410.963 0
  -3888774.756 7  -2874279.627 7  21650326.854 0  21650331.011 0
  -4240266.851 7  -2714011.808 7  23158715.659 0  23158719.712 0
 88  3  2  5  7 59.0800000  0  4  6  8 11  9
  -3120233.867 7  -2431350.549 7  21116124.530 0  21116128.795 0
   -724356.816 7   -564433.075 7  20199987.569 0  20199991.435 0
  -3963583.811 7  -2932572.381 6  21636091.248 0  21636094.847 0
  -4330601.739 7  -2784402.585 7  23141525.663 0  23141529.077 0
 88  3  2  5  8 29.0800000  0  4  6  8 11  9
  -3165544.464 7  -2466657.503 7  21107502.367 0  21107505.335 0
   -715372.428 7   -557432.234 7  20201697.975 0  20201700.930 0
  -4037945.527 8  -2990516.564 7  21621940.598 0  21621945.503 0
  -4420923.325 7  -2854782.999 7  23124337.463 0  23124341.706 0
 88  3  2  5  8 59.0800000  0  4  6  8 11  9
  -3210589.696 7  -2501757.672 7  21098930.611 0  21098932.645 0
   -705709.790 7   -549902.901 7  20203535.907 0  20203540.388 0
  -4111858.367 7  -3048110.955 7  21607875.005 0  21607880.449 0
  -4511230.120 7  -2925151.900 7  23107152.617 0  23107156.738 0
 88  3  2  5  9 29.0800000  0  4  6  8 11  9
  -3255367.042 7  -2536649.108 7  21090409.862 0  21090412.753 0
   -695369.885 8   -541845.832 7  20205503.938 0  20205508.141 0
  -4185320.055 7  -3105353.817 7  21593895.963 0  21593900.254 0
  -4601520.280 7  -2995507.827 7  23089970.788 0  23089974.729 0
 88  3  2  5  9 59.0800000  0  4  6  8 11  9
  -3299874.414 8  -2571330.179 7  21081940.229 0  21081943.149 0
   -684354.109 8   -533262.095 7  20207600.381 0  20207603.574 0
  -4258328.844 8  -3162243.748 7  21580002.740 0  21580007.948 0
  -4691792.213 7  -3065849.556 7  23072792.812 0  23072796.670 0
 88  3  2  5 10 29.0800000  0  4  6  8 11  9
  -3344109.213 8  -2605798.856 7  21073522.418 0  21073525.857 0
   -672663.246 7   -524152.316 7  20209825.496 0  20209829.554 0
  -4330882.953 7  -3218779.388 7  21566196.218 0  21566200.522 0
  -4782043.975 7  -3136175.599 7  23055618.558 0  23055622.445 0
 88  3  2  5 10 59.0800000  0  4  6  8 11  9
  -3388069.341 8  -2640053.479 7  21065157.013 0  21065159.705 0
   -660298.514 8   -514517.457 7  20212176.541 0  20212181.175 0
  -4402980.835 8  -3274959.538 7  21552475.922 0  21552481.149 0
  -4872273.982 8  -3206484.672 7  23038448.450 0  23038451.369 0
 88  3  2  5 11 29.0800000  0  4  6  8 11  9
  -3431752.082 8  -2674091.984 7  21056844.510 0  21056847.411 0
   -647261.113 7   -504358.438 6  20214659.865 0  20214662.237 0
  -4474620.068 8  -3330782.294 7  21538844.643 0  21538848.543 0
  -4962480.093 7  -3276775.131 7  23021283.887 0  23021286.365 0
 88  3  2  5 11 59.0800000  0  4  6  8 11  9
  -3475155.020 8  -2707912.449 7  21048584.733 0  21048587.921 0
   -633552.164 7   -493676.133 7  20217267.517 0  20217270.940 0
  -4545798.680 7  -3386246.129 7  21525299.419 0  21525304.016 0
  -5052660.598 7  -3347045.651 7  23004122.750 0  23004126.782 0
 88  3  2  5 12 29.0800000  0  4  6  8 11  9
  -3518276.154 8  -2741513.326 7  21040379.801 0  21040383.492 0
   -619173.377 7   -482471.871 7  20220003.733 0  20220006.936 0
  -4616515.481 8  -3441350.110 7  21511842.028 0  21511847.253 0
  -5142813.854 8  -3417294.921 7  22986966.354 0  22986970.290 0
 88  3  2  5 12 59.0800000  0  4  6  8 11  9
  -3561112.430 7  -2774892.239 7  21032228.786 0  21032231.124 0
   -604125.453 7   -470746.201 7  20222866.657 0  20222870.218 0
  -4686767.957 7  -3496092.291 7  21498474.189 0  21498477.631 0
  -5232937.419 7  -3487521.060 7  22969816.318 0  22969819.035 0
 88  3  2  5 13 29.0800000  0  4  6  8 11  9
  -3603661.352 7  -2808047.239 8  21024131.166 0  21024133.873 0
   -588409.446 7   -458499.963 7  20225857.983 0  20225861.060 0
  -4756553.820 7  -3550470.859 7  21485194.699 0  21485197.849 0
  -5323029.215 7  -3557722.435 6  22952672.742 0  22952675.208 0
 88  3  2  5 13 59.0800000  0  4  6  8 11  9
  -3645921.455 8  -2840977.181 7  21016089.486 0  21016092.629 0
   -572027.604 7   -445734.882 7  20228975.324 0  20228979.066 0
  -4825872.347 8  -3604485.271 7  21472003.223 0  21472007.382 0
  -5413088.426 7  -3627898.447 7  22935534.070 0  22935538.742 0
 88  3  2  5 14 29.0800000  0  4  6  8 11  9
  -3687888.835 7  -2873679.021 7  21008103.488 0  21008106.069 0
   -554979.178 7   -432450.379 7  20232219.181 0  20232222.771 0
  -4894720.593 8  -3658133.243 7  21458901.334 0  21458905.582 0
  -5503111.461 7  -3698046.259 6  22918404.020 0  22918406.897 0
 88  3  2  5 14 59.0800000  0  4  6  8 11  9
  -3729560.995 7  -2906150.839 7  21000173.070 0  21000176.802 0
   -537265.766 7   -418647.720 6  20235590.377 0  20235593.790 0
  -4963096.455 8  -3711413.110 7  21445891.017 0  21445894.477 0
  -5593096.365 6  -3768164.359 8  22901280.164 0  22901282.961 0
 88  3  2  5 15 29.0800000  0  4  6  8 11  9
  -3770936.092 7  -2938391.166 7  20992300.178 0  20992303.485 0
   -518889.507 7   -404328.553 7  20239087.780 0  20239090.071 0
  -5030999.026 8  -3764324.203 6  21432968.663 0  21432973.565 0
  -5683041.770 7  -3838251.673 7  22884163.850 0  22884168.194 0
 88  3  2  5 15 59.0800000  0  4  6  8 11  9
  -3812012.904 7  -2970399.073 7  20984482.811 0  20984486.698 0
   -499852.983 8   -389494.886 7  20242710.517 0  20242712.750 0
  -5098427.892 8  -3816866.169 6  21420135.542 0  21420141.437 0
  -5772946.964 7  -3908307.614 7  22867055.880 0  22867060.112 0
 88  3  2  5 16 29.0800000  0  4  6  8 11  9
  -3852787.645 8  -3002171.603 7  20976723.646 0  20976727.082 0
   -480156.290 7   -374146.811 7  20246458.364 0  20246461.036 0
  -5165379.517 8  -3869036.249 6  21407396.633 0  21407401.677 0
  -5862808.586 6  -3978329.611 7  22849955.454 0  22849959.780 0
 88  3  2  5 16 59.0800000  0  4  6  8 11  9
  -3893259.547 7  -3033708.152 7  20969022.941 0  20969026.733 0
   -459802.883 7   -358287.010 7  20250331.139 0  20250334.291 0
  -5231854.126 8  -3920834.621 6  21394747.185 0  21394752.056 0
  -5952626.397 7  -4048317.502 7  22832864.528 0  22832867.004 0
 88  3  2  5 17 29.0800000  0  4  6  8 11  9
  -3933426.190 7  -3065006.829 7  20961379.298 0  20961382.082 0
   -438793.698 7   -341916.198 7  20254328.854 0  20254331.736 0
  -5297850.259 8  -3972260.162 6  21382188.003 0  21382192.864 0
  -6042398.272 7  -4118269.598 7  22815781.276 0  22815784.559 0
 88  3  2  5 17 59.0800000  0  4  6  8 11  9
  -3973284.748 8  -3096065.440 7  20953794.469 0  20953797.160 0
   -417129.912 7   -325035.321 6  20258451.720 0  20258455.353 0
  -5363365.436 8  -4023310.909 6  21369721.422 0  21369726.199 0
  -6132121.952 8  -4188184.147 7  22798707.769 0  22798710.035 0
 88  3  2  5 18 29.0800000  0  4  6  8 11  9
  -4012833.310 7  -3126882.502 6  20946268.756 0  20946271.960 0
   -394813.766 7   -307646.123 6  20262697.877 0  20262701.761 0
  -5428398.539 7  -4073986.039 6  21357345.696 0  21357350.404 0
  -6221795.608 7  -4258059.708 7  22781642.732 0  22781646.249 0
 88  3  2  5 18 59.0800000  0  4  6  8 11  9
  -4052069.025 7  -3157455.788 7  20938802.293 0  20938805.741 0
   -371846.433 7   -289749.475 7  20267068.487 0  20267071.094 0
  -5492947.848 8  -4124284.183 7  21345062.441 0  21345067.324 0
  -6311417.147 7  -4327894.638 7  22764588.948 0  22764591.964 0
 88  3  2  5 19 29.0800000  0  4  6  8 11  9
  -4090990.315 8  -3187784.059 7  20931395.973 0  20931397.821 0
   -348230.324 7   -271347.316 7  20271562.200 0  20271565.366 0
  -5557012.910 7  -4174204.991 7  21332870.895 0  21332875.513 0
  -6400985.172 7  -4397687.866 7  22747544.125 0  22747547.308 0
 88  3  2  5 19 59.0800000  0  4  6  8 11  9
  -4129594.264 8  -3217865.062 7  20924049.112 0  20924052.003 0
   -323966.680 7   -252440.578 7  20276179.430 0  20276181.999 0
  -5620590.957 7  -4223746.305 7  21320772.894 0  21320777.344 0
  -6490497.135 7  -4467437.424 7  22730511.292 0  22730514.624 0
 88  3  2  5 20 29.0800000  0  4  6  8 11  9
  -4167878.118 7  -3247696.635 7  20916764.388 0  20916768.198 0
   -299056.952 7   -233030.395 6  20280919.711 0  20280922.772 0
  -5683680.603 7  -4272907.054 6  21308767.143 0  21308771.434 0
  -6579950.631 8  -4537141.427 7  22713488.408 0  22713490.800 0
 88  3  2  5 20 59.0800000  0  4  6  8 11  9
  -4205840.408 8  -3277277.639 7  20909540.685 0  20909543.807 0
   -273503.244 7   -213118.414 7  20285782.630 0  20285786.707 0
  -5746281.315 7  -4321686.822 7  21296855.256 0  21296859.678 0
  -6669344.448 7  -4606798.928 6  22696476.075 0  22696479.358 0
 88  3  2  5 21 29.0800000  0  4  6  8 11  9
  -4243478.234 8  -3306605.818 7  20902378.569 0  20902381.577 0
   -247307.352 7   -192706.016 6  20290767.183 0  20290770.685 0
  -5808390.688 8  -4370083.724 7  21285036.362 0  21285039.341 0
  -6758676.124 6  -4676408.003 7  22679477.100 0  22679480.958 0
 88  3  2  5 21 59.0800000  0  4  6  8 11  9
  -4280789.447 7  -3335679.499 7  20895278.551 0  20895281.501 0
   -220471.374 8   -171794.862 6  20295874.144 0  20295876.913 0
  -5870007.964 7  -4418097.176 7  21273310.356 0  21273314.775 0
  -6847943.913 6  -4745967.269 6  22662488.917 0  22662494.241 0
 88  3  2  5 22 29.0800000  0  4  6  8 11  9
  -4317771.267 7  -3364496.491 6  20888240.852 0  20888243.673 0
   -192996.701 7   -150386.020 7  20301102.374 0  20301105.962 0
  -5931131.042 7  -4465725.528 7  21261678.173 0  21261683.311 0
  -6937145.098 7  -4815474.636 6  22645516.451 0  22645519.179 0
 88  3  2  5 22 59.0800000  0  4  6  8 11  9
  -4354421.632 7  -3393055.221 7  20881266.860 0  20881269.860 0
   -164885.616 7   -128481.274 6  20306450.856 0  20306456.116 0
  -5991758.961 8  -4512968.039 7  21250141.734 0  21250146.348 0
  -7026278.139 7  -4884928.946 7  22628554.956 0  22628556.249 0
 88  3  2  5 23 29.0800000  0  4  6  8 11  9
  -4390738.345 7  -3421353.946 7  20874355.492 0  20874358.666 0
   -136140.004 7   -106082.091 7  20311922.092 0  20311925.464 0
  -6051890.608 7  -4559823.861 7  21238698.849 0  21238705.057 0
  -7115340.976 7  -4954328.532 7  22611606.136 0  22611610.182 0
 88  3  2  5 23 59.0800000  0  4  6  8 11  9
  -4426719.534 8  -3449391.249 7  20867508.575 0  20867511.413 0
   -106761.930 7    -83190.078 7  20317511.866 0  20317515.982 0
  -6111525.182 7  -4606292.328 7  21227350.274 0  21227355.368 0
  -7204332.056 7  -5023672.207 7  22594672.057 0  22594676.004 0
 88  3  2  5 24 29.0800000  0  4  6  8 11  9
  -4462362.534 7  -3477165.006 7  20860726.647 0  20860729.235 0
    -76753.482 7    -59806.864 7  20323224.131 0  20323226.104 0
  -6170661.027 7  -4652372.197 7  21216098.270 0  21216102.489 0
  -7293248.785 8  -5092957.937 7  22577752.129 0  22577754.937 0
 88  3  2  5 24 59.0800000  0  4  6  8 11  9
  -4497664.697 7  -3504673.179 7  20854008.752 0  20854011.297 0
    -46115.915 7    -35933.434 7  20329052.443 0  20329056.014 0
  -6229296.436 8  -4698062.101 7  21204939.729 0  21204944.175 0
  -7382089.036 8  -5162184.104 7  22560847.450 0  22560849.239 0
 88  3  2  5 25 29.0800000  0  4  6  8 11  9
  -4532624.024 7  -3531914.212 7  20847355.598 0  20847358.904 0
    -14851.770 8    -11571.750 7  20335001.817 0  20335005.714 0
  -6287430.517 8  -4743361.359 7  21193877.530 0  21193882.385 0
  -7470850.904 7  -5231349.179 7  22543955.233 0  22543958.689 0
 88  3  2  5 25 59.0800000  0  4  6  8 11  9
  -4567238.436 7  -3558886.484 7  20840768.737 0  20840773.163 0
     17036.830 7     13276.510 7  20341070.684 0  20341072.377 0
  -6345062.065 7  -4788269.042 7  21182911.317 0  21182913.699 0
  -7559532.225 7  -5300451.470 7  22527079.809 0  22527083.277 0
 88  3  2  5 26 29.0800000  0  4  6  8 11  9
  -4601505.366 7  -3585587.976 7  20834247.189 0  20834250.397 0
     49547.754 7     38609.695 6  20347257.021 0  20347260.326 0
  -6402190.064 7  -4832784.331 7  21172039.402 0  21172044.169 0
  -7648131.125 7  -5369489.542 7  22510218.595 0  22510223.279 0
 88  3  2  5 26 59.0800000  0  4  6  8 11  9
  -4635422.247 8  -3612016.712 7  20827794.201 0  20827796.996 0
     82679.332 7     64426.521 7  20353561.275 0  20353563.485 0
  -6458812.862 7  -4876905.974 6  21161264.270 0  21161268.934 0
  -7736645.015 8  -5438461.364 7  22493376.700 0  22493379.396 0
 88  3  2  5 27 29.0800000  0  4  6  8 11  9
  -4668986.306 7  -3638170.521 7  20821406.336 0  20821410.232 0
    116429.782 7     90725.575 7  20359984.517 0  20359987.335 0
  -6514928.818 7  -4920632.681 7  21150585.590 0  21150590.202 0
  -7825071.152 7  -5507364.825 7  22476549.066 0  22476552.454 0
 88  3  2  5 27 59.0800000  0  4  6  8 11  9
  -4702195.243 7  -3664047.611 7  20815087.234 0  20815090.844 0
    150797.354 7    117505.506 7  20366524.099 0  20366527.673 0
  -6570536.594 7  -4963963.393 6  21140003.959 0  21140008.435 0
  -7913407.356 7  -5576198.210 7  22459738.591 0  22459742.559 0
 88  3  2  5 28 29.0800000  0  4  6  8 11  9
  -4735046.689 7  -3689646.133 7  20808835.752 0  20808839.393 0
    185779.532 7    144764.354 6  20373181.378 0  20373183.886 0
  -6625635.324 7  -5006897.443 7  21129518.874 0  21129523.623 0
  -8001651.672 8  -5644959.975 7  22442947.053 0  22442950.551 0
 88  3  2  5 28 59.0800000  0  4  6  8 11  9
  -4767538.252 8  -3714964.236 7  20802653.675 0  20802655.997 0
    221374.113 7    172500.395 6  20379953.725 0  20379957.962 0
  -6680223.642 8  -5049433.780 6  21119131.493 0  21119135.626 0
  -8089801.699 7  -5713648.264 7  22426173.652 0  22426175.722 0
 88  3  2  5 29 29.0800000  0  4  6  8 11  9
  -4799667.987 7  -3740000.378 7  20796538.432 0  20796542.400 0
    257578.502 8    200711.618 6  20386843.796 0  20386847.009 0
  -6734300.688 8  -5091571.723 7  21108840.387 0  21108845.295 0
  -8177855.431 7  -5782261.518 7  22409416.835 0  22409419.851 0
 88  3  2  5 29 59.0800000  0  4  6  8 11  9
  -4831433.484 7  -3764752.718 6  20790494.172 0  20790496.796 0
    294390.575 8    229396.347 6  20393848.579 0  20393852.567 0
  -6787865.594 7  -5133310.583 6  21098646.834 0  21098651.177 0
  -8265810.546 8  -5850797.964 7  22392679.660 0  22392683.018 0
 88  3  2  5 30 29.0800000  0  4  6  8 11  9
  -4862832.042 8  -3789219.124 7  20784519.563 0  20784522.855 0
    331808.444 7    258553.130 7  20400968.831 0  20400972.514 0
  -6840917.040 7  -5174649.361 7  21088552.272 0  21088556.917 0
  -8353664.654 8  -5919255.702 6  22375960.695 0  22375964.741 0
 88  3  2  5 30 59.0800000  0  4  6  8 11  9
  -4893862.049 7  -3813398.353 8  20778614.468 0  20778617.146 0
    369829.410 8    288179.868 7  20408204.954 0  20408206.429 0
  -6893454.466 8  -5215587.586 7  21078553.720 0  21078558.384 0
  -8441415.892 8  -5987633.284 7  22359262.435 0  22359265.254 0
 88  3  2  5 31 29.0800000  0  4  6  8 11  9
  -4924521.374 7  -3837288.728 7  20772779.224 0  20772783.428 0
    408450.684 7    318274.370 6  20415553.417 0  20415556.896 0
  -6945477.454 7  -5256124.970 7  21068654.605 0  21068658.901 0
  -8529062.459 8  -6055929.322 7  22342584.218 0  22342587.855 0
 88  3  2  5 31 59.0800000  0  4  6  8 11  9
  -4954807.479 7  -3860888.292 7  20767016.200 0  20767020.357 0
    447670.127 8    348834.975 7  20423018.479 0  20423021.162 0
  -6996984.315 7  -5296260.167 7  21058853.159 0  21058858.247 0
  -8616601.643 8  -6124141.655 7  22325926.292 0  22325929.550 0
 88  3  2  5 32 29.0800000  0  4  6  8 11  9
  -4984717.562 7  -3884194.846 7  20761325.374 0  20761328.765 0
    487485.764 7    379860.148 7  20430593.720 0  20430596.763 0
  -7047973.597 7  -5335992.053 7  21049150.346 0  21049155.062 0
  -8704030.720 8  -6192268.206 7  22309288.770 0  22309291.679 0
 88  3  2  5 32 59.0800000  0  4  6  8 11  9
  -5014249.155 7  -3907206.482 7  20755704.727 0  20755709.042 0
    527896.321 7    411348.896 7  20438284.348 0  20438286.466 0
  -7098444.508 7  -5375320.002 7  21039545.751 0  21039550.005 0
  -8791347.284 7  -6260307.089 7  22292672.775 0  22292676.962 0
 88  3  2  5 33 29.0800000  0  4  6  8 11  9
  -5043400.153 8  -3929921.545 6  20750158.318 0  20750161.079 0
    568898.791 7    443298.876 7  20446085.975 0  20446089.207 0
  -7148396.169 7  -5414243.364 7  21030040.503 0  21030045.515 0
  -8878549.017 7  -6328256.471 7  22276079.264 0  22276083.137 0
 88  3  2  5 33 59.0800000  0  4  6  8 11  9
  -5072168.972 7  -3952338.806 7  20744683.863 0  20744686.851 0
    610489.779 7    475707.440 7  20454000.250 0  20454003.788 0
  -7197827.959 7  -5452761.614 6  21020634.322 0  21020638.327 0
  -8965634.159 7  -6396115.012 7  22259506.552 0  22259510.976 0
 88  3  2  5 34 29.0800000  0  4  6  8 11  9
  -5100552.944 7  -3974456.184 8  20739282.452 0  20739285.333 0
    652667.127 8    508572.914 7  20462026.231 0  20462030.130 0
  -7246738.895 7  -5490874.028 6  21011327.068 0  21011331.357 0
  -9052600.452 7  -6463880.925 7  22242958.271 0  22242960.953 0
 88  3  2  5 34 59.0800000  0  4  6  8 11  9
  -5128550.049 7  -3996272.106 7  20733954.691 0  20733958.229 0
    695428.637 8    541893.571 7  20470164.421 0  20470167.202 0
  -7295128.364 7  -5528580.075 6  21002117.730 0  21002122.362 0
  -9139445.659 7  -6531552.481 7  22226431.729 0  22226435.907 0
 88  3  2  5 35 29.0800000  0  4  6  8 11  9
  -5156158.370 7  -4017785.085 7  20728701.087 0  20728704.384 0
    738771.569 8    575667.290 7  20478412.235 0  20478414.838 0
  -7342996.061 8  -5565879.565 6  20993009.099 0  20993014.001 0
  -9226167.917 7  -6599128.232 7  22209929.439 0  22209933.403 0
 88  3  2  5 35 59.0800000  0  4  6  8 11  9
  -5183375.685 7  -4038993.379 7  20723522.244 0  20723525.353 0
    782693.226 7    609891.967 7  20486769.723 0  20486772.506 0
  -7390341.436 7  -5602772.060 6  20983999.975 0  20984003.654 0
  -9312764.193 7  -6666605.820 7  22193450.698 0  22193452.876 0
 88  3  2  5 36 29.0800000  0  4  6  8 11  9
  -5210199.326 7  -4059894.920 7  20718417.341 0  20718421.067 0
    827191.200 8    644565.711 7  20495237.852 0  20495241.436 0
  -7437163.067 7  -5639256.417 7  20975089.380 0  20975094.073 0
  -9399232.247 8  -6733983.506 7  22176995.631 0  22177000.072 0
 88  3  2  5 36 59.0800000  0  4  6  8 11  9
  -5236626.616 7  -4080487.605 7  20713388.608 0  20713391.935 0
    872263.741 7    679687.178 7  20503815.264 0  20503818.459 0
  -7483459.608 7  -5675331.623 6  20966280.691 0  20966284.092 0
  -9485569.223 8  -6801259.057 7  22160566.800 0  22160569.639 0
 88  3  2  5 37 29.0800000  0  4  6  8 11  9
  -5262655.592 7  -4100769.925 7  20708435.748 0  20708438.095 0
    917907.771 8    715253.959 7  20512500.054 0  20512503.435 0
  -7529230.574 7  -5710997.291 7  20957570.898 0  20957573.563 0
  -9571772.824 7  -6868430.681 7  22144162.357 0  22144165.992 0
 88  3  2  5 37 59.0800000  0  4  6  8 11  9
  -5288283.917 7  -4120740.052 7  20703558.896 0  20703561.334 0
    964120.913 7    751264.197 8  20521294.204 0  20521298.124 0
  -7574475.162 7  -5746252.803 6  20948958.976 0  20948965.054 0
  -9657840.818 9  -6935496.640 6  22127784.800 0  22127787.862 0
 88  3  2  5 38 29.0800000  0  4  6  8 11  9
  -5313509.192 8  -4140396.105 7  20698758.108 0  20698761.323 0
   1010900.933 8    787716.171 7  20530197.130 0  20530198.637 0
  -7619192.654 7  -5781097.580 7  20940451.279 0  20940455.118 0
  -9743770.425 7  -7002454.776 7  22111432.572 0  22111436.261 0
 88  3  2  5 38 59.0800000  0  4  6  8 11  9
  -5338329.089 7  -4159736.290 7  20694035.359 0  20694038.200 0
   1058245.239 7    824607.845 7  20539206.109 0  20539209.273 0
  -7663382.243 7  -5815531.021 6  20932042.286 0  20932046.391 0
  -9829559.000 7  -7069303.011 7  22095107.616 0  22095111.097 0
 88  3  2  5 39 29.0800000  0  4  6  8 11  9
  -5362741.578 7  -4178759.022 7  20689389.377 0  20689393.527 0
   1106151.271 7    861937.212 7  20548321.414 0  20548325.574 0
  -7707043.273 7  -5849552.588 7  20923734.223 0  20923737.434 0
  -9915204.616 8  -7136039.837 8  22078809.121 0  22078812.650 0
 88  3  2  5 39 59.0800000  0  4  6  8 11  9
  -5386745.239 7  -4197463.175 7  20684821.317 0  20684824.952 0
   1154615.319 7    899701.400 7  20557544.626 0  20557547.580 0
  -7750175.819 7  -5883162.335 7  20915526.507 0  20915529.280 0
 -10000705.048 8  -7202663.537 7  22062538.916 0  22062542.804 0
 88  3  2  5 40 29.0800000  0  4  6  8 11  9
  -5410337.262 8  -4215846.571 6  20680332.314 0  20680336.077 0
   1203635.113 7    937898.655 7  20566872.262 0  20566876.225 0
  -7792779.154 7  -5916359.731 6  20907418.269 0  20907423.306 0
 -10086057.694 8  -7269172.050 7  22046297.559 0  22046300.038 0
 88  3  2  5 40 59.0800000  0  4  6  8 11  9
  -5433515.237 7  -4233907.321 7  20675921.985 0  20675924.535 0
   1253208.532 7    976527.281 7  20576306.566 0  20576308.461 0
  -7834852.429 7  -5949144.073 7  20899411.398 0  20899415.504 0
 -10171260.012 7  -7335563.441 7  22030083.222 0  22030088.106 0
 88  3  2  5 41 29.0800000  0  4  6  8 11  9
  -5456276.602 7  -4251643.462 7  20671590.701 0  20671593.548 0
   1303333.281 7   1015585.524 7  20585843.944 0  20585848.561 0
  -7876394.495 8  -5981514.506 7  20891507.658 0  20891510.831 0
 -10256308.565 7  -7401835.016 7  22013899.378 0  22013902.999 0
 88  3  2  5 41 59.0800000  0  4  6  8 11  9
  -5478619.639 7  -4269053.616 7  20667338.426 0  20667342.032 0
   1354006.225 7   1055070.933 7  20595486.809 0  20595490.971 0
  -7917405.182 8  -6013470.873 7  20883702.542 0  20883707.595 0
 -10341201.781 8  -7467985.545 7  21997745.132 0  21997748.075 0
 88  3  2  5 42 29.0800000  0  4  6  8 11  9
  -5500542.294 7  -4286136.202 7  20663167.096 0  20663169.653 0
   1405224.631 7   1094981.384 7  20605233.684 0  20605236.677 0
  -7957884.067 7  -6045012.836 6  20876000.309 0  20876004.438 0
 -10425936.894 8  -7534012.874 7  21981620.052 0  21981622.998 0
 88  3  2  5 42 59.0800000  0  4  6  8 11  9
  -5522041.594 7  -4302888.911 7  20659075.172 0  20659079.259 0
   1456986.514 7   1135315.313 7  20615082.602 0  20615087.600 0
  -7997830.152 7  -6076139.640 7  20868398.400 0  20868403.179 0
 -10510510.795 7  -7599914.605 7  21965526.641 0  21965529.613 0
 88  3  2  5 43 29.0800000  0  4  6  8 11  9
  -5543116.268 7  -4319310.750 7  20655063.905 0  20655068.259 0
   1509287.927 7   1176069.661 7  20625035.354 0  20625039.433 0
  -8037243.675 7  -6106851.472 7  20860897.824 0  20860902.571 0
 -10594921.561 8  -7665689.214 7  21949464.994 0  21949467.774 0
 88  3  2  5 43 59.0800000  0  4  6  8 11  9
  -5563763.670 7  -4335399.625 7  20651136.232 0  20651139.190 0
   1562126.983 7   1217242.947 7  20635090.401 0  20635094.762 0
  -8076123.932 7  -6137147.752 6  20853499.367 0  20853503.343 0
 -10679166.744 8  -7731334.803 7  21933432.535 0  21933435.841 0
 88  3  2  5 44 29.0800000  0  4  6  8 11  9
  -5583982.115 7  -4351154.268 7  20647288.548 0  20647291.622 0
   1615500.340 7   1258832.572 7  20645247.015 0  20645251.798 0
  -8114470.396 7  -6167028.101 7  20846201.978 0  20846205.905 0
 -10763243.752 7  -7796849.340 7  21917433.501 0  21917434.969 0
 88  3  2  5 44 59.0800000  0  4  6  8 11  9
  -5603769.559 7  -4366573.062 7  20643523.122 0  20643525.789 0
   1669405.422 7   1300836.530 7  20655504.843 0  20655509.498 0
  -8152283.117 7  -6196492.535 6  20839006.924 0  20839011.545 0
 -10847150.075 7  -7862230.893 7  21901466.440 0  21901468.745 0
 88  3  2  5 45 29.0800000  0  4  6  8 11  9
  -5623123.902 7  -4381654.349 7  20639840.006 0  20639843.160 0
   1723839.269 7   1343252.521 7  20665864.350 0  20665867.150 0
  -8189561.591 6  -6225540.700 7  20831913.118 0  20831917.153 0
 -10930883.598 7  -7927477.794 7  21885532.718 0  21885535.366 0
 88  3  2  5 45 59.0800000  0  4  6  8 11  9
  -5642043.127 8  -4396396.614 7  20636240.838 0  20636243.061 0
   1778798.578 8   1386077.954 7  20676322.432 0  20676325.402 0
  -8226305.718 7  -6254172.478 7  20824920.432 0  20824925.154 0
 -11014441.311 8  -7992587.690 7  21869631.849 0  21869634.257 0
 88  3  2  5 46 29.0800000  0  4  6  8 11  9
  -5660525.152 7  -4410798.199 7  20632723.839 0  20632726.700 0
   1834280.597 8   1429310.701 6  20686879.807 0  20686883.269 0
  -8262515.074 6  -6282387.533 6  20818030.410 0  20818034.181 0
 -11097820.897 8  -8057558.794 7  21853765.392 0  21853767.071 0
 88  3  2  5 46 59.0800000  0  4  6  8 11  9
  -5678567.845 7  -4424857.437 7  20629289.264 0  20629293.439 0
   1890282.508 7   1472948.561 7  20697536.708 0  20697539.811 0
  -8298189.392 7  -6310185.676 6  20811242.514 0  20811246.346 0
 -11181019.927 8  -8122389.183 6  21837931.756 0  21837935.773 0
 88  3  2  5 47 29.0800000  0  4  6  8 11  9
  -5696169.154 7  -4438572.752 7  20625940.445 0  20625944.238 0
   1946801.702 8   1516989.507 7  20708292.176 0  20708295.213 0
  -8333328.404 7  -6337566.704 6  20804554.610 0  20804559.661 0
 -11264035.358 8  -8187076.523 7  21822136.120 0  21822138.158 0
 88  3  2  5 47 59.0800000  0  4  6  8 11  9
  -5713326.950 7  -4451942.453 7  20622675.228 0  20622678.454 0
   2003835.283 7   1561431.261 6  20719145.287 0  20719148.181 0
  -8367931.756 7  -6364530.347 7  20797970.031 0  20797974.818 0
 -11346864.714 8  -8251618.874 7  21806373.077 0  21806377.070 0
 88  3  2  5 48 29.0800000  0  4  6  8 11  9
  -5730039.358 6  -4464965.111 7  20619493.711 0  20619498.919 0
   2061380.061 8   1606271.350 7  20730095.958 0  20730099.050 0
  -8401999.385 7  -6391076.534 6  20791487.811 0  20791492.078 0
 -11429505.598 8  -8316014.346 8  21790647.992 0  21790650.763 0
 88  3  2  5 48 59.0800000  0  4  6  8 11  9
  -5746303.712 7  -4477638.647 7  20616400.394 0  20616403.316 0
   2119433.858 7   1651508.079 7  20741144.072 0  20741145.624 0
  -8435530.518 7  -6417204.674 6  20785105.568 0  20785111.378 0
 -11511954.962 8  -8380260.590 7  21774957.591 0  21774961.196 0
 88  3  2  5 49 29.0800000  0  4  6  8 11  9
  -5762118.335 7  -4489961.712 7  20613389.767 0  20613393.553 0
   2177993.791 8   1697139.194 6  20752286.654 0  20752290.266 0
  -8468525.179 6  -6442914.787 6  20778827.724 0  20778831.377 0
 -11594209.775 8  -8444355.253 7  21759305.483 0  21759308.625 0
 88  3  2  5 49 59.0800000  0  4  6  8 11  9
  -5777481.433 7  -4501932.972 8  20610467.105 0  20610469.813 0
   2237056.139 8   1743161.812 7  20763526.795 0  20763529.855 0
  -8500983.750 7  -6468207.164 7  20772651.448 0  20772654.874 0
 -11676268.598 8  -8508297.182 7  21743690.520 0  21743693.052 0
 88  3  2  5 50 29.0800000  0  4  6  8 11  9
  -5792390.758 7  -4513550.625 7  20607630.085 0  20607633.528 0
   2296618.367 8   1789573.945 7  20774860.973 0  20774863.619 0
  -8532905.428 7  -6493081.175 6  20766576.400 0  20766581.583 0
 -11758128.165 8  -8572083.843 7  21728112.506 0  21728115.878 0
 88  3  2  5 50 59.0800000  0  4  6  8 11  9
  -5806844.090 7  -4524812.958 7  20604878.787 0  20604882.915 0
   2356677.734 7   1836373.439 7  20786288.763 0  20786291.611 0
  -8564290.049 7  -6517536.713 7  20760603.657 0  20760607.596 0
 -11839785.109 7  -8635712.634 7  21712573.784 0  21712576.127 0
 88  3  2  5 51 29.0800000  0  4  6  8 11  9
  -5820839.452 7  -4535718.446 7  20602216.047 0  20602219.050 0
   2417231.187 7   1883557.944 7  20797812.354 0  20797814.742 0
  -8595137.024 7  -6541573.309 7  20754735.069 0  20754738.975 0
 -11921237.286 7  -8699181.834 7  21697074.214 0  21697077.283 0
 88  3  2  5 51 59.0800000  0  4  6  8 11  9
  -5834374.515 7  -4546265.253 7  20599640.731 0  20599644.570 0
   2478276.267 7   1931125.557 7  20809428.895 0  20809431.609 0
  -8625446.663 6  -6565191.187 7  20748965.980 0  20748971.243 0
 -12002481.503 7  -8762488.993 7  21681613.843 0  21681617.304 0
 88  3  2  5 52 29.0800000  0  4  6  8 11  9
  -5847447.828 7  -4556452.243 7  20597153.411 0  20597156.959 0
   2539809.705 7   1979073.685 7  20821137.272 0  20821140.408 0
  -8655219.198 7  -6588390.543 6  20743301.715 0  20743305.756 0
 -12083515.507 8  -8825632.356 7  21666193.462 0  21666196.931 0
 88  3  2  5 52 59.0800000  0  4  6  8 11  9
  -5860057.304 7  -4566277.816 7  20594753.203 0  20594755.979 0
   2601828.612 8   2027400.102 7  20832939.460 0  20832942.384 0
  -8684454.596 8  -6611171.366 7  20737738.135 0  20737742.165 0
 -12164336.615 7  -8888609.817 7  21650813.626 0  21650816.529 0
 88  3  2  5 53 29.0800000  0  4  6  8 11  9
  -5872201.225 8  -4575740.622 7  20592443.213 0  20592445.949 0
   2664329.596 7   2076102.176 7  20844832.699 0  20844836.057 0
  -8713152.732 7  -6633533.539 7  20732276.946 0  20732281.619 0
 -12244942.221 7  -8951419.362 7  21635474.718 0  21635477.533 0
 88  3  2  5 53 59.0800000  0  4  6  8 11  9
  -5883877.475 7  -4584838.989 7  20590220.744 0  20590223.638 0
   2727309.746 7   2125177.612 7  20856817.623 0  20856820.775 0
  -8741313.802 7  -6655477.206 7  20726917.243 0  20726922.724 0
 -12325329.430 7  -9014058.731 7  21620178.366 0  21620180.033 0
 88  3  2  5 54 29.0800000  0  4  6  8 11  9
  -5895084.762 7  -4593571.949 7  20588087.260 0  20588091.169 0
   2790765.430 7   2174623.600 7  20868893.270 0  20868895.840 0
  -8768938.157 7  -6677002.666 7  20721661.134 0  20721665.653 0
 -12405496.152 7  -9076526.302 7  21604922.476 0  21604925.737 0
 88  3  2  5 54 59.0800000  0  4  6  8 11  9
  -5905820.320 7  -4601937.317 7  20586044.737 0  20586048.193 0
   2854694.565 8   2224438.517 7  20881058.340 0  20881061.871 0
  -8796025.100 7  -6698109.366 6  20716506.235 0  20716511.267 0
 -12485438.824 7  -9138819.270 8  21589710.607 0  21589713.174 0
 88  3  2  5 55 29.0800000  0  4  6  8 11  9
  -5916082.659 7  -4609933.954 6  20584092.504 0  20584096.024 0
   2919093.653 7   2274619.624 7  20893312.526 0  20893316.044 0
  -8822575.385 6  -6718797.883 7  20711454.719 0  20711458.863 0
 -12565154.781 8  -9200935.592 7  21574540.344 0  21574543.862 0
 88  3  2  5 55 59.0800000  0  4  6  8 11  9
  -5925870.200 7  -4617560.609 7  20582229.386 0  20582232.726 0
   2983959.201 8   2325164.207 7  20905657.163 0  20905659.416 0
  -8848588.798 7  -6739068.070 7  20706504.362 0  20706508.237 0
 -12644642.116 8  -9262873.765 7  21559414.556 0  21559417.697 0
 88  3  2  5 56 29.0800000  0  4  6  8 11  9
  -5935180.736 6  -4624815.585 6  20580458.106 0  20580460.816 0
   3049288.609 7   2376070.240 7  20918089.005 0  20918091.735 0
  -8874065.449 7  -6758919.990 7  20701655.211 0  20701660.441 0
 -12723897.594 7  -9324631.261 7  21544332.071 0  21544335.513 0
 88  3  2  5 56 59.0800000  0  4  6  8 11  9
  -5944012.632 7  -4631697.592 6  20578776.767 0  20578780.493 0
   3115078.608 8   2427335.167 7  20930608.448 0  20930611.340 0
  -8899005.444 7  -6778353.728 7  20696910.071 0  20696914.331 0
 -12802918.289 7  -9386205.823 7  21529294.941 0  21529298.311 0
 88  3  2  5 57 29.0800000  0  4  6  8 11  9
  -5952363.675 7  -4638204.894 7  20577188.843 0  20577191.413 0
   3181326.720 8   2478957.094 7  20943213.977 0  20943217.249 0
  -8923408.874 7  -6797369.377 7  20692265.646 0  20692269.772 0
 -12881701.262 7  -9447595.112 7  21514303.918 0  21514306.374 0
 88  3  2  5 57 59.0800000  0  4  6  8 11  9
  -5960232.475 7  -4644336.429 7  20575690.811 0  20575693.997 0
   3248029.520 7   2530933.294 7  20955907.272 0  20955910.541 0
  -8947276.211 7  -6815967.290 6  20687724.955 0  20687728.424 0
 -12960243.965 8  -9508797.216 7  21499357.108 0  21499360.479 0
 88  3  2  5 58 29.0800000  0  4  6  8 11  9
  -5967617.272 7  -4650090.830 7  20574284.990 0  20574288.991 0
   3315183.613 8   2583261.166 7  20968687.035 0  20968689.031 0
  -8970608.181 7  -6834148.025 6  20683284.527 0  20683288.130 0
 -13038544.136 8  -9569810.313 7  21484456.719 0  21484459.768 0
 88  3  2  5 58 59.0800000  0  4  6  8 11  9
  -5974515.849 6  -4655466.348 7  20572971.937 0  20572976.029 0
   3382786.317 8   2635938.603 7  20981551.525 0  20981553.948 0
  -8993404.384 7  -6851911.284 6  20678946.386 0  20678949.792 0
 -13116598.174 7  -9630631.632 7  21469604.725 0  21469607.237 0
 88  3  2  5 59 29.0800000  0  4  6  8 11  9
  -5980926.511 7  -4660461.679 7  20571752.974 0  20571755.811 0
   3450834.501 7   2688963.174 7  20994499.965 0  20994502.975 0
  -9015665.154 7  -6869257.337 7  20674710.178 0  20674714.497 0
 -13194403.854 8  -9691259.411 7  21454798.119 0  21454801.000 0
 88  3  2  5 59 59.0800000  0  4  6  8 11  9
  -5986847.784 7  -4665075.654 7  20570626.066 0  20570628.926 0
   3519324.804 7   2742332.237 7  21007532.882 0  21007536.636 0
  -9037390.456 7  -6886186.116 7  20670576.665 0  20670580.523 0
 -13271957.625 7  -9751690.915 7  21440039.845 0  21440042.591 0
 88  3  2  6  0 29.0800000  0  4  6  8 11  9
  -5992277.590 7  -4669306.677 7  20569592.492 0  20569595.567 0
   3588254.229 7   2796043.482 6  21020649.926 0  21020653.959 0
  -9058580.814 7  -6902698.086 7  20666544.002 0  20666548.722 0
 -13349257.637 7  -9811924.702 7  21425330.856 0  21425332.943 0
 88  3  2  6  0 59.0800000  0  4  6  8 11  9
  -5997214.350 7  -4673153.505 7  20568653.274 0  20568655.866 0
   3657620.127 7   2850094.842 7  21033849.995 0  21033853.059 0
  -9079236.430 7  -6918793.357 7  20662612.220 0  20662616.982 0
 -13426300.326 8  -9871957.965 7  21410669.834 0  21410672.090 0
 88  3  2  6  1 29.0800000  0  4  6  8 11  9
  -6001655.856 7  -4676614.428 7  20567807.785 0  20567810.628 0
   3727419.603 7   2904484.039 7  21047132.562 0  21047135.872 0
  -9099357.379 7  -6934472.009 7  20658784.643 0  20658787.668 0
 -13503082.454 7  -9931788.192 7  21396059.092 0  21396061.889 0
 88  3  2  6  1 59.0800000  0  4  6  8 11  9
  -6005601.005 7  -4679688.561 7  20567057.610 0  20567060.888 0
   3797648.888 7   2959208.155 7  21060496.516 0  21060500.475 0
  -9118944.537 7  -6949734.723 7  20655056.005 0  20655061.151 0
 -13579602.302 8  -9991414.037 6  21381497.686 0  21381499.938 0
 88  3  2  6  2 29.0800000  0  4  6  8 11  9
  -6009048.227 7  -4682374.722 7  20566401.294 0  20566403.979 0
   3868304.840 7   3014264.736 8  21073941.935 0  21073945.612 0
  -9137998.385 7  -6964581.843 7  20651430.170 0  20651435.253 0
 -13655856.711 7 -10050833.053 7  21366986.335 0  21366989.066 0
 88  3  2  6  2 59.0800000  0  4  6  8 11  9
  -6011995.939 7  -4684671.636 7  20565841.307 0  20565843.996 0
   3939384.115 7   3069651.184 7  21087467.707 0  21087471.070 0
  -9156519.306 6  -6979013.739 7  20647906.085 0  20647909.743 0
 -13731842.865 7 -10110043.025 8  21352527.125 0  21352529.712 0
 88  3  2  6  3 29.0800000  0  4  6  8 11  9
  -6014442.137 7  -4686577.778 7  20565375.434 0  20565378.458 0
   4010883.982 7   3125365.365 7  21101072.992 0  21101077.060 0
  -9174507.530 7  -6993030.505 6  20644482.508 0  20644488.698 0
 -13807557.856 8 -10169041.711 8  21338119.176 0  21338121.974 0
 88  3  2  6  3 59.0800000  0  4  6  8 11  9
  -6016385.395 7  -4688092.002 7  20565004.816 0  20565008.635 0
   4082801.160 7   3181404.725 7  21114759.099 0  21114763.548 0
  -9191963.546 7  -7006632.599 6  20641162.386 0  20641166.009 0
 -13882998.827 8 -10227826.886 7  21323762.908 0  21323765.620 0
 88  3  2  6  4 29.0800000  0  4  6  8 11  9
  -6017824.169 7  -4689213.131 7  20564731.430 0  20564734.827 0
   4155132.263 7   3237766.612 7  21128523.408 0  21128527.219 0
  -9208888.157 7  -7019820.588 7  20637940.351 0  20637944.626 0
 -13958163.234 7 -10286396.535 7  21309459.784 0  21309462.657 0
 88  3  2  6  4 59.0800000  0  4  6  8 11  9
  -6018756.492 7  -4689939.614 7  20564553.911 0  20564556.765 0
   4227874.661 7   3294449.002 7  21142365.678 0  21142369.118 0
  -9225281.490 7  -7032594.595 6  20634822.269 0  20634826.004 0
 -14033047.636 7 -10344748.003 7  21295209.747 0  21295212.989 0
 88  3  2  6  5 29.0800000  0  4  6  8 11  9
  -6019181.208 7  -4690270.568 7  20564473.145 0  20564476.226 0
   4301024.651 8   3351448.999 7  21156286.056 0  21156288.613 0
  -9241144.791 7  -7044955.603 7  20631802.382 0  20631807.471 0
 -14107649.541 8 -10402879.349 7  21281013.858 0  21281016.342 0
 88  3  2  6  5 59.0800000  0  4  6  8 11  9
  -6019096.299 7  -4690204.425 7  20564489.217 0  20564493.786 0
   4374579.433 7   3408764.408 7  21170282.468 0  21170285.919 0
  -9256477.656 7  -7056903.262 6  20628884.721 0  20628888.966 0
 -14181965.551 8 -10460787.923 7  21266871.512 0  21266875.014 0
 88  3  2  6  6 29.0800000  0  4  6  8 11  9
  -6018500.466 7  -4689740.138 7  20564603.372 0  20564606.331 0
   4448535.303 7   3466392.357 7  21184356.540 0  21184359.206 0
  -9271280.897 6  -7068438.243 6  20626067.963 0  20626071.200 0
 -14255993.478 7 -10518472.008 7  21252784.973 0  21252787.714 0
 88  3  2  6  6 59.0800000  0  4  6  8 11  9
  -6017391.976 7  -4688876.389 7  20564813.336 0  20564816.611 0
   4522889.105 7   3524330.376 7  21198505.235 0  21198507.931 0
  -9285555.801 7  -7079561.543 6  20623351.883 0  20623357.075 0
 -14329730.290 8 -10575929.248 7  21238753.096 0  21238755.278 0
 88  3  2  6  7 29.0800000  0  4  6  8 11  9
  -6015770.130 7  -4687612.621 7  20565121.745 0  20565125.335 0
   4597637.741 8   3582576.067 7  21212729.298 0  21212732.957 0
  -9299302.723 7  -7090273.411 7  20620736.083 0  20620739.946 0
 -14403173.192 8 -10633157.476 7  21224777.308 0  21224779.707 0
 88  3  2  6  7 59.0800000  0  4  6  8 11  9
  -6013632.854 7  -4685947.222 6  20565529.039 0  20565532.821 0
   4672778.294 8   3641127.155 8  21227028.599 0  21227031.824 0
  -9312522.089 7  -7100574.211 6  20618221.202 0  20618224.840 0
 -14476319.159 7 -10690154.320 7  21210858.875 0  21210860.671 0
 88  3  2  6  8 29.0800000  0  4  6  8 11  9
  -6010979.021 7  -4683879.294 7  20566034.045 0  20566036.002 0
   4748307.183 7   3699980.820 7  21241401.069 0  21241403.989 0
  -9325214.612 7  -7110464.489 6  20615804.820 0  20615807.760 0
 -14549165.406 8 -10746917.614 7  21196995.845 0  21196999.003 0
 88  3  2  6  8 59.0800000  0  4  6  8 11  9
  -6007806.756 7  -4681407.412 7  20566636.945 0  20566640.542 0
   4824221.709 7   3759134.992 7  21255848.389 0  21255850.396 0
  -9337380.618 7  -7119944.480 7  20613490.297 0  20613493.817 0
 -14621708.965 7 -10803445.043 7  21183191.140 0  21183193.951 0
 88  3  2  6  9 29.0800000  0  4  6  8 11  9
  -6004114.771 7  -4678530.544 7  20567339.774 0  20567344.347 0
   4900518.661 8   3818587.168 7  21270366.650 0  21270368.785 0
  -9349021.103 7  -7129014.969 6  20611274.410 0  20611277.741 0
 -14693947.125 7 -10859734.513 7  21169444.070 0  21169448.143 0
 88  3  2  6  9 59.0800000  0  4  6  8 11  9
  -5999901.694 7  -4675247.641 7  20568141.668 0  20568145.470 0
   4977194.580 7   3878334.633 7  21284956.859 0  21284959.369 0
  -9360137.013 7  -7137676.704 6  20609159.837 0  20609163.853 0
 -14765877.095 8 -10915783.827 7  21155757.103 0  21155760.161 0
 88  3  2  6 10 29.0800000  0  4  6  8 11  9
  -5995166.330 7  -4671557.749 7  20569043.003 0  20569046.022 0
   5054246.247 8   3938374.893 7  21299619.257 0  21299621.986 0
  -9370729.032 6  -7145930.214 6  20607143.678 0  20607148.414 0
 -14837495.569 7 -10971590.422 7  21142129.144 0  21142131.615 0
 88  3  2  6 10 59.0800000  0  4  6  8 11  9
  -5989907.588 6  -4667460.031 7  20570044.160 0  20570047.552 0
   5131670.176 7   3998705.229 7  21314352.417 0  21314355.318 0
  -9380798.459 7  -7153776.504 7  20605228.003 0  20605231.495 0
 -14908800.397 7 -11027152.608 7  21128559.623 0  21128562.368 0
 88  3  2  6 11 29.0800000  0  4  6  8 11  9
  -5984123.756 7  -4662953.165 7  20571144.275 0  20571147.590 0
   5209463.422 7   4059323.345 8  21329155.860 0  21329158.616 0
  -9390345.416 7  -7161215.682 6  20603410.518 0  20603413.899 0
 -14979788.362 7 -11082467.903 7  21115050.457 0  21115053.773 0
 88  3  2  6 11 59.0800000  0  4  6  8 11  9
  -5977813.739 7  -4658036.275 7  20572345.739 0  20572347.983 0
   5287622.340 7   4120226.403 8  21344028.858 0  21344032.461 0
  -9399371.347 6  -7168248.871 7  20601692.253 0  20601696.984 0
 -15050456.649 8 -11137534.092 7  21101603.342 0  21101606.368 0
 88  3  2  6 12 29.0800000  0  4  6  8 11  9
  -5970976.327 7  -4652708.427 7  20573646.490 0  20573650.451 0
   5366144.057 7   4181412.157 7  21358971.578 0  21358974.428 0
  -9407876.929 6  -7174876.592 6  20600074.273 0  20600080.770 0
 -15120802.586 7 -11192349.106 7  21088216.495 0  21088219.966 0
 88  3  2  6 12 59.0800000  0  4  6  8 11  9
  -5963610.035 7  -4646968.471 7  20575048.207 0  20575051.739 0
   5445025.429 8   4242878.160 6  21373982.831 0  21373986.007 0
  -9415862.860 7  -7181099.382 6  20598554.768 0  20598558.944 0
 -15190822.881 8 -11246910.355 7  21074891.918 0  21074895.304 0
 88  3  2  6 13 29.0800000  0  4  6  8 11  9
  -5955713.268 7  -4640815.147 6  20576549.688 0  20576553.471 0
   5524263.777 7   4304622.334 7  21389061.489 0  21389063.990 0
  -9423329.446 7  -7186917.487 6  20597133.270 0  20597137.678 0
 -15260514.522 8 -11301215.532 7  21061630.218 0  21061633.121 0
 88  3  2  6 13 59.0800000  0  4  6  8 11  9
  -5947285.104 7  -4634247.758 6  20578153.993 0  20578157.632 0
   5603855.397 7   4366641.777 7  21404206.954 0  21404209.720 0
  -9430278.150 7  -7192332.053 7  20595812.658 0  20595817.672 0
 -15329874.842 8 -11355262.531 7  21048430.680 0  21048433.865 0
 88  3  2  6 14 29.0800000  0  4  6  8 11  9
  -5938323.964 7  -4627265.058 7  20579860.183 0  20579864.159 0
   5683797.116 8   4428934.027 7  21419417.564 0  21419422.147 0
  -9436709.398 6  -7197343.398 7  20594587.224 0  20594592.376 0
 -15398900.604 8 -11409048.851 7  21035297.074 0  21035299.144 0
 88  3  2  6 14 59.0800000  0  4  6  8 11  9
  -5928828.855 7  -4619866.278 7  20581666.296 0  20581669.772 0
   5764085.734 8   4491496.595 8  21434697.234 0  21434700.074 0
  -9442624.588 7  -7201952.611 7  20593461.205 0  20593466.051 0
 -15467589.072 7 -11462572.318 7  21022225.487 0  21022228.158 0
 88  3  2  6 15 29.0800000  0  4  6  8 11  9
  -5918798.503 7  -4612050.433 7  20583575.959 0  20583579.024 0
   5844718.367 8   4554327.200 7  21450040.799 0  21450044.539 0
  -9448024.206 7  -7206160.117 7  20592434.852 0  20592438.969 0
 -15535937.227 7 -11515830.615 7  21009219.148 0  21009222.548 0
 88  3  2  6 15 59.0800000  0  4  6  8 11  9
  -5908231.321 6  -4603816.275 7  20585585.742 0  20585589.225 0
   5925691.925 7   4617423.478 7  21465450.535 0  21465452.970 0
  -9452909.418 7  -7209966.756 7  20591503.405 0  20591510.871 0
 -15603942.113 7 -11568821.440 7  20996278.490 0  20996281.574 0
 88  3  2  6 16 29.0800000  0  4  6  8 11  9
  -5897126.788 6  -4595163.394 7  20587699.024 0  20587702.681 0
   6007002.872 8   4680782.663 7  21480922.560 0  21480925.152 0
  -9457281.257 6  -7213373.370 6  20590673.466 0  20590677.530 0
 -15671600.859 8 -11621542.529 7  20983402.708 0  20983406.223 0
 88  3  2  6 16 59.0800000  0  4  6  8 11  9
  -5885483.733 7  -4586090.901 7  20589915.508 0  20589919.164 0
   6088647.659 8   4744401.986 7  21496459.460 0  21496462.353 0
  -9461140.777 8  -7216380.797 6  20589938.929 0  20589941.596 0
 -15738910.786 8 -11673991.810 7  20970594.379 0  20970598.184 0
 88  3  2  6 17 29.0800000  0  4  6  8 11  9
  -5873301.220 7  -4576598.040 8  20592233.327 0  20592236.286 0
   6170623.091 8   4808278.944 7  21512058.616 0  21512061.938 0
  -9464489.405 7  -7218990.101 7  20589298.873 0  20589306.154 0
 -15805869.311 7 -11726167.285 7  20957852.764 0  20957855.533 0
 88  3  2  6 17 59.0800000  0  4  6  8 11  9
  -5860577.943 7  -4566683.811 7  20594653.820 0  20594657.810 0
   6252926.353 8   4872411.358 7  21527720.554 0  21527724.353 0
  -9467327.993 7  -7221201.962 7  20588761.305 0  20588765.095 0
 -15872473.091 7 -11778066.325 7  20945178.770 0  20945181.683 0
 88  3  2  6 18 29.0800000  0  4  6  8 11  9
  -5847313.332 7  -4556347.760 7  20597178.254 0  20597182.240 0
   6335553.988 7   4936796.530 7  21543443.693 0  21543446.536 0
  -9469658.137 6  -7223017.671 6  20588317.915 0  20588320.405 0
 -15938719.986 7 -11829687.277 7  20932572.431 0  20932574.732 0
 88  3  2  6 18 59.0800000  0  4  6  8 11  9
  -5833505.975 7  -4545588.788 7  20599806.079 0  20599809.887 0
   6418502.539 8   5001431.758 8  21559228.212 0  21559232.122 0
  -9471480.546 6  -7224437.712 7  20587969.778 0  20587975.634 0
 -16004606.583 7 -11881027.485 7  20920034.377 0  20920037.132 0
 88  3  2  6 19 29.0800000  0  4  6  8 11  9
  -5819154.853 7  -4534406.110 7  20602537.128 0  20602540.293 0
   6501768.883 7   5066314.622 8  21575073.879 0  21575076.780 0
  -9472796.122 7  -7225462.829 6  20587720.592 0  20587725.088 0
 -16070129.968 7 -11932084.656 7  20907565.207 0  20907567.403 0
 88  3  2  6 19 59.0800000  0  4  6  8 11  9
  -5804259.100 7  -4522799.023 7  20605371.566 0  20605374.994 0
   6585350.041 7   5131442.791 8  21590978.133 0  21590982.566 0
  -9473606.056 7  -7226093.942 7  20587566.677 0  20587570.935 0
 -16135287.099 7 -11982856.450 7  20895166.664 0  20895169.532 0
 88  3  2  6 20 29.0800000  0  4  6  8 11  9
  -5788817.764 7  -4510766.830 7  20608310.597 0  20608313.274 0
   6669242.640 8   5196813.642 7  21606943.466 0  21606946.339 0
  -9473911.871 7  -7226332.225 6  20587507.797 0  20587512.912 0
 -16200075.606 8 -12033340.983 7  20882837.209 0  20882841.070 0
 88  3  2  6 20 59.0800000  0  4  6  8 11  9
  -5772829.432 7  -4498308.388 7  20611352.843 0  20611356.022 0
   6753443.832 7   5262424.954 7  21622965.476 0  21622968.994 0
  -9473714.030 7  -7226178.060 6  20587546.609 0  20587550.373 0
 -16264491.945 7 -12083535.521 7  20870579.528 0  20870582.743 0
 88  3  2  6 21 29.0800000  0  4  6  8 11  9
  -5756293.419 7  -4485423.206 6  20614499.660 0  20614503.040 0
   6837950.374 7   5328274.205 7  21639046.677 0  21639050.029 0
  -9473013.757 7  -7225632.390 7  20587678.420 0  20587683.577 0
 -16328532.994 7 -12133437.638 6  20858393.136 0  20858396.166 0
 88  3  2  6 21 59.0800000  0  4  6  8 11  9
  -5739208.261 7  -4472110.094 6  20617750.440 0  20617753.287 0
   6922759.750 8   5394359.436 7  21655185.201 0  21655188.613 0
  -9471812.215 7  -7224696.100 6  20587907.441 0  20587911.623 0
 -16392195.746 7 -12183044.979 7  20846278.660 0  20846280.974 0
 88  3  2  6 22 29.0800000  0  4  6  8 11  9
  -5721573.969 7  -4458369.112 7  20621105.675 0  20621109.903 0
   7007867.791 7   5460677.381 7  21671380.311 0  21671383.766 0
  -9470111.023 7  -7223370.493 7  20588231.716 0  20588235.299 0
 -16455478.119 8 -12232355.921 7  20834236.332 0  20834239.421 0
 88  3  2  6 22 59.0800000  0  4  6  8 11  9
  -5703389.392 7  -4444199.317 7  20624566.828 0  20624570.757 0
   7093271.539 7   5527225.768 7  21687632.884 0  21687635.574 0
  -9467911.473 7  -7221656.560 7  20588650.707 0  20588654.436 0
 -16518377.148 7 -12281368.142 7  20822267.440 0  20822270.354 0
 88  3  2  6 23 29.0800000  0  4  6  8 11  9
  -5684653.866 7  -4429600.213 7  20628131.123 0  20628134.430 0
   7178967.522 7   5594001.854 8  21703939.931 0  21703942.889 0
  -9465214.925 7  -7219555.334 7  20589163.033 0  20589167.269 0
 -16580890.155 7 -12330079.573 7  20810371.182 0  20810373.809 0
 88  3  2  6 23 59.0800000  0  4  6  8 11  9
  -5665366.604 7  -4414571.191 7  20631801.858 0  20631804.885 0
   7264952.685 7   5661003.286 7  21720303.427 0  21720305.107 0
  -9462022.568 7  -7217067.781 6  20589770.395 0  20589774.785 0
 -16643013.819 8 -12378487.624 7  20798549.703 0  20798552.313 0
 88  3  2  6 24 29.0800000  0  4  6  8 11  9
  -5645526.887 7  -4399111.683 7  20635577.095 0  20635581.443 0
   7351223.982 7   5728227.685 7  21736720.098 0  21736722.214 0
  -9458335.962 6  -7214195.092 6  20590471.728 0  20590475.882 0
 -16704745.566 7 -12426590.281 8  20786802.775 0  20786805.014 0
 88  3  2  6 24 59.0800000  0  4  6  8 11  9
  -5625133.655 7  -4383220.853 7  20639458.204 0  20639460.522 0
   7437778.202 8   5795672.525 7  21753190.223 0  21753193.512 0
  -9454156.259 7  -7210938.175 7  20591267.944 0  20591271.461 0
 -16766082.193 7 -12474385.037 7  20775129.765 0  20775133.163 0
 88  3  2  6 25 29.0800000  0  4  6  8 11  9
  -5604186.408 7  -4366898.323 6  20643443.550 0  20643447.187 0
   7524611.933 8   5863335.152 7  21769714.244 0  21769717.453 0
  -9449484.982 6  -7207298.199 7  20592156.046 0  20592160.540 0
 -16827021.232 7 -12521870.011 7  20763534.113 0  20763537.158 0
 88  3  2  6 25 59.0800000  0  4  6  8 11  9
  -5582684.462 7  -4350143.573 7  20647536.968 0  20647539.539 0
   7611721.989 7   5931213.122 8  21786290.236 0  21786294.864 0
  -9444323.086 6  -7203275.930 6  20593138.893 0  20593143.555 0
 -16887559.813 7 -12569042.925 7  20752014.759 0  20752016.458 0
 88  3  2  6 26 29.0800000  0  4  6  8 11  9
  -5560626.748 7  -4332955.757 7  20651733.785 0  20651736.451 0
   7699105.966 7   5999304.532 7  21802918.204 0  21802922.203 0
  -9438671.659 7  -7198872.212 7  20594213.960 0  20594217.856 0
 -16947694.263 8 -12615900.939 7  20740570.471 0  20740573.052 0
 88  3  2  6 26 59.0800000  0  4  6  8 11  9
  -5538012.189 7  -4315334.033 7  20656037.466 0  20656040.341 0
   7786761.021 7   6067607.166 7  21819600.154 0  21819603.611 0
  -9432531.741 7  -7194087.855 6  20595382.357 0  20595386.888 0
 -17007422.192 7 -12662442.183 7  20729205.223 0  20729207.450 0
 88  3  2  6 27 29.0800000  0  4  6  8 11  9
  -5514840.480 7  -4297278.163 6  20660446.696 0  20660449.920 0
   7874683.427 7   6136118.138 7  21836331.069 0  21836333.760 0
  -9425905.284 7  -7188924.374 7  20596643.518 0  20596648.220 0
 -17066740.531 7 -12708664.256 7  20717917.447 0  20717919.851 0
 88  3  2  6 27 59.0800000  0  4  6  8 11  9
  -5491111.189 7  -4278787.829 7  20664961.262 0  20664964.721 0
   7962869.843 8   6204834.819 7  21853111.822 0  21853115.090 0
  -9418794.067 6  -7183383.153 7  20597996.171 0  20598001.887 0
 -17125646.666 7 -12754565.140 6  20706707.918 0  20706709.976 0
 88  3  2  6 28 29.0800000  0  4  6  8 11  9
  -5466823.694 8  -4259862.504 7  20669583.418 0  20669586.407 0
   8051317.273 8   6273754.891 7  21869942.898 0  21869946.385 0
  -9411199.468 7  -7177465.265 7  20599442.012 0  20599445.398 0
 -17184137.784 7 -12800142.628 7  20695576.858 0  20695578.723 0
 88  3  2  6 28 59.0800000  0  4  6  8 11  9
  -5441976.866 7  -4240501.354 7  20674311.610 0  20674315.458 0
   8140023.168 7   6342876.361 8  21886822.646 0  21886825.645 0
  -9403121.932 7  -7171171.087 7  20600979.134 0  20600982.861 0
 -17242210.479 8 -12845394.085 7  20684526.300 0  20684529.271 0
 88  3  2  6 29 29.0800000  0  4  6  8 11  9
  -5416570.314 7  -4220704.045 7  20679146.502 0  20679149.983 0
   8228984.546 7   6412196.912 8  21903751.614 0  21903754.761 0
  -9394563.183 7  -7164501.933 7  20602607.377 0  20602611.919 0
 -17299862.167 8 -12890317.479 7  20673555.445 0  20673558.632 0
 88  3  2  6 29 59.0800000  0  4  6  8 11  9
  -5390603.440 7  -4200470.124 7  20684087.388 0  20684090.158 0
   8318197.590 7   6481713.565 7  21920727.790 0  21920732.579 0
  -9385524.920 7  -7157459.124 6  20604327.663 0  20604333.032 0
 -17357089.856 7 -12934910.480 6  20662665.092 0  20662668.625 0
 88  3  2  6 30 29.0800000  0  4  6  8 11  9
  -5364075.473 7  -4179798.993 8  20689136.966 0  20689140.041 0
   8407659.805 7   6551424.373 7  21937752.727 0  21937756.111 0
  -9376008.430 7  -7150043.669 7  20606138.955 0  20606142.524 0
 -17413890.529 7 -12979170.746 7  20651856.302 0  20651858.673 0
 88  3  2  6 30 59.0800000  0  4  6  8 11  9
  -5336986.815 7  -4158690.957 7  20694290.751 0  20694293.178 0
   8497367.498 7   6621326.467 7  21954823.580 0  21954827.438 0
  -9366016.235 7  -7142257.533 7  20608039.988 0  20608042.907 0
 -17470262.029 8 -13023096.585 7  20641129.310 0  20641132.513 0
 88  3  2  6 31 29.0800000  0  4  6  8 11  9
  -5309336.221 7  -4137145.049 7  20699552.633 0  20699555.416 0
   8587317.996 7   6691417.758 7  21971940.166 0  21971943.849 0
  -9355548.811 7  -7134101.086 7  20610032.400 0  20610035.949 0
 -17526201.108 8 -13066685.461 7  20630484.347 0  20630487.408 0
 88  3  2  6 31 59.0800000  0  4  6  8 11  9
  -5281124.026 8  -4115161.535 7  20704921.602 0  20704924.285 0
   8677507.631 8   6761695.376 7  21989102.585 0  21989106.525 0
  -9344608.334 7  -7125576.030 6  20612114.255 0  20612118.738 0
 -17581705.350 7 -13109935.538 7  20619922.663 0  20619924.807 0
 88  3  2  6 32 29.0800000  0  4  6  8 11  9
  -5252349.759 7  -4092740.036 7  20710396.804 0  20710399.929 0
   8767933.515 7   6832157.083 8  22006310.279 0  22006313.430 0
  -9333196.411 7  -7116683.609 7  20614284.073 0  20614289.494 0
 -17636772.160 7 -13152844.739 7  20609442.685 0  20609445.783 0
 88  3  2  6 32 59.0800000  0  4  6  8 11  9
  -5223012.206 7  -4069879.613 7  20715979.256 0  20715981.521 0
   8858592.945 8   6902800.809 7  22023562.414 0  22023565.134 0
  -9321313.906 7  -7107424.509 6  20616546.368 0  20616549.470 0
 -17691397.939 7 -13195410.280 7  20599049.016 0  20599050.687 0
 88  3  2  6 33 29.0800000  0  4  6  8 11  9
  -5193111.109 7  -4046580.058 7  20721669.707 0  20721672.834 0
   8949482.861 8   6973624.114 7  22040858.335 0  22040861.878 0
  -9308962.504 7  -7097800.033 7  20618897.168 0  20618901.066 0
 -17745579.663 7 -13237629.794 7  20588736.856 0  20588741.218 0
 88  3  2  6 33 59.0800000  0  4  6  8 11  9
  -5162647.223 7  -4022841.978 7  20727466.621 0  20727470.065 0
   9040598.891 7   7044623.612 8  22058197.301 0  22058200.561 0
  -9296145.157 7  -7087812.475 6  20621335.265 0  20621340.340 0
 -17799316.313 7 -13279502.510 6  20578512.330 0  20578514.428 0
 88  3  2  6 34 29.0800000  0  4  6  8 11  9
  -5131621.645 7  -3998666.200 7  20733370.697 0  20733372.923 0
   9131937.026 7   7115796.173 7  22075578.412 0  22075581.323 0
  -9282864.488 7  -7077463.883 7  20623863.493 0  20623867.014 0
 -17852605.972 7 -13321026.930 7  20568371.942 0  20568374.408 0
 88  3  2  6 34 59.0800000  0  4  6  8 11  9
  -5100031.973 7  -3974050.893 7  20739381.846 0  20739385.392 0
   9223496.367 8   7187141.106 8  22093000.629 0  22093004.901 0
  -9269120.319 7  -7066754.129 6  20626477.949 0  20626482.702 0
 -17905444.027 7 -13362199.421 6  20558316.523 0  20558319.650 0
 88  3  2  6 35 29.0800000  0  4  6  8 11  9
  -5067878.272 7  -3948996.065 7  20745501.652 0  20745503.291 0
   9315273.257 8   7258655.558 7  22110465.315 0  22110469.156 0
  -9254914.326 7  -7055684.521 8  20629181.865 0  20629185.886 0
 -17957827.710 7 -13403017.875 7  20548348.160 0  20548350.911 0
 88  3  2  6 35 59.0800000  0  4  6  8 11  9
  -5035160.078 7  -3923501.379 7  20751726.627 0  20751729.196 0
   9407264.912 7   7330337.376 7  22127971.095 0  22127974.554 0
  -9240248.170 7  -7044256.334 6  20631972.690 0  20631977.226 0
 -18009754.234 8 -13443480.105 6  20538467.090 0  20538469.833 0
 88  3  2  6 36 29.0800000  0  4  6  8 11  9
  -5001877.690 8  -3897567.061 7  20758060.393 0  20758063.507 0
   9499467.814 7   7402183.798 7  22145516.985 0  22145520.011 0
  -9225123.915 7  -7032471.203 6  20634849.547 0  20634853.929 0
 -18061221.434 7 -13483584.427 6  20528672.756 0  20528675.547 0
 88  3  2  6 36 59.0800000  0  4  6  8 11  9
  -4968030.419 8  -3871192.580 7  20764501.408 0  20764504.568 0
   9591879.692 8   7474193.038 7  22163102.147 0  22163105.751 0
  -9209543.170 7  -7020330.350 7  20637816.283 0  20637819.443 0
 -18112226.184 7 -13523328.374 7  20518967.196 0  20518970.356 0
 88  3  2  6 37 29.0800000  0  4  6  8 11  9
  -4933617.932 7  -3844377.664 7  20771048.310 0  20771052.195 0
   9684497.321 7   7546362.608 8  22180726.681 0  22180730.176 0
  -9193507.361 7  -7007834.930 6  20640867.192 0  20640870.953 0
 -18162765.845 7 -13562709.914 7  20509350.058 0  20509352.926 0
 88  3  2  6 37 59.0800000  0  4  6  8 11  9
  -4898640.769 7  -3817122.732 6  20777705.406 0  20777709.147 0
   9777317.371 7   7618689.911 8  22198389.748 0  22198392.772 0
  -9177018.414 7  -6994986.382 7  20644005.203 0  20644010.584 0
 -18212837.838 7 -13601727.063 6  20499821.784 0  20499824.138 0
 88  3  2  6 38 29.0800000  0  4  6  8 11  9
  -4863098.316 7  -3789427.337 7  20784469.207 0  20784472.765 0
   9870337.052 7   7691172.779 7  22216091.191 0  22216094.403 0
  -9160077.725 7  -6981785.839 7  20647228.864 0  20647232.021 0
 -18262439.256 7 -13640377.507 6  20490382.129 0  20490385.686 0
 88  3  2  6 38 59.0800000  0  4  6  8 11  9
  -4826990.619 7  -3761291.481 7  20791339.758 0  20791343.184 0
   9963553.091 8   7763808.655 8  22233829.775 0  22233832.952 0
  -9142687.262 7  -6968234.829 6  20650537.292 0  20650541.005 0
 -18311567.432 7 -13678659.203 7  20481033.583 0  20481036.403 0
 88  3  2  6 39 29.0800000  0  4  6  8 11  9
  -4790317.355 7  -3732714.914 7  20798319.054 0  20798322.469 0
  10056962.835 7   7836595.456 7  22251605.587 0  22251608.253 0
  -9124848.762 7  -6954334.697 7  20653932.189 0  20653936.754 0
 -18360219.508 7 -13716569.897 7  20471775.786 0  20471779.612 0
 88  3  2  6 39 59.0800000  0  4  6  8 11  9
  -4753078.452 6  -3703697.602 8  20805403.869 0  20805408.499 0
  10150563.417 8   7909530.986 7  22269417.248 0  22269420.196 0
  -9106563.584 7  -6940086.494 7  20657411.726 0  20657416.437 0
 -18408392.788 7 -13754107.522 7  20462608.328 0  20462611.951 0
 88  3  2  6 40 29.0800000  0  4  6  8 11  9
  -4715273.893 7  -3674239.530 7  20812599.321 0  20812602.590 0
  10244352.155 8   7982613.102 8  22287264.263 0  22287267.698 0
  -9087833.699 7  -6925491.784 6  20660976.506 0  20660980.948 0
 -18456084.609 7 -13791269.993 7  20453532.133 0  20453537.030 0
 88  3  2  6 40 59.0800000  0  4  6  8 11  9
  -4676903.762 7  -3644340.726 7  20819900.231 0  20819903.777 0
  10338325.640 7   8055839.194 8  22305146.624 0  22305149.492 0
  -9068661.022 7  -6910552.028 7  20664622.569 0  20664628.373 0
 -18503292.278 7 -13828055.188 7  20444550.413 0  20444552.713 0
 88  3  2  6 41 29.0800000  0  4  6  8 11  9
  -4637968.446 7  -3614001.540 7  20827309.406 0  20827312.992 0
  10432480.513 7   8129206.615 7  22323063.866 0  22323066.724 0
  -9049047.732 7  -6895268.945 6  20668356.804 0  20668361.175 0
 -18550013.520 7 -13864461.347 7  20435659.704 0  20435661.373 0
 88  3  2  6 41 59.0800000  0  4  6  8 11  9
  -4598467.587 7  -3583221.666 7  20834826.273 0  20834829.442 0
  10526814.346 7   8202713.479 8  22341014.015 0  22341018.102 0
  -9028995.149 7  -6879643.560 6  20672172.591 0  20672177.405 0
 -18596245.463 7 -13900486.236 7  20426860.774 0  20426864.729 0
 88  3  2  6 42 29.0800000  0  4  6  8 11  9
  -4558401.525 7  -3552001.376 7  20842450.430 0  20842453.784 0
  10621324.051 7   8276357.383 8  22358998.749 0  22359002.320 0
  -9008505.700 7  -6863677.746 7  20676071.233 0  20676076.454 0
 -18641985.444 7 -13936127.776 7  20418157.802 0  20418160.311 0
 88  3  2  6 42 59.0800000  0  4  6  8 11  9
  -4517769.792 7  -3520340.301 7  20850183.018 0  20850185.902 0
  10716007.423 7   8350136.639 8  22377017.027 0  22377019.794 0
  -8987580.412 7  -6847372.306 7  20680052.388 0  20680058.189 0
 -18687230.822 7 -13971383.916 7  20409548.203 0  20409550.095 0
 88  3  2  6 43 29.0800000  0  4  6  8 11  9
  -4476573.452 7  -3488239.273 6  20858022.041 0  20858026.146 0
  10810860.657 7   8424048.247 8  22395066.403 0  22395069.927 0
  -8966221.903 7  -6830729.320 6  20684117.315 0  20684122.993 0
 -18731979.332 7 -14006252.875 7  20401032.839 0  20401034.295 0
 88  3  2  6 43 59.0800000  0  4  6  8 11  9
  -4434811.974 8  -3455697.878 6  20865969.542 0  20865973.242 0
  10905881.181 7   8498090.211 7  22413148.430 0  22413150.707 0
  -8944431.664 7  -6813749.903 7  20688265.578 0  20688269.124 0
 -18776228.085 7 -14040732.424 7  20392611.782 0  20392614.151 0
 88  3  2  6 44 29.0800000  0  4  6  8 11  9
  -4392485.493 7  -3422716.219 7  20874023.428 0  20874026.858 0
  11001066.362 7   8572260.478 7  22431261.294 0  22431264.475 0
  -8922211.314 7  -6796435.343 7  20692492.445 0  20692496.881 0
 -18819974.423 7 -14074820.488 6  20384287.595 0  20384289.842 0
 88  3  2  6 44 59.0800000  0  4  6  8 11  9
  -4349594.239 7  -3389294.483 8  20882184.340 0  20882190.055 0
  11096413.101 7   8646556.647 7  22449406.214 0  22449408.378 0
  -8899562.564 7  -6778786.955 6  20696802.305 0  20696808.730 0
 -18863215.590 8 -14108514.906 6  20376059.148 0  20376060.013 0
 88  3  2  6 45 29.0800000  0  4  6  8 11  9
  -4306138.541 7  -3355432.912 7  20890454.869 0  20890458.087 0
  11191918.614 7   8720976.542 7  22467579.840 0  22467582.801 0
  -8876487.648 7  -6760806.503 7  20701193.836 0  20701198.481 0
 -18905949.580 7 -14141814.123 7  20367927.885 0  20367929.842 0
 88  3  2  6 45 59.0800000  0  4  6  8 11  9
  -4262118.446 7  -3321131.552 6  20898830.330 0  20898835.148 0
  11287580.266 8   8795518.076 7  22485783.417 0  22485786.169 0
  -8852988.657 7  -6742495.595 7  20705665.842 0  20705669.918 0
 -18948173.138 7 -14174715.598 6  20359893.271 0  20359894.942 0
 88  3  2  6 46 29.0800000  0  4  6  8 11  9
  -4217534.607 7  -3286390.933 7  20907316.428 0  20907318.724 0
  11383394.794 7   8870178.739 8  22504016.340 0  22504019.979 0
  -8829067.535 7  -6723855.744 7  20710217.968 0  20710222.153 0
 -18989884.476 7 -14207217.957 6  20351955.145 0  20351956.238 0
 88  3  2  6 46 59.0800000  0  4  6  8 11  9
  -4172387.246 7  -3251211.168 7  20915906.541 0  20915910.253 0
  11479359.454 8   8944956.406 7  22522276.477 0  22522281.084 0
  -8804726.016 7  -6704888.323 6  20714850.306 0  20714854.553 0
 -19031080.763 7 -14239318.966 7  20344115.041 0  20344117.474 0
 88  3  2  6 47 29.0800000  0  4  6  8 11  9
  -4126676.474 7  -3215592.401 7  20924605.390 0  20924608.729 0
  11575471.148 8   9019848.646 8  22540567.822 0  22540569.684 0
  -8779965.845 7  -6685594.675 6  20719561.293 0  20719565.760 0
 -19071759.620 7 -14271016.787 6  20336373.682 0  20336377.466 0
 88  3  2  6 47 59.0800000  0  4  6  8 11  9
  -4080403.103 8  -3179535.238 7  20933410.782 0  20933413.808 0
  11671727.137 7   9094853.299 8  22558884.082 0  22558887.097 0
  -8754789.651 7  -6665976.862 7  20724352.165 0  20724356.738 0
 -19111918.803 7 -14302309.650 7  20328731.729 0  20328736.258 0
 88  3  2  6 48 29.0800000  0  4  6  8 11  9
  -4033567.501 7  -3143039.988 7  20942324.040 0  20942327.552 0
  11768124.584 7   9169968.163 8  22577227.923 0  22577231.510 0
  -8729199.390 8  -6646036.393 7  20729222.882 0  20729227.433 0
 -19151555.701 7 -14333195.549 6  20321189.396 0  20321194.109 0
 88  3  2  6 48 59.0800000  0  4  6  8 11  9
  -3986169.706 7  -3106106.640 6  20951342.782 0  20951345.013 0
  11864660.843 7   9245191.218 7  22595598.386 0  22595601.941 0
  -8703196.622 7  -6625774.473 7  20734170.554 0  20734175.231 0
 -19190667.554 7 -14363672.313 6  20313747.468 0  20313750.217 0
 88  3  2  6 49 29.0800000  0  4  6  8 11  9
  -3938210.163 8  -3068735.585 7  20960469.606 0  20960473.906 0
  11961333.704 7   9320520.721 7  22613995.164 0  22613997.253 0
  -8676783.285 7  -6605192.653 7  20739196.830 0  20739201.406 0
 -19229252.179 7 -14393738.245 7  20306405.137 0  20306406.507 0
 88  3  2  6 49 59.0800000  0  4  6  8 11  9
  -3889689.150 7  -3030927.015 7  20969702.671 0  20969706.514 0
  12058140.010 7   9395954.188 8  22632416.354 0  22632418.884 0
  -8649960.889 7  -6584292.081 7  20744301.193 0  20744305.200 0
 -19267306.839 7 -14423391.241 7  20299162.814 0  20299165.620 0
 88  3  2  6 50 29.0800000  0  4  6  8 11  9
  -3840607.200 8  -2992681.347 7  20979043.227 0  20979045.498 0
  12155076.774 8   9471489.331 7  22650862.324 0  22650865.999 0
  -8622732.000 7  -6563074.750 6  20749482.334 0  20749486.893 0
 -19304829.428 7 -14452629.616 7  20292022.086 0  20292026.063 0
 88  3  2  6 50 59.0800000  0  4  6  8 11  9
  -3790964.864 7  -2953999.008 7  20988489.030 0  20988492.689 0
  12252141.466 8   9547124.167 7  22669333.615 0  22669337.055 0
  -8595098.405 7  -6541542.078 7  20754741.168 0  20754745.974 0
 -19341817.188 6 -14481451.256 6  20284983.363 0  20284986.622 0
 88  3  2  6 51 29.0800000  0  4  6  8 11  9
  -3740763.236 7  -2914880.871 7  20998042.622 0  20998045.621 0
  12349331.023 7   9622856.297 8  22687828.262 0  22687831.756 0
  -8567062.640 8  -6519696.016 7  20760075.979 0  20760080.089 0
 -19378268.505 7 -14509854.880 7  20278045.858 0  20278051.099 0
 88  3  2  6 51 59.0800000  0  4  6  8 11  9
  -3690002.662 7  -2875327.184 7  21007702.618 0  21007704.785 0
  12446642.428 7   9698683.361 7  22706345.109 0  22706349.313 0
  -8538626.675 7  -6497538.113 7  20765486.433 0  20765489.833 0
 -19414180.663 7 -14537838.377 6  20271213.334 0  20271216.638 0
 88  3  2  6 52 29.0800000  0  4  6  8 11  9
  -3638683.586 8  -2835338.296 6  21017467.001 0  21017469.989 0
  12544073.229 7   9774603.454 7  22724885.839 0  22724889.746 0
  -8509792.396 7  -6475069.847 7  20770973.699 0  20770977.915 0
 -19449551.449 7 -14565400.036 6  20264483.445 0  20264485.620 0
 88  3  2  6 52 59.0800000  0  4  6  8 11  9
  -3586806.655 7  -2794914.738 7  21027339.834 0  21027342.872 0
  12641620.545 7   9850614.356 8  22743448.363 0  22743451.725 0
  -8480561.731 7  -6452292.688 6  20776536.386 0  20776541.850 0
 -19484378.796 6 -14592538.223 6  20257855.304 0  20257858.456 0
 88  3  2  6 53 29.0800000  0  4  6  8 11  9
  -3534372.416 7  -2754056.903 7  21037317.351 0  21037319.903 0
  12739281.892 7   9926714.127 7  22762032.988 0  22762036.555 0
  -8450937.206 8  -6429208.656 7  20782174.048 0  20782178.810 0
 -19518659.707 7 -14619250.627 7  20251331.414 0  20251335.963 0
 88  3  2  6 53 59.0800000  0  4  6  8 11  9
  -3481381.342 8  -2712765.157 8  21047401.112 0  21047402.995 0
  12837054.942 7  10002900.900 8  22780637.568 0  22780642.098 0
  -8420920.173 7  -6405818.740 7  20787885.235 0  20787890.255 0
 -19552392.037 7 -14645535.541 7  20244914.163 0  20244914.824 0
 88  3  2  6 54 29.0800000  0  4  6  8 11  9
  -3427834.259 7  -2671040.170 7  21057591.291 0  21057594.122 0
  12934936.655 7  10079172.339 8  22799264.099 0  22799267.938 0
  -8390513.035 7  -6382124.870 7  20793671.066 0  20793676.346 0
 -19585573.580 6 -14671391.280 6  20238598.876 0  20238600.882 0
 88  3  2  6 54 59.0800000  0  4  6  8 11  9
  -3373732.820 7  -2628883.219 7  21067885.374 0  21067888.956 0
  13032923.199 7  10155525.481 7  22817911.299 0  22817914.924 0
  -8359718.803 7  -6358129.354 7  20799532.134 0  20799535.986 0
 -19618203.385 7 -14696817.114 7  20232388.844 0  20232393.026 0
 88  3  2  6 55 29.0800000  0  4  6  8 11  9
  -3319077.755 7  -2586294.866 7  21078286.084 0  21078289.398 0
  13131012.361 7  10231958.598 7  22836576.832 0  22836580.167 0
  -8328539.126 8  -6333833.499 7  20805465.400 0  20805469.279 0
 -19650278.865 7 -14721811.003 7  20226286.088 0  20226289.449 0
 88  3  2  6 55 59.0800000  0  4  6  8 11  9
  -3263867.155 8  -2543273.615 7  21088793.109 0  21088795.411 0
  13229203.815 7  10308471.412 7  22855261.112 0  22855264.910 0
  -8296973.987 7  -6309237.278 7  20811471.071 0  20811476.666 0
 -19681795.191 7 -14746369.190 6  20220288.019 0  20220291.479 0
 88  3  2  6 56 29.0800000  0  4  6  8 11  9
  -3208103.448 7  -2499821.405 7  21099403.166 0  21099407.968 0
  13327493.302 8  10385060.611 8  22873965.573 0  22873969.450 0
  -8265026.892 7  -6284343.436 7  20817550.080 0  20817555.257 0
 -19712751.742 6 -14770491.162 8  20214397.911 0  20214399.498 0
 88  3  2  6 56 59.0800000  0  4  6  8 11  9
  -3151787.140 7  -2455938.585 7  21110120.984 0  21110124.270 0
  13425878.765 7  10461724.606 8  22892688.120 0  22892691.775 0
  -8232699.908 8  -6259153.578 7  20823702.248 0  20823707.025 0
 -19743146.431 7 -14794175.330 6  20208613.278 0  20208616.921 0
 88  3  2  6 57 29.0800000  0  4  6  8 11  9
  -3094919.309 7  -2411625.995 7  21120942.113 0  21120945.142 0
  13524357.169 8  10538461.040 7  22911428.651 0  22911431.380 0
  -8199995.089 7  -6233669.301 7  20829926.529 0  20829930.539 0
 -19772976.781 7 -14817419.765 6  20202936.381 0  20202940.643 0
 88  3  2  6 57 59.0800000  0  4  6  8 11  9
  -3037501.093 7  -2366884.551 7  21131867.943 0  21131872.815 0
  13622925.473 8  10615267.530 7  22930185.749 0  22930188.645 0
  -8166915.003 8  -6207892.614 7  20836220.725 0  20836226.721 0
 -19802241.130 7 -14840223.172 6  20197368.209 0  20197371.486 0
 88  3  2  6 58 29.0800000  0  4  6  8 11  9
  -2979533.490 8  -2321715.003 7  21142900.404 0  21142903.431 0
  13721580.821 8  10692141.830 7  22948958.171 0  22948961.185 0
  -8133461.904 8  -6181825.257 7  20842587.165 0  20842590.952 0
 -19830937.712 7 -14862584.135 6  20191907.458 0  20191910.188 0
 88  3  2  6 58 59.0800000  0  4  6  8 11  9
  -2921017.076 8  -2276117.807 7  21154035.078 0  21154038.276 0
  13820321.369 7  10769082.523 7  22967748.159 0  22967750.910 0
  -8099637.545 7  -6155468.619 7  20849023.674 0  20849027.080 0
 -19859063.928 7 -14884500.665 7  20186554.604 0  20186557.384 0
 88  3  2  6 59 29.0800000  0  4  6  8 11  9
  -2861952.974 8  -2230093.847 7  21165274.265 0  21165277.265 0
  13919144.224 6  10846087.334 7  22986552.813 0  22986556.667 0
  -8065444.303 7  -6128824.513 7  20855530.081 0  20855535.242 0
 -19886618.068 7 -14905971.428 7  20181311.765 0  20181315.247 0
 88  3  2  6 59 59.0800000  0  4  6  8 11  9
  -2802342.868 8  -2183644.424 7  21176619.054 0  21176621.193 0
  14018046.073 7  10923153.709 7  23005374.380 0  23005376.823 0
  -8030884.878 7  -6101895.098 7  20862107.599 0  20862111.271 0
 -19913598.543 6 -14926995.179 7  20176178.565 0  20176180.658 0
 88  3  2  7  0 29.0800000  0  4  6 13 11  9
  -2742187.105 7  -2136769.817 7  21188064.557 0  21188069.256 0
          .103 8          .209 7  21102442.806 0          .000 0
  -7995960.878 7  -6074681.595 7  20868752.870 0  20868756.375 0
 -19940002.805 6 -14947569.942 6  20171152.619 0  20171155.239 0
 88  3  2  7  0 59.0800000  0  4  6 13 11  9
  -2681486.373 7  -2089470.557 7  21199615.726 0  21199618.524 0
    -54875.444 8  54612339.035 7  21391826.528 0  21391832.445 0
  -7960674.300 7  -6047185.534 7  20875467.463 0  20875471.173 0
 -19965828.449 6 -14967693.809 6  20166238.214 0  20166241.268 0
 88  3  2  7  1 29.0800000  0  4  6 13 11  9
  -2620241.195 7  -2041747.048 7  21211270.888 0  21211274.821 0
   -109306.955 7  54569924.903 7  21381468.599 0  21381472.840 0
  -7925026.651 7  -6019408.145 7  20882251.303 0  20882254.874 0
 -19991073.302 6 -14987365.124 7  20161434.910 0  20161437.353 0
 88  3  2  7  1 59.0800000  0  4  6 13 11  9
  -2558452.954 7  -1993600.386 7  21223028.980 0  21223031.489 0
   -163293.956 8  54527857.140 7  21371195.725 0  21371199.781 0
  -7889020.675 7  -5991351.559 7  20889103.700 0  20889106.333 0
 -20015735.465 6 -15006582.390 7  20156741.488 0  20156744.625 0
 88  3  2  7  2 29.0800000  0  4  6 13 11  9
  -2496122.718 8  -1945031.380 7  21234889.704 0  21234892.868 0
   -216836.535 8  54486135.672 7  21361006.925 0  21361011.080 0
  -7852658.821 7  -5963017.639 7  20896023.208 0  20896026.282 0
 -20039813.078 6 -15025344.185 7  20152159.122 0  20152163.276 0
 88  3  2  7  2 59.0800000  0  4  6 13 11  9
  -2433251.583 7  -1896040.890 6  21246853.376 0  21246857.673 0
   -269934.926 8  54444760.340 7  21350902.942 0  21350907.765 0
  -7815942.882 7  -5934407.809 7  20903008.864 0  20903013.380 0
 -20063303.969 6 -15043648.774 6  20147689.380 0  20147691.223 0
 88  3  2  7  3 29.0800000  0  4  6 13 11  9
  -2369840.453 8  -1846629.641 7  21258920.395 0  21258924.703 0
   -322588.171 7  54403731.855 7  21340883.263 0  21340888.183 0
  -7778874.631 7  -5905523.463 7  20910062.448 0  20910068.189 0
 -20086206.377 6 -15061494.811 6  20143330.462 0  20143334.250 0
 88  3  2  7  3 59.0800000  0  4  6 13 11  9
  -2305890.694 8  -1796798.667 7  21271090.022 0  21271093.358 0
   -374796.823 8  54363049.824 7  21330947.421 0  21330952.735 0
  -7741456.426 7  -5876366.397 7  20917183.069 0  20917188.232 0
 -20108518.336 7 -15078880.754 6  20139085.560 0  20139089.496 0
 88  3  2  7  4 29.0800000  0  4  6 13 11  9
  -2241403.898 7  -1746549.234 7  21283361.388 0  21283364.526 0
   -426560.621 8  54322714.414 7  21321098.906 0  21321102.147 0
  -7703691.160 7  -5846938.928 7  20924370.015 0  20924373.321 0
 -20130238.678 7 -15095805.696 7  20134952.191 0  20134954.982 0
 88  3  2  7  4 59.0800000  0  4  6 13 11  9
  -2176381.197 8  -1695882.212 7  21295734.307 0  21295738.718 0
   -477879.197 7  54282725.928 6  21311331.647 0  21311337.099 0
  -7665581.042 7  -5817242.742 7  20931621.570 0  20931625.688 0
 -20151365.267 7 -15112267.993 6  20130931.072 0  20130935.459 0
 88  3  2  7  5 29.0800000  0  4  6 13 11  9
  -2110823.304 7  -1644798.162 7  21308209.953 0  21308212.818 0
   -528752.218 7  54243084.654 7  21301651.796 0  21301656.863 0
  -7627127.500 7  -5787278.936 7  20938939.423 0  20938944.096 0
 -20171895.836 7 -15128265.835 6  20127026.315 0  20127027.094 0
 88  3  2  7  5 59.0800000  0  4  6 13 11  9
  -2044731.832 7  -1593298.321 7  21320787.421 0  21320789.801 0
   -579180.218 8  54203790.125 7  21292055.355 0  21292059.827 0
  -7588333.463 7  -5757049.800 7  20946322.313 0  20946325.831 0
 -20191828.953 7 -15143798.153 6  20123231.502 0  20123234.586 0
 88  3  2  7  6 29.0800000  0  4  6 13 11  9
  -1978107.764 7  -1541383.480 7  21333464.523 0  21333468.002 0
   -629162.892 8  54164842.615 8  21282543.515 0  21282547.585 0
  -7549200.510 8  -5726556.595 7  20953768.548 0  20953772.867 0
 -20211162.719 6 -15158863.416 7  20119552.140 0  20119556.250 0
 88  3  2  7  6 59.0800000  0  4  6 13 11  9
  -1910952.112 8  -1489054.413 7  21346243.909 0  21346247.232 0
   -678699.763 8  54126242.485 7  21273118.376 0  21273121.916 0
  -7509730.990 7  -5695801.117 7  20961279.769 0  20961282.500 0
 -20229895.135 7 -15173460.126 6  20115987.573 0  20115991.522 0
 88  3  2  7  7 29.0800000  0  4  6 13 11  9
  -1843266.514 7  -1436312.415 7  21359124.288 0  21359128.340 0
   -727790.953 8  54087989.631 7  21263775.940 0  21263780.243 0
  -7469926.763 7  -5664784.836 7  20968853.957 0  20968858.370 0
 -20248024.420 7 -15187586.843 6  20112538.058 0  20112540.074 0
 88  3  2  7  7 59.0800000  0  4  6 13 11  9
  -1775051.989 7  -1383158.241 7  21372104.805 0  21372108.642 0
   -776436.938 8  54050083.699 7  21254517.932 0  21254523.409 0
  -7429790.498 7  -5633509.818 7  20976491.551 0  20976496.027 0
 -20265549.205 7 -15201242.532 7  20109203.383 0  20109207.224 0
 88  3  2  7  8 29.0800000  0  4  6 13 11  9
  -1706310.734 7  -1329593.651 7  21385185.985 0  21385190.280 0
   -824637.803 8  54012524.609 7  21245347.312 0  21245350.228 0
  -7389324.925 8  -5601978.198 7  20984191.642 0  20984196.301 0
 -20282468.061 6 -15214426.051 6  20105983.772 0  20105986.749 0
 88  3  2  7  8 59.0800000  0  4  6 13 11  9
  -1637043.774 8  -1275619.410 7  21398366.787 0  21398370.996 0
   -872393.367 7  53975312.505 7  21236257.463 0  21236262.419 0
  -7348531.975 8  -5570191.474 7  20991954.934 0  20991957.908 0
 -20298779.058 6 -15227135.943 7  20102878.551 0  20102882.518 0
 88  3  2  7  9 29.0800000  0  4  6 13 11  9
  -1567252.270 7  -1221236.439 6  21411648.625 0  21411650.818 0
   -919704.035 8  53938447.080 7  21227254.796 0  21227260.159 0
  -7307413.622 8  -5538151.202 8  20999778.554 0  20999782.801 0
 -20314480.865 6 -15239371.111 6  20099893.454 0  20099894.470 0
 88  3  2  7  9 59.0800000  0  4  6 13 11  9
  -1496937.552 7  -1166445.761 7  21425028.838 0  21425031.946 0
   -966569.146 8  53901928.828 7  21218337.347 0  21218342.031 0
  -7265971.892 7  -5505858.941 7  21007665.397 0  21007669.175 0
 -20329571.166 6 -15251129.783 7  20097020.226 0  20097022.813 0
 88  3  2  7 10 29.0800000  0  4  6 13 11  9
  -1426101.254 8  -1111248.657 7  21438508.029 0  21438511.780 0
  -1012988.934 8  53865757.605 7  21209503.624 0  21209508.883 0
  -7224209.517 8  -5473316.828 7  21015612.041 0  21015616.517 0
 -20344048.629 7 -15262410.929 6  20094264.543 0  20094267.854 0
 88  3  2  7 10 59.0800000  0  4  6 13 11  9
  -1354744.317 7  -1055645.866 7  21452086.356 0  21452090.291 0
  -1058963.641 7  53829933.194 7  21200756.184 0  21200759.133 0
  -7182128.642 8  -5440526.529 7  21023620.558 0  21023623.835 0
 -20357911.909 7 -15273213.501 7  20091628.849 0  20091630.216 0
 88  3  2  7 11 29.0800000  0  4  6 13 11  9
  -1282868.948 7   -999639.097 7  21465764.627 0  21465768.227 0
  -1104493.412 8  53794455.469 7  21192090.478 0  21192095.047 0
  -7139731.236 7  -5407489.589 7  21031687.451 0  21031691.464 0
 -20371159.200 7 -15283536.082 6  20089105.975 0  20089109.223 0
 88  3  2  7 11 59.0800000  0  4  6 13 11  9
  -1210476.096 8   -943229.104 7  21479541.195 0  21479544.345 0
  -1149578.210 7  53759324.504 7  21183511.474 0  21183516.397 0
  -7097019.328 7  -5374207.575 7  21039815.421 0  21039818.561 0
 -20383789.117 7 -15293377.579 6  20086702.203 0  20086707.182 0
 88  3  2  7 12 29.0800000  0  4  6 13 11  9
  -1137567.489 8   -886417.227 7  21493414.101 0  21493418.685 0
  -1194218.071 8  53724540.205 6  21175017.119 0  21175021.029 0
  -7053995.015 7  -5340682.129 7  21048002.220 0  21048005.872 0
 -20395800.054 7 -15302736.749 6  20084417.433 0  20084420.532 0
 88  3  2  7 12 59.0800000  0  4  6 13 11  9
  -1064144.515 7   -829204.527 7  21507386.917 0  21507388.437 0
  -1238413.313 7  53690102.401 7  21166606.161 0  21166610.219 0
  -7010660.927 7  -5306915.313 6  21056250.255 0  21056253.295 0
 -20407190.503 6 -15311612.422 7  20082250.473 0  20082253.783 0
 88  3  2  7 13 29.0800000  0  4  6 13 11  9
   -990208.599 8   -771592.136 7  21521456.634 0  21521459.443 0
  -1282163.941 7  53656011.022 7  21158282.317 0  21158285.691 0
  -6967019.143 8  -5272908.721 7  21064553.737 0  21064557.863 0
 -20417958.974 6 -15320003.444 6  20080201.501 0  20080202.904 0
 88  3  2  7 13 59.0800000  0  4  6 13 11  9
   -915761.703 7   -713581.580 6  21535623.324 0  21535626.947 0
  -1325470.544 8  53622265.650 7  21150040.251 0  21150044.324 0
  -6923072.055 7  -5238664.247 7  21072916.698 0  21072921.014 0
 -20428104.177 7 -15327908.816 6  20078270.938 0  20078273.218 0
 88  3  2  7 14 29.0800000  0  4  6 13 11  9
   -840805.240 8   -655173.971 7  21549886.731 0  21549890.182 0
  -1368332.771 7  53588866.546 7  21141884.345 0  21141888.360 0
  -6878821.699 7  -5204183.437 7  21081337.148 0  21081341.250 0
 -20437624.772 7 -15335327.471 6  20076458.414 0  20076461.090 0
 88  3  2  7 14 59.0800000  0  4  6 13 11  9
   -765340.919 7   -596370.596 7  21564247.838 0  21564249.658 0
  -1410751.524 8  53555812.993 6  21133811.535 0  21133816.166 0
  -6834270.859 7  -5169468.489 7  21089814.623 0  21089818.078 0
 -20446519.475 6 -15342258.414 6  20074765.191 0  20074768.919 0
 88  3  2  7 15 29.0800000  0  4  6 13 11  9
   -689370.453 7   -537172.845 7  21578704.133 0  21578706.727 0
  -1452726.676 8  53523105.110 7  21125824.106 0  21125828.578 0
  -6789421.543 7  -5134520.978 7  21098349.364 0  21098353.749 0
 -20454787.036 7 -15348700.677 6  20073192.773 0  20073195.590 0
 88  3  2  7 15 59.0800000  0  4  6 13 11  9
   -612895.808 7   -477582.217 7  21593256.198 0  21593260.638 0
  -1494258.878 8  53490742.376 7  21117921.415 0  21117925.239 0
  -6744276.277 7  -5099342.850 7  21106940.322 0  21106944.407 0
 -20462426.332 6 -15354653.370 6  20071738.685 0  20071742.635 0
 88  3  2  7 16 29.0800000  0  4  6 13 11  9
   -535918.115 8   -417599.621 7  21607905.308 0  21607908.304 0
  -1535348.379 7  53458724.616 7  21110101.972 0  21110106.601 0
  -6698836.697 7  -5063935.382 7  21115586.944 0  21115591.071 0
 -20469435.550 6 -15360115.120 6  20070405.451 0  20070408.359 0
 88  3  2  7 16 59.0800000  0  4  6 13 11  9
   -458439.498 7   -357226.672 7  21622648.775 0  21622652.382 0
  -1575995.424 8  53427051.624 7  21102367.105 0  21102372.157 0
  -6653105.588 7  -5028300.739 6  21124289.142 0  21124293.458 0
 -20475813.895 6 -15365085.260 6  20069192.175 0  20069194.572 0
 88  3  2  7 17 29.0800000  0  4  6 13 11  9
   -380461.241 7   -296464.415 7  21637487.082 0  21637490.846 0
  -1616199.964 7  53395723.426 7  21094716.191 0  21094720.033 0
  -6607084.747 7  -4992440.344 6  21133046.665 0  21133051.305 0
 -20481559.760 6 -15369562.567 6  20068096.308 0  20068100.758 0
 88  3  2  7 17 59.0800000  0  4  6 13 11  9
   -301985.475 8   -235314.468 7  21652420.912 0  21652423.695 0
  -1655962.841 7  53364739.384 6  21087150.122 0  21087153.806 0
  -6560776.638 8  -4956356.113 7  21141858.844 0  21141863.249 0
 -20486672.045 6 -15373546.174 6  20067125.718 0  20067128.864 0
 88  3  2  7 18 29.0800000  0  4  6 13 11  9
   -223013.642 8   -173777.994 7  21667448.575 0  21667452.440 0
  -1695284.376 8  53334099.263 6  21079666.724 0  21079671.224 0
  -6514183.282 8  -4920049.591 7  21150725.741 0  21150729.525 0
 -20491149.518 6 -15377035.109 6  20066272.392 0  20066275.986 0
 88  3  2  7 18 59.0800000  0  4  6 13 11  9
   -143547.376 8   -111856.247 6  21682570.374 0  21682572.850 0
  -1734164.400 8  53303803.145 7  21072268.568 0  21072273.760 0
  -6467306.680 7  -4883522.376 6  21159645.737 0  21159649.580 0
 -20494990.753 7 -15380028.295 6  20065541.716 0  20065544.737 0
 88  3  2  7 19 29.0800000  0  4  6 13 11  9
    -63589.025 7    -49551.036 6  21697786.443 0  21697789.621 0
  -1772604.489 7  53273849.855 7  21064953.283 0  21064957.587 0
  -6420149.348 7  -4846776.396 7  21168619.128 0  21168624.031 0
 -20498195.281 7 -15382525.335 6  20064933.075 0  20064934.562 0
 88  3  2  7 19 59.0800000  0  4  6 13 11  9
     16859.971 8     13136.472 7  21713094.976 0  21713098.172 0
  -1810603.817 7  53244240.025 7  21057723.022 0  21057726.614 0
  -6372713.468 7  -4809813.375 7  21177646.334 0  21177650.352 0
 -20500761.572 7 -15384525.037 6  20064444.389 0  20064447.989 0
 88  3  2  7 20 29.0800000  0  4  6 13 11  9
     97797.815 7     76204.900 7  21728496.822 0  21728500.676 0
  -1848162.934 7  53214973.189 6  21050575.605 0  21050579.783 0
  -6325001.322 7  -4772635.080 7  21186725.333 0  21186730.562 0
 -20502688.502 7 -15386026.571 6  20064076.176 0  20064079.267 0
 88  3  2  7 20 59.0800000  0  4  6 13 11  9
    179222.132 7    139652.409 7  21743991.391 0  21743994.442 0
  -1885282.837 7  53186048.610 6  21043511.331 0  21043516.018 0
  -6277015.599 8  -4735243.609 7  21195857.248 0  21195861.000 0
 -20503975.522 7 -15387029.437 6  20063833.400 0  20063835.703 0
 88  3  2  7 21 29.0800000  0  4  6 13 11  9
    261131.513 8    203477.889 7  21759578.954 0  21759581.621 0
  -1921963.706 7  53157466.138 7  21036531.343 0  21036535.488 0
  -6228758.118 8  -4697640.377 7  21205040.378 0  21205043.237 0
 -20504621.382 6 -15387532.714 7  20063708.593 0  20063712.229 0
 88  3  2  7 21 59.0800000  0  4  6 13 11  9
    343524.004 7    267679.814 7  21775256.451 0  21775260.662 0
  -1958205.901 8  53129225.474 7  21029635.562 0  21029638.145 0
  -6180231.163 7  -4659827.166 7  21214274.752 0  21214278.502 0
 -20504624.812 6 -15387535.408 7  20063707.604 0  20063712.084 0
 88  3  2  7 22 29.0800000  0  4  6 13 11  9
    426398.166 8    332257.071 7  21791027.546 0  21791031.085 0
  -1994009.345 8  53101326.705 7  21022821.895 0  21022825.705 0
  -6131436.369 8  -4621805.249 7  21223560.107 0  21223564.057 0
 -20503984.475 7 -15387036.441 6  20063832.520 0  20063833.902 0
 88  3  2  7 22 59.0800000  0  4  6 13 11  9
    509751.658 7    397207.833 7  21806889.747 0  21806893.143 0
  -2029375.189 7  53073768.928 8  21016091.386 0  21016096.590 0
  -6082376.317 7  -4583576.633 7  21232896.271 0  21232899.980 0
 -20502699.833 7 -15386035.426 6  20064074.719 0  20064078.249 0
 88  3  2  7 23 29.0800000  0  4  6 13 11  9
    593582.325 7    462530.421 7  21822841.795 0  21822846.263 0
  -2064304.235 8  53046551.521 7  21009444.777 0  21009447.861 0
  -6033053.498 7  -4545143.285 7  21242282.483 0  21242285.588 0
 -20500770.299 7 -15384531.895 6  20064442.556 0  20064446.777 0
 88  3  2  7 23 59.0800000  0  4  6 13 11  9
    677888.471 7    528223.505 6  21838884.519 0  21838888.133 0
  -2098796.660 7  53019674.296 7  21002881.078 0  21002884.467 0
  -5983469.807 7  -4506506.632 6  21251716.562 0  21251720.964 0
 -20498194.709 7 -15382524.948 6  20064934.156 0  20064935.373 0
 88  3  2  7 24 29.0800000  0  4  6 13 11  9
    762667.904 8    594285.393 8  21855017.593 0  21855021.318 0
  -2132852.369 8  52993137.431 7  20996400.162 0  20996405.738 0
  -5933626.919 8  -4467668.016 7  21261202.595 0  21261205.823 0
 -20494971.573 6 -15380013.422 6  20065544.744 0  20065549.085 0
 88  3  2  7 24 59.0800000  0  4  6 13 11  9
    847919.398 8    660715.115 7  21871239.240 0  21871243.652 0
  -2166473.155 8  52966939.437 7  20990003.626 0  20990006.486 0
  -5883527.991 8  -4428629.904 7  21270735.127 0  21270739.005 0
 -20491101.137 7 -15376997.513 6  20066282.072 0  20066285.213 0
 88  3  2  7 25 29.0800000  0  4  6 13 11  9
    933640.016 7    727510.390 7  21887552.597 0  21887555.819 0
  -2199658.938 8  52941080.394 6  20983687.262 0  20983690.952 0
  -5833175.224 7  -4389393.971 7  21280317.570 0  21280321.370 0
 -20486582.115 6 -15373476.198 6  20067142.750 0  20067144.573 0
 88  3  2  7 25 59.0800000  0  4  6 13 11  9
   1019827.588 7    794669.522 7  21903953.840 0  21903956.846 0
  -2232410.867 8  52915559.447 7  20977456.936 0  20977460.392 0
  -5782571.253 8  -4349962.292 7  21289946.414 0  21289950.114 0
 -20481414.440 6 -15369449.450 6  20068124.595 0  20068128.804 0
 88  3  2  7 26 29.0800000  0  4  6 13 11  9
   1106479.797 7    862190.709 7  21920442.881 0  21920446.588 0
  -2264729.906 8  52890375.805 7  20971304.951 0  20971309.038 0
  -5731718.153 7  -4310336.513 7  21299623.440 0  21299627.696 0
 -20475597.493 6 -15364916.756 6  20069232.880 0  20069236.582 0
 88  3  2  7 26 59.0800000  0  4  6 13 11  9
   1193594.813 7    930072.529 7  21937020.369 0  21937024.537 0
  -2296616.168 7  52865529.406 7  20965236.871 0  20965240.198 0
  -5680617.901 8  -4270518.131 7  21309347.893 0  21309351.447 0
 -20469130.229 6 -15359877.347 6  20070463.502 0  20070465.176 0
 88  3  2  7 27 29.0800000  0  4  6 13 11  9
   1281170.686 8    998313.454 7  21953685.230 0  21953689.286 0
  -2328070.138 8  52841019.836 7  20959252.311 0  20959255.964 0
  -5629272.444 8  -4230508.679 7  21319118.490 0  21319122.267 0
 -20462011.868 6 -15354330.578 6  20071819.101 0  20071821.008 0
 88  3  2  7 27 59.0800000  0  4  6 13 11  9
   1369205.143 7   1066911.736 7  21970437.906 0  21970441.256 0
  -2359093.101 8  52816846.133 7  20953347.238 0  20953352.153 0
  -5577684.653 7  -4190310.400 7  21328935.322 0  21328939.524 0
 -20454242.033 7 -15348276.163 6  20073297.793 0  20073299.076 0
 88  3  2  7 28 29.0800000  0  4  6 13 11  9
   1457696.075 7   1135865.682 7  21987276.590 0  21987280.889 0
  -2389685.050 7  52793008.278 7  20947527.250 0  20947529.783 0
  -5525856.441 7  -4149924.781 7  21338797.927 0  21338801.691 0
 -20445820.067 6 -15341713.614 6  20074898.467 0  20074901.694 0
 88  3  2  7 28 59.0800000  0  4  6 13 11  9
   1546641.674 7   1205173.928 7  22004203.170 0  22004206.865 0
  -2419846.951 7  52769505.515 7  20941786.091 0  20941791.877 0
  -5473789.646 8  -4109353.259 7  21348705.126 0  21348708.282 0
 -20436744.786 7 -15334641.964 6  20076626.528 0  20076628.554 0
 88  3  2  7 29 29.0800000  0  4  6 13 11  9
   1636039.344 8   1274834.444 7  22021214.740 0  22021218.863 0
  -2449579.668 8  52746337.240 7  20936128.182 0  20936133.265 0
  -5421486.961 7  -4068597.915 7  21358659.218 0  21358662.555 0
 -20427016.496 6 -15327061.483 6  20078476.585 0  20078481.733 0
 88  3  2  7 29 59.0800000  0  4  6 13 11  9
   1725887.171 8   1344845.735 7  22038312.411 0  22038316.319 0
  -2478883.739 7  52723502.918 7  20930553.430 0  20930556.307 0
  -5368949.976 7  -4027660.020 7  21368656.564 0  21368661.091 0
 -20416634.075 7 -15318971.335 6  20080452.342 0  20080456.485 0
 88  3  2  7 30 29.0800000  0  4  6 13 11  9
   1816183.307 8   1415206.344 7  22055494.493 0  22055498.573 0
  -2507759.715 7  52701002.163 7  20925057.873 0  20925062.586 0
  -5316180.897 8  -3986541.276 7  21378697.976 0  21378701.961 0
 -20405597.015 7 -15310371.018 6  20082553.133 0  20082554.573 0
 88  3  2  7 30 59.0800000  0  4  6 13 11  9
   1906925.405 7   1485914.456 7  22072762.611 0  22072766.225 0
  -2536208.302 8  52678834.499 7  20919644.181 0  20919647.517 0
  -5263182.002 7  -3945243.433 8  21388783.628 0  21388787.617 0
 -20393904.704 6 -15301260.136 6  20084778.034 0  20084781.946 0
 88  3  2  7 31 29.0800000  0  4  6 13 11  9
   1998111.089 8   1556968.234 7  22090114.243 0  22090117.406 0
  -2564230.653 7  52656998.912 7  20914311.480 0  20914315.138 0
  -5209955.446 7  -3903768.202 7  21398912.011 0  21398915.460 0
 -20381557.088 6 -15291638.634 6  20087129.688 0  20087131.391 0
 88  3  2  7 31 59.0800000  0  4  6 13 11  9
   2089738.123 8   1628365.913 7  22107550.353 0  22107554.564 0
  -2591827.298 7  52635495.062 7  20909060.082 0  20909064.310 0
  -5156503.573 8  -3862117.391 7  21409083.740 0  21409087.078 0
 -20368553.530 6 -15281506.000 6  20089601.897 0  20089605.898 0
 88  3  2  7 32 29.0800000  0  4  6 13 11  9
   2181803.618 8   1700105.252 7  22125070.058 0  22125074.598 0
  -2618999.400 7  52614322.006 7  20903890.060 0  20903893.766 0
  -5102829.053 8  -3820293.090 7  21419297.316 0  21419301.469 0
 -20354894.334 7 -15270862.480 6  20092201.674 0  20092203.277 0
 88  3  2  7 32 59.0800000  0  4  6 13 11  9
   2274306.080 8   1772185.078 7  22142672.414 0  22142675.562 0
  -2645747.259 8  52593479.559 7  20898799.021 0  20898803.725 0
  -5048933.258 7  -3778296.378 7  21429553.595 0  21429557.293 0
 -20340578.470 6 -15259707.262 6  20094926.788 0  20094927.643 0
 88  3  2  7 33 29.0800000  0  4  6 13 11  9
   2367242.768 8   1844603.262 6  22160357.762 0  22160362.301 0
  -2672072.197 8  52572966.647 7  20893790.614 0  20893794.945 0
  -4994818.861 8  -3736129.320 7  21439850.725 0  21439854.614 0
 -20325605.994 6 -15248040.421 6  20097774.850 0  20097778.861 0
 88  3  2  7 33 59.0800000  0  4  6 13 11  9
   2460611.506 7   1917358.119 7  22178125.888 0  22178129.402 0
  -2697975.364 8  52552782.390 7  20888860.822 0  20888864.909 0
  -4940488.030 7  -3693793.604 6  21450189.826 0  21450193.732 0
 -20309976.513 7 -15235861.596 6  20100748.909 0  20100751.736 0
 88  3  2  7 34 29.0800000  0  4  6 13 11  9
   2554410.056 8   1990447.893 7  22195975.467 0  22195978.432 0
  -2723457.342 8  52532926.344 7  20884011.325 0  20884015.581 0
  -4885942.662 8  -3651290.726 7  21460569.656 0  21460573.609 0
 -20293689.695 6 -15223170.580 6  20103849.570 0  20103851.741 0
 88  3  2  7 34 59.0800000  0  4  6 13 11  9
   2648635.979 8   2063870.672 8  22213905.794 0  22213909.365 0
  -2748518.850 8  52513397.894 7  20879243.203 0  20879246.982 0
  -4831185.110 7  -3608622.508 7  21470989.736 0  21470992.341 0
 -20276745.557 6 -15209967.366 6  20107072.250 0  20107077.574 0
 88  3  2  7 35 29.0800000  0  4  6 13 11  9
   2743286.325 7   2137624.181 7  22231916.620 0  22231920.100 0
  -2773161.459 8  52494195.873 7  20874551.887 0  20874557.198 0
  -4776218.137 8  -3565791.099 7  21481449.315 0  21481453.319 0
 -20259144.394 6 -15196252.177 5  20110422.898 0  20110425.470 0
 88  3  2  7 35 59.0800000  0  4  6 13 11  9
   2838358.928 8   2211706.722 7  22250008.777 0  22250011.584 0
  -2797385.984 7  52475319.659 6  20869944.269 0  20869946.889 0
  -4721043.713 8  -3522798.058 7  21491948.953 0  21491953.638 0
 -20240885.968 6 -15182024.835 6  20113897.023 0  20113900.254 0
 88  3  2  7 36 29.0800000  0  4  6 13 11  9
   2933851.741 8   2286116.705 7  22268180.481 0  22268183.550 0
  -2821192.749 7  52456768.940 6  20865412.165 0  20865416.221 0
  -4665663.639 8  -3479644.754 7  21502487.345 0  21502491.624 0
 -20221969.743 6 -15167284.942 7  20117496.795 0  20117499.096 0
 88  3  2  7 36 59.0800000  0  4  6 13 11  9
   3029762.449 7   2360852.303 7  22286430.689 0  22286434.536 0
  -2844582.924 8  52438542.872 7  20860962.967 0  20860967.024 0
  -4845663.639 8  -3436326.803 1          .000 0  21513069.172 0
 -20202395.536 6 -15152032.325 6  20121221.466 0  20121224.179 0
 88  3  2  7 37 29.0800000  0  4  6 13 11  9
   3126088.368 7   2435911.441 7  22304761.210 0  22304765.040 0
  -2867557.249 7  52420640.795 6  20856590.064 0  20856593.141 0
  -4685629.844 8  -3392857.874 7  21523680.612 0  21523684.068 0
 -20182163.338 6 -15136266.998 6  20125072.544 0  20125073.677 0
 88  3  2  7 37 59.0800000  0  4  6 13 11  9
   3222827.188 7   2511292.336 7  22323170.816 0  22323173.675 0
  -2890116.729 7  52403061.996 6  20852296.624 0  20852301.039 0
  -4629645.486 7  -3349233.696 7  21534333.735 0  21534337.555 0
 -20161273.314 7 -15119989.054 6  20129046.325 0  20129051.086 0
 88  3  2  7 38 29.0800000  0  4  6 13 11  9
   3319976.877 7   2586993.393 7  22341658.007 0  22341661.208 0
  -2912262.696 7  52385805.426 7  20848084.422 0  20848088.150 0
  -4573463.422 7  -3305455.471 7  21545023.831 0  21545028.596 0
 -20139724.894 6 -15103198.092 6  20133147.188 0  20133150.548 0
 88  3  2  7 38 59.0800000  0  4  6 13 11  9
   3417535.213 7   2663012.859 7  22360222.699 0  22360226.213 0
  -2933995.594 7  52368870.714 7  20843946.146 0  20843949.663 0
  -4517085.703 7  -3261524.788 7  21555753.258 0  21555756.864 0
 -20117517.990 6 -15085894.035 6  20137374.308 0  20137376.171 0
 88  3  2  7 39 29.0800000  0  4  6 13 11  9
   3515499.405 8   2739348.586 7  22378863.898 0  22378867.571 0
  -2955316.087 7  52352257.356 6  20839890.865 0  20839894.017 0
  -4460514.929 7  -3217443.658 7  21566517.385 0  21566521.878 0
 -20094652.790 6 -15068076.994 6  20141724.936 0  20141726.982 0
 88  3  2  7 39 59.0800000  0  4  6 13 11  9
   3613866.908 8   2815998.580 7  22397583.263 0  22397585.499 0
  -2976226.087 7  52335963.874 7  20835909.692 0  20835916.128 0
  -4403752.787 7  -3173213.419 7  21577319.307 0  21577323.858 0
 -20071129.769 6 -15049747.404 6  20146200.385 0  20146204.233 0
 88  3  2  7 40 29.0800000  0  4  6 13 11  9
   3712635.110 8   2892960.811 7  22416378.052 0  22416381.996 0
  -2996726.627 7  52319989.471 7  20832011.503 0  20832012.583 0
  -4346801.859 7  -3128836.069 8  21588156.890 0  21588161.268 0
 -20046948.981 6 -15030905.226 6  20150803.438 0  20150802.589 0
 88  3  2  7 40 59.0800000  0  4  6 13 11  9
   3811801.739 7   2970233.505 7  22435249.216 0  22435251.523 0
  -3016817.737 7  52304334.035 6  20828186.908 0  20828190.488 0
  -4289663.947 7  -3084313.005 7  21599030.002 0  21599034.910 0
 -20022110.309 6 -15011550.434 6  20155527.558 0  20155531.118 0
 88  3  2  7 41 29.0800000  0  4  6 13 11  9
   3911364.400 8   3047814.796 7  22454194.887 0  22454198.195 0
  -3036500.435 8  52288996.923 7  20824440.973 0  20824445.700 0
  -4232340.736 7  -3039645.577 7  21609938.286 0  21609941.977 0
 -19996613.839 7 -14991683.091 7  20160380.556 0  20160385.295 0
 88  3  2  7 41 59.0800000  0  4  6 13 11  9
   4011320.389 7   3125702.558 7  22473215.682 0  22473220.114 0
  -3055776.695 7  52273976.458 7  20820774.451 0  20820775.220 0
  -4174834.614 8  -2994835.609 7  21620881.412 0  21620884.589 0
 -19970459.942 6 -14971303.423 6  20165357.842 0  20165360.482 0
 88  3  2  7 42 29.0800000  0  4  6 13 11  9
   4111667.400 8   3203895.036 7  22492311.178 0  22492314.946 0
  -3074647.339 7  52259272.057 6  20817180.459 0  20817186.201 0
  -4117147.476 7  -2949884.586 7  21631859.168 0  21631863.289 0
 -19943648.754 7 -14950411.593 6  20170459.387 0  20170461.963 0
 88  3  2  7 42 59.0800000  0  4  6 13 11  9
   4212402.666 8   3282390.040 7  22511480.761 0  22511483.604 0
  -3093113.290 7  52244883.044 6  20813669.584 0  20813672.210 0
  -4059281.702 8  -2904794.364 7  21642870.707 0  21642873.612 0
 -19916180.656 7 -14929007.903 6  20175687.539 0  20175689.950 0
 88  3  2  7 43 29.0800000  0  4  6 13 11  9
   4313523.638 7   3361185.608 7  22530723.399 0  22530726.656 0
  -3111175.639 7  52230808.499 6  20810229.870 0  20810234.439 0
  -4001239.188 7  -2859566.422 7  21653915.601 0  21653919.192 0
 -19888055.780 6 -14907092.434 6  20181038.792 0  20181042.000 0
 88  3  2  7 43 59.0800000  0  4  6 13 11  9
   4415027.393 8   3440279.447 7  22550038.756 0  22550041.513 0
  -3128835.865 7  52217047.273 7  20806870.879 0  20806876.466 0
  -3943022.408 8  -2814202.695 7  21664993.463 0  21664997.799 0
 -19859274.998 7 -14884665.866 6  20186515.752 0  20186517.497 0
 88  3  2  7 44 29.0800000  0  4  6 13 11  9
   4516911.357 7   3519669.532 7  22569426.853 0  22569430.212 0
  -3146095.172 8  52203598.494 6  20803585.448 0  20803591.573 0
  -3884633.201 8  -2768704.606 7  21676103.935 0  21676108.715 0
 -19829838.595 7 -14861728.403 6  20192118.622 0  20192121.021 0
 88  3  2  7 44 59.0800000  0  4  6 13 11  9
   4619172.794 7   3599353.749 7  22588886.834 0  22588890.413 0
  -3162955.453 7  52190460.634 7  20800377.465 0  20800380.442 0
  -3826073.859 7  -2723073.952 8  21687247.806 0  21687251.914 0
 -19799747.183 6 -14838280.577 6  20197842.842 0  20197845.665 0
 88  3  2  7 45 29.0800000  0  4  6 13 11  9
   4721809.240 7   3679330.195 7  22608417.243 0  22608420.994 0
  -3179416.769 7  52177633.626 7  20797245.521 0  20797249.473 0
  -3767346.254 8  -2677312.180 8  21698424.188 0  21698427.392 0
 -19769001.111 6 -14814322.605 6  20203694.135 0  20203696.005 0
 88  3  2  7 45 59.0800000  0  4  6 13 11  9
   4824817.877 7   3759596.655 8  22628019.571 0  22628023.144 0
  -3195480.701 7  52165116.308 7  20794187.744 0  20794193.331 0
  -3708452.754 7  -2631421.133 7  21709630.905 0  21709634.868 0
 -19737600.771 7 -14789854.808 6  20209669.618 0  20209672.261 0
 88  3  2  7 46 29.0800000  0  4  6 13 11  9
   4928195.955 8   3840150.978 8  22647691.643 0  22647694.986 0
  -3211148.878 8  52152907.361 6  20791207.461 0  20791207.858 0
  -3649395.393 8  -2585402.401 7  21720869.845 0  21720873.795 0
 -19705547.019 7 -14764877.886 6  20215768.478 0  20215772.265 0
 88  3  2  7 46 59.0800000  0  4  6 13 11  9
   5031940.888 7   3920991.158 8  22667433.484 0  22667437.551 0
  -3226422.267 7  52141006.012 7  20788299.470 0  20788304.986 0
  -3590176.074 7  -2539257.481 7  21732138.535 0  21732141.825 0
 -19672839.904 7 -14739391.818 6  20221993.267 0  20221996.210 0
 88  3  2  7 47 29.0800000  0  4  6 13 11  9
   5136050.222 8   4002115.291 7  22687245.026 0  22687248.486 0
  -3241301.818 7  52129411.575 7  20785469.216 0  20785473.299 0
  -3530796.569 7  -2492987.736 7  21743437.244 0  21743441.424 0
 -19639480.001 7 -14713397.114 6  20228340.668 0  20228343.251 0
 88  3  2  7 47 59.0800000  0  4  6 13 11  9
   5240521.459 8   4083521.444 7  22707125.254 0  22707128.775 0
  -3255788.568 7  52118123.206 7  20782711.822 0  20782714.151 0
  -3471259.028 7  -2446594.850 7  21754767.821 0  21754771.613 0
 -19605467.922 7 -14686894.199 6  20234813.907 0  20234817.207 0
 88  3  2  7 48 29.0800000  0  4  3 13 11  9
          .446 8          .444 7  24111967.079 0          .000 0
  -3269883.999 7  52107139.764 7  20780029.404 0  20780032.488 0
  -3411564.955 8  -2400079.984 7  21766127.005 0  21766131.208 0
 -19570804.199 6 -14659883.521 6  20241409.236 0  20241412.039 0
 88  3  2  7 48 59.0800000  0  4  3 13 11  9
    -77611.577 7  83594658.009 6  24097230.067 0  24097233.408 0
  -3283589.590 7  52096460.080 6  20777421.684 0  20777426.081 0
  -3351716.584 7  -2353444.887 7  21777514.919 0  21777518.491 0
 -19535489.796 6 -14632365.818 6  20248129.757 0  20248132.350 0
 88  3  2  7 49 29.0800000  0  4  3 13 11  9
   -154999.864 7  83534355.471 7  24082502.682 0  24082507.640 0
  -3296906.682 7  52086083.144 7  20774886.797 0  20774890.333 0
  -3291716.223 7  -2306691.358 7  21788932.682 0  21788937.771 0
 -19499525.704 6 -14604341.868 6  20254973.760 0  20254977.323 0
 88  3  2  7 49 59.0800000  0  4  3 13 11  9
   -232163.533 7  83474227.977 6  24067819.413 0  24067823.741 0
  -3309836.122 6  52076008.282 6  20772427.570 0  20772430.106 0
  -3231565.820 8  -2259820.915 7  21800379.349 0  21800382.780 0
 -19462912.253 6 -14575811.937 7  20261941.467 0  20261944.122 0
 88  3  2  7 50 29.0800000  0  4  3 13 11  9
   -309101.875 8  83414276.049 7  24053179.914 0  24053183.205 0
  -3322379.336 7  52066234.369 7  20770040.599 0  20770044.126 0
  -3171267.263 7  -2212835.018 7  21811853.391 0  21811857.378 0
 -19425649.915 7 -14546776.346 7  20269032.805 0  20269034.131 0
 88  3  2  7 50 59.0800000  0  4  3 13 11  9
   -385814.583 7  83354499.930 7  24038580.410 0  24038584.639 0
  -3334537.696 7  52056760.328 7  20767726.030 0  20767729.489 0
  -3110821.849 8  -2165734.701 8  21823355.963 0  21823359.680 0
 -19387739.620 6 -14517235.877 6  20276245.631 0  20276250.256 0
 88  3  2  7 51 29.0800000  0  4  3 13 11  9
   -462302.027 7  83294899.328 6  24024026.195 0  24024028.999 0
  -3346312.258 7  52047585.359 7  20765486.120 0  20765490.231 0
  -3050232.329 8  -2118522.087 7  21834885.438 0  21834890.028 0
 -19349181.921 7 -14487190.937 7  20283583.493 0  20283585.574 0
 88  3  2  7 51 59.0800000  0  4  3 13 11  9
   -538563.789 7  83235474.610 7  24009512.589 0  24009517.669 0
  -3357704.681 7  52038708.169 7  20763316.826 0  20763322.768 0
  -2989500.604 8  -2071198.666 7  21846442.629 0  21846446.188 0
 -19309978.067 6 -14456642.481 6  20291043.638 0  20291046.210 0
 88  3  2  7 52 29.0800000  0  4  3 13 11  9
   -614598.780 7  83176226.595 7  23995044.373 0  23995048.665 0
  -3368716.325 8  52030127.671 7  20761222.200 0  20761226.297 0
  -2928628.189 8  -2023765.615 7  21858026.078 0  21858030.195 0
 -19270128.646 7 -14425591.001 6  20298626.328 0  20298630.266 0
 88  3  2  7 52 59.0800000  0  4  3 13 11  9
   -690406.973 7  83117155.306 7  23980618.383 0  23980622.682 0
  -3379347.915 7  52021843.327 6  20759198.566 0  20759203.383 0
  -2867617.281 7  -1976224.660 7  21869635.999 0  21869640.159 0
 -19229634.553 7 -14394037.177 7  20306332.490 0  20306335.622 0
 88  3  2  7 53 29.0800000  0  4  3 13 11  9
   -765988.449 7  83058260.675 7  23966235.636 0  23966239.970 0
  -3389601.035 7  52013853.880 7  20757248.336 0  20757252.264 0
  -2806469.904 7  -1928577.361 7  21881271.806 0  21881277.366 0
 -19188496.913 7 -14361981.892 7  20314159.806 0  20314163.897 0
 88  3  2  7 53 59.0800000  0  4  3 13 11  9
   -841342.082 7  82999543.578 7  23951897.302 0  23951901.172 0
  -3399477.097 7  52006158.272 7  20755368.577 0  20755372.842 0
  -2745187.610 7  -1880824.925 7  21892933.569 0  21892937.241 0
 -19146716.361 6 -14329425.623 7  20322110.591 0  20322113.934 0
 88  3  2  7 54 29.0800000  0  4  3 13 11  9
   -916467.912 7  82941003.969 7  23937600.094 0  23937605.095 0
  -3408977.181 7  51998755.617 7  20753561.342 0  20753565.456 0
  -2683772.094 7  -1832968.687 7  21904620.616 0  21904624.103 0
 -19104293.863 6 -14296369.146 6  20330184.159 0  20330188.054 0
 88  3  2  7 54 59.0800000  0  4  3 13 11  9
   -991365.756 7  82882642.024 7  23923347.867 0  23923352.625 0
  -3418103.565 7  51991644.163 6  20751823.988 0  20751828.507 0
  -2622225.999 7  -1785010.703 7  21916332.489 0  21916336.520 0
 -19061230.680 7 -14262813.447 6  20338377.574 0  20338381.374 0
 88  3  2  7 55 29.0800000  0  4  3 13 11  9
  -1066034.910 8  82824458.277 7  23909138.640 0  23909142.388 0
  -3426856.636 7  51984823.603 6  20750158.288 0  20750161.536 0
  -2560550.438 8  -1736951.817 7  21928068.917 0  21928073.351 0
 -19017527.445 6 -14228758.986 6  20346695.496 0  20346697.713 0
 88  3  2  7 55 59.0800000  0  4  3 13 11  9
  -1140475.276 7  82766452.821 7  23894972.654 0  23894978.164 0
  -3435237.690 7  51978292.918 7  20748563.000 0  20748567.663 0
  -2498747.274 7  -1688793.505 7  21939830.159 0  21939833.759 0
 -18973185.336 6 -14194206.716 7  20355132.302 0  20355136.250 0
 88  3  2  7 56 29.0800000  0  4  3 13 11  9
  -1214687.170 7  82708625.389 8  23880850.607 0  23880855.486 0
  -3443248.701 7  51972050.594 6  20747040.832 0  20747042.295 0
  -2436818.966 7  -1640537.683 7  21951614.450 0  21951617.924 0
 -18928205.667 7 -14159157.639 7  20363692.626 0  20363696.078 0
 88  3  2  7 56 59.0800000  0  4  3 13 11  9
  -1288669.720 6  82650976.682 7  23866773.589 0  23866777.680 0
  -3450890.994 7  51966095.552 6  20745585.385 0  20745589.553 0
  -2374766.877 7  -1592185.415 7  21963422.897 0  21963425.955 0
 -18882589.678 6 -14123612.702 6  20372372.047 0  20372376.440 0
 88  3  2  7 57 29.0800000  0  4  3 13 11  9
  -1362422.855 7  82593506.718 7  23852737.595 0  23852743.467 0
  -3458165.935 7  51960426.791 6  20744200.456 0  20744204.735 0
  -2312592.901 7  -1543738.161 7  21975253.996 0  21975257.397 0
 -18836338.060 7 -14087572.525 6  20381174.155 0  20381177.721 0
 88  3  2  7 57 59.0800000  0  4  3 13 11  9
  -1435946.180 6  82536215.858 7  23838746.461 0  23838750.337 0
  -3465074.282 7  51955043.691 7  20742886.859 0  20742889.736 0
  -2250299.165 8  -1495197.590 7  21987108.618 0  21987112.792 0
 -18789452.071 7 -14051037.979 6  20390095.912 0  20390099.129 0
 88  3  2  7 58 29.0800000  0  4  3 13 11  9
  -1509239.531 7  82479104.182 7  23824799.534 0  23824804.679 0
  -3471618.183 7  51949944.552 6  20741640.658 0  20741645.963 0
  -2187887.465 7  -1446565.104 7  21998984.446 0  21998987.791 0
 -18741933.205 6 -14014010.301 6  20399137.697 0  20399142.125 0
 88  3  2  7 58 59.0800000  0  4  3 13 11  9
  -1582302.243 7  82422172.215 7  23810896.581 0  23810900.874 0
  -3477798.402 8  51945128.811 7  20740464.417 0  20740468.404 0
  -2125359.272 7  -1397841.833 7  22010883.885 0  22010886.427 0
 -18693782.378 6 -13976490.189 6  20408301.052 0  20408304.923 0
 88  3  2  7 59 29.0800000  0  4  3 13 11  9
  -1655134.730 6  82365419.672 7  23797037.992 0  23797040.568 0
  -3483616.746 7  51940595.047 7  20739357.355 0  20739360.943 0
  -2062716.385 8  -1349029.199 7  22022804.000 0  22022808.247 0
 -18645000.889 6 -13938478.649 7  20417584.233 0  20417587.359 0
 88  3  2  7 59 59.0800000  0  4  3 13 11  9
  -1727737.093 6  82308846.431 7  23783220.221 0  23783224.529 0
  -3489075.338 7  51936341.615 7  20738318.796 0  20738322.249 0
  -1999960.985 7  -1300128.886 7  22034745.565 0  22034749.897 0
 -18595590.259 6 -13899976.885 6  20426985.234 0  20426989.038 0
 88  3  2  8  0 29.0800000  0  4  3 13 11  9
  -1800108.516 6  82252453.147 7  23769449.565 0  23769453.764 0
  -3494175.151 8  51932367.742 7  20737349.005 0  20737352.042 0
  -1937094.351 8  -1251141.916 7  22046708.679 0  22046713.441 0
 -18545551.841 6 -13860985.916 6  20436509.791 0  20436512.014 0
 88  3  2  8  0 59.0800000  0  4  3 13 11  9
  -1872249.142 7  82196239.673 7  23755721.168 0  23755725.025 0
  -3498917.874 8  51928672.135 7  20736445.338 0  20736449.800 0
  -1874119.081 7  -1202070.271 7  22058693.602 0  22058696.931 0
 -18494886.991 7 -13821506.829 7  20446149.409 0  20446152.994 0
 88  3  2  8  1 29.0800000  0  4  3 13 11  9
  -1944158.939 7  82140206.065 7  23742036.558 0  23742041.795 0
  -3503305.335 7  51925253.348 7  20735610.690 0  20735613.591 0
  -1811037.083 7  -1152915.470 7  22070697.082 0  22070701.200 0
 -18443597.452 7 -13781540.981 6  20455910.207 0  20455914.466 0
 88  3  2  8  1 59.0800000  0  4  3 13 11  9
  -2015837.921 8  82084352.332 7  23728396.765 0  23728401.423 0
  -3507338.715 8  51922110.455 6  20734843.075 0  20734846.649 0
  -1747849.521 8  -1103678.418 7  22082721.025 0  22082725.385 0
 -18391684.346 7 -13741089.205 6  20465788.987 0  20465791.169 0
 88  3  2  8  2 29.0800000  0  4  3 13 11  9
  -2087285.166 7  82028679.171 7  23714800.836 0  23714805.258 0
  -3511019.185 7  51919242.571 6  20734143.392 0  20734146.664 0
  -1684557.934 7  -1054360.311 7  22094765.043 0  22094769.175 0
 -18339148.482 6 -13700152.193 7  20475786.472 0  20475789.704 0
 88  3  2  8  2 59.0800000  0  4  3 13 11  9
  -2158500.937 7  81973186.380 6  23701249.510 0  23701253.566 0
  -3514348.643 8  51916648.190 7  20733509.020 0  20733512.790 0
  -1621164.482 8  -1004962.819 7  22106828.995 0  22106831.538 0
 -18285991.926 7 -13658731.519 7  20485902.419 0  20485905.596 0
 88  3  2  8  3 29.0800000  0  4  3 13 11  9
  -2229485.615 7  81917873.641 7  23687740.430 0  23687746.298 0
  -3517327.999 7  51914326.620 7  20732941.664 0  20732945.764 0
  -1557670.632 8   -955487.088 6  22118911.420 0  22118915.192 0
 -18232216.110 7 -13616828.266 6  20496134.832 0  20496138.071 0
 88  3  2  8  3 59.0800000  0  4  3 13 11  9
  -2300238.143 7  81862741.810 6  23674277.313 0  23674281.189 0
  -3519958.909 7  51912276.565 7  20732442.525 0  20732444.939 0
  -1494078.087 7   -905934.470 8  22131012.488 0  22131016.191 0
 -18177822.188 7 -13574443.426 7  20506485.498 0  20506489.110 0
 88  3  2  8  4 29.0800000  0  4  3 13 11  9
  -2370758.710 7  81807790.726 7  23660858.418 0  23660863.255 0
  -3522243.364 7  51910496.479 7  20732006.617 0  20732010.746 0
  -1430388.892 7   -856306.537 8  22143131.331 0  22143136.164 0
 -18122812.162 7 -13531578.482 6  20516953.746 0  20516956.221 0
 88  3  2  8  4 59.0800000  0  4  3 13 11  9
  -2441047.107 7  81753020.570 6  23647482.393 0  23647487.022 0
  -3524182.141 7  51908985.758 6  20731637.541 0  20731642.086 0
  -1366604.272 8   -806604.237 7  22155268.845 0  22155273.963 0
 -18067187.328 6 -13488234.463 7  20527538.822 0  20527541.219 0
 88  3  2  8  5 29.0800000  0  4  3 13 11  9
  -2511103.180 7  81698431.425 7  23634151.270 0  23634155.450 0
  -3525776.958 7  51907743.057 7  20731334.652 0  20731339.025 0
  -1302725.928 8   -756828.906 7  22167424.390 0  22167429.623 0
 -18010948.861 7 -13444412.306 6  20538240.926 0  20538245.254 0
 88  3  2  8  5 59.0800000  0  4  3 13 11  9
  -2580926.962 7  81644023.285 7  23620863.877 0  23620869.657 0
  -3527029.517 7  51906767.037 7  20731095.431 0  20731100.072 0
  -1238755.602 7   -706981.897 7  22179597.892 0  22179602.481 0
 -17954098.571 7 -13400113.396 6  20549058.999 0  20549062.459 0
 88  3  2  8  6 29.0800000  0  4  3 13 11  9
  -2650518.223 7  81589796.361 7  23607621.715 0  23607625.421 0
  -3527941.746 7  51906056.200 7  20730922.292 0  20730926.270 0
  -1174695.000 7   -657064.560 7  22191788.408 0  22191793.026 0
 -17896638.484 7 -13355339.298 6  20559993.520 0  20559996.964 0
 88  3  2  8  6 59.0800000  0  4  3 13 11  9
  -2719877.337 7  81535750.304 7  23594423.402 0  23594428.203 0
  -3528514.672 7  51905609.788 7  20730814.866 0  20730817.127 0
  -1110545.955 7   -607078.313 7  22203996.610 0  22204000.056 0
 -17838569.992 7 -13310091.120 6  20571042.894 0  20571046.455 0
 88  3  2  8  7 29.0800000  0  4  3 13 11  9
  -2789004.400 7  81481885.068 7  23581267.595 0  23581272.168 0
  -3528749.971 7  51905426.447 7  20730767.789 0  20730772.906 0
  -1046310.277 7   -557024.553 7  22216219.151 0  22216223.512 0
 -17779895.036 7 -13264370.388 7  20582209.327 0  20582212.775 0
 88  3  2  8  7 59.0800000  0  4  3 13 11  9
  -2857898.652 7  81428201.245 7  23568158.102 0  23568162.472 0
  -3528649.370 7  51905504.851 7  20730787.895 0  20730791.144 0
   -981989.277 7   -506904.299 7  22228458.890 0  22228462.708 0
 -17720614.949 7 -13218178.131 6  20593489.743 0  20593491.858 0
 88  3  2  8  8 29.0800000  0  4  3 13 11  9
  -2926560.166 7  81374698.783 7  23555092.222 0  23555096.557 0
  -3528214.148 8  51905844.007 6  20730871.086 0  20730874.568 0
   -917584.542 8   -456718.804 7  22240714.843 0  22240718.931 0
 -17660732.135 7 -13171516.204 6  20604885.229 0  20604887.960 0
 88  3  2  8  8 59.0800000  0  4  3 13 11  9
  -2994989.350 7  81321377.372 7  23542070.750 0  23542075.329 0
  -3527446.018 7  51906442.553 7  20731016.836 0  20731020.325 0
   -853098.338 7   -406469.809 7  22252987.193 0  22252990.895 0
 -17600247.981 7 -13124385.700 7  20616394.101 0  20616397.379 0
 88  3  2  8  9 29.0800000  0  4  3 13 11  9
  -3063185.776 7  81268237.299 7  23529093.278 0  23529097.335 0
  -3526346.791 8  51907299.094 6  20731225.826 0  20731229.777 0
   -788531.722 8   -356158.160 7  22265272.937 0  22265276.969 0
 -17539164.313 7 -13076788.054 7  20628018.638 0  20628020.490 0
 88  3  2  8  9 59.0800000  0  4  3 13 11  9
  -3131149.522 7  81215278.549 7  23516160.396 0  23516164.038 0
  -3524918.018 8  51908412.424 7  20731498.081 0  20731502.510 0
   -723886.389 7   -305785.188 7  22277574.478 0  22277579.383 0
 -17477482.731 7 -13028724.486 7  20639755.775 0  20639759.560 0
 88  3  2  8 10 29.0800000  0  4  3 13 11  9
  -3198880.514 7  81162501.170 7  23503271.906 0  23503276.164 0
  -3523160.449 8  51909781.959 6  20731831.791 0  20731835.303 0
   -659163.553 8   -255351.818 7  22289891.760 0  22289895.161 0
 -17415205.042 7 -12980196.435 7  20651607.297 0  20651609.546 0
 88  3  2  8 10 59.0800000  0  4  3 13 11  9
  -3266378.841 7  81109905.077 7  23490427.017 0  23490431.753 0
  -3521076.465 7  51911405.838 7  20732228.506 0  20732232.882 0
   -594364.917 8   -204859.372 7  22302222.978 0  22302226.165 0
 -17352333.262 7 -12931205.448 6  20663570.881 0  20663574.803 0
 88  3  2  8 11 29.0800000  0  4  3 13 11  9
  -3333644.965 7  81057489.926 7  23477627.122 0  23477631.337 0
  -3518667.833 7  51913282.688 7  20732687.738 0  20732691.804 0
   -529492.448 7   -154309.404 7  22314567.346 0  22314571.192 0
 -17288869.460 7 -12881753.143 7  20675647.938 0  20675650.879 0
 88  3  2  8 11 59.0800000  0  4  3 13 11  9
  -3400678.737 7  81005255.827 7  23464870.343 0  23464875.409 0
  -3515936.075 7  51915411.339 7  20733207.135 0  20733210.736 0
   -464547.421 7   -103702.890 7  22326925.567 0  22326930.271 0
 -17224815.293 7 -12831840.823 6  20687837.106 0  20687840.841 0
 88  3  2  8 12 29.0800000  0  4  3 13 11  9
  -3467479.971 7  80953202.926 7  23452159.317 0  23452162.550 0
  -3512882.426 7  51917790.794 7  20733788.811 0  20733791.520 0
   -399531.602 7    -53041.230 7  22339297.895 0  22339301.082 0
 -17160172.961 7 -12781470.202 6  20700137.583 0  20700140.558 0
 88  3  2  8 12 59.0800000  0  4  3 13 11  9
  -3534049.848 6  80901330.320 7  23439490.481 0  23439495.295 0
  -3509509.589 7  51920418.981 7  20734429.814 0  20734435.059 0
   -334447.326 7     -2326.221 7  22351682.759 0  22351686.604 0
 -17094945.259 7 -12730643.422 7  20712550.926 0  20712554.432 0
 88  3  2  8 13 29.0800000  0  4  3 13 11  9
  -3600387.474 6  80849638.685 7  23426867.113 0  23426871.397 0
  -3505818.287 7  51923295.331 6  20735131.895 0  20735135.912 0
   -269295.749 7     48441.268 7  22364080.515 0  22364084.232 0
 -17029133.741 7 -12679361.736 6  20725074.014 0  20725077.649 0
 88  3  2  8 13 59.0800000  0  4  3 13 11  9
  -3666493.508 7  80798127.520 7  23414288.116 0  23414291.751 0
  -3501811.144 7  51926417.767 6  20735894.526 0  20735899.562 0
   -204078.374 7     99259.991 7  22376491.020 0  22376495.252 0
 -16962740.516 7 -12627626.761 7  20737708.753 0  20737712.653 0
 88  3  2  8 14 29.0800000  0  4  3 13 11  9
  -3732368.107 7  80746796.684 6  23401752.055 0  23401756.663 0
  -3497489.274 8  51929785.467 6  20736717.791 0  20736720.893 0
   -138797.048 8    150128.552 7  22388913.223 0  22388917.476 0
 -16895767.928 7 -12575440.356 6  20750452.500 0  20750456.635 0
 88  3  2  8 14 59.0800000  0  4  3 13 11  9
  -3798011.199 7  80695646.230 7  23389261.219 0  23389264.989 0
  -3492854.270 7  51933397.154 7  20737599.267 0  20737602.269 0
    -73453.099 7    201045.890 8  22401347.844 0  22401352.712 0
 -16828217.798 7 -12522803.886 6  20763307.442 0  20763309.438 0
 88  3  2  8 15 29.0800000  0  4  3 13 11  9
  -3863422.387 7  80644676.500 7  23376813.567 0  23376817.152 0
  -3487908.101 7  51937251.321 7  20738540.756 0  20738544.072 0
     -8048.120 7    252010.814 7  22413794.492 0  22413798.569 0
 -16760092.188 7 -12469719.007 6  20776270.234 0  20776274.963 0
 88  3  2  8 15 59.0800000  0  4  3 13 11  9
  -3928602.134 7  80593887.086 7  23364409.666 0  23364413.765 0
  -3482652.077 8  51941346.921 7  20739540.482 0  20739544.572 0
     57417.052 8    303022.630 7  22426251.923 0  22426255.894 0
 -16691393.288 7 -12416187.420 7  20789343.922 0  20789347.567 0
 88  3  2  8 16 29.0800000  0  4  3 13 11  9
  -3993550.844 7  80543277.707 7  23352051.104 0  23352053.772 0
  -3477088.102 7  51945682.481 7  20740599.277 0  20740602.853 0
    122940.108 7    354079.555 7  22438720.300 0  22438724.684 0
 -16622123.231 7 -12362210.759 7  20802525.541 0  20802528.377 0
 88  3  2  8 16 59.0800000  0  4  3 13 11  9
  -4058268.550 8  80492848.343 6  23339735.247 0  23339740.148 0
  -3471217.665 8  51950256.852 6  20741716.425 0  20741720.772 0
    188519.889 7    405180.678 7  22451199.518 0  22451203.603 0
 -16552284.387 7 -12307790.891 6  20815815.379 0  20815819.498 0
 88  3  2  8 17 29.0800000  0  4  3 13 11  9
  -4122754.943 7  80442599.234 6  23327463.705 0  23327466.817 0
  -3465042.404 8  51955068.747 7  20742891.353 0  20742895.773 0
    254154.917 8    456324.852 8  22463690.931 0  22463694.354 0
 -16481878.183 7 -12252928.924 7  20829213.800 0  20829217.328 0
 88  3  2  8 17 59.0800000  0  4  3 13 11  9
  -4187010.105 7  80392530.300 7  23315237.438 0  23315239.714 0
  -3458563.855 7  51960116.985 7  20744124.693 0  20744128.852 0
    319843.945 8    507511.103 8  22476191.295 0  22476194.618 0
 -16410907.502 7 -12197627.109 7  20842718.699 0  20842721.631 0
 88  3  2  8 18 29.0800000  0  4  3 13 11  9
  -4251034.077 7  80342641.516 7  23303053.369 0  23303057.318 0
  -3451783.371 7  51965400.483 6  20745415.010 0  20745418.713 0
    385585.818 8    558738.537 7  22488701.299 0  22488704.994 0
 -16339373.961 7 -12141886.696 6  20856330.620 0  20856334.126 0
 88  3  2  8 18 59.0800000  0  4  3 13 11  9
  -4314827.162 7  80292932.630 7  23290913.179 0  23290917.235 0
  -3444702.407 8  51970918.118 7  20746762.765 0  20746767.384 0
    451379.306 7    610006.182 7  22501221.510 0  22501224.654 0
 -16267279.671 7 -12085709.340 7  20870049.544 0  20870054.196 0
 88  3  2  8 19 29.0800000  0  4  3 13 11  9
  -4378389.728 7  80243403.389 7  23278818.586 0  23278823.694 0
  -3437322.560 8  51976668.651 7  20748166.325 0  20748171.846 0
    517222.840 8    661312.822 7  22513749.816 0  22513753.955 0
 -16194626.673 8 -12029096.635 7  20883875.731 0  20883879.584 0
 88  3  2  8 19 59.0800000  0  4  3 13 11  9
  -4441721.294 7  80194054.136 7  23266766.834 0  23266770.210 0
  -3429645.685 7  51982650.640 7  20749628.268 0  20749630.998 0
    583114.976 7    712657.336 7  22526288.628 0  22526292.788 0
 -16121418.246 8 -11972051.124 6  20897807.433 0  20897808.221 0
 88  3  2  8 20 29.0800000  0  4  3 13 11  9
  -4504822.620 8  80144884.272 6  23254759.011 0  23254761.322 0
  -3421674.121 7  51988862.237 7  20751144.185 0  20751147.630 0
    649053.892 7    764038.295 7  22538836.509 0  22538840.948 0
 -16047656.335 8 -11914574.305 7  20911843.769 0  20911846.645 0
 88  3  2  8 20 59.0800000  0  4  3 13 11  9
  -4567694.383 7  80095893.289 7  23242794.101 0  23242798.538 0
  -3413409.366 8  51995302.298 6  20752717.137 0  20752720.598 0
    715038.045 7    815454.516 8  22551392.571 0  22551397.808 0
 -15973343.848 8 -11856668.493 6  20925984.300 0  20925988.514 0
 88  3  2  8 21 29.0800000  0  4  3 13 11  9
  -4630336.075 7  80047081.604 7  23230874.044 0  23230879.460 0
  -3404852.629 7  52001969.903 7  20754345.897 0  20754350.157 0
    781066.683 7    866905.388 7  22563958.071 0  22563962.739 0
 -15898482.404 7 -11798334.917 7  20940229.790 0  20940233.410 0
 88  3  2  8 21 59.0800000  0  4  3 13 11  9
  -4692748.137 7  79998448.850 6  23218998.316 0  23219000.578 0
  -3396005.919 7  52008863.444 7  20756029.087 0  20756032.503 0
    847138.037 7    918389.533 8  22576530.153 0  22576535.314 0
 -15823074.552 7 -11739575.546 7  20954580.173 0  20954582.718 0
 88  3  2  8 22 29.0800000  0  4  3 13 11  9
  -4754930.993 7  79949994.694 7  23207163.793 0  23207167.756 0
  -3386870.967 8  52015981.598 7  20757768.199 0  20757770.813 0
    913250.985 6    969906.106 7  22589110.943 0  22589116.135 0
 -15747122.792 7 -11680392.364 7  20969032.507 0  20969036.782 0
 88  3  2  8 22 59.0800000  0  4  3 13 11  9
  -4816884.580 8  79901719.184 7  23195375.243 0  23195380.066 0
  -3377449.439 8  52023323.055 7  20759559.967 0  20759562.541 0
    979404.100 7   1021453.983 7  22601700.025 0  22601704.103 0
 -15670629.467 7 -11620787.211 7  20983588.964 0  20983592.699 0
 88  3  2  8 23 29.0800000  0  4  3 13 11  9
  -4878609.249 7  79853622.070 7  23183630.682 0  23183633.608 0
  -3367742.735 8  52030886.713 6  20761406.856 0  20761411.046 0
   1045596.042 7   1073032.126 7  22614296.768 0  22614301.197 0
 -15593597.064 7 -11560761.966 7  20998247.849 0  20998250.994 0
 88  3  2  8 23 59.0800000  0  4  3 13 11  9
  -4940104.957 7  79805703.359 6  23171927.265 0  23171930.907 0
  -3357752.055 7  52038671.670 7  20763309.263 0  20763312.423 0
   1111825.886 8   1124639.811 7  22626899.808 0  22626903.417 0
 -15516027.772 7 -11500318.378 7  21013007.534 0  21013011.344 0
 88  3  2  8 24 29.0800000  0  4  3 13 11  9
  -5001372.110 7  79757962.728 7  23160268.952 0  23160272.186 0
  -3347479.734 7  52046676.095 6  20765263.213 0  20765267.731 0
   1178092.064 7   1176275.797 7  22639509.200 0  22639513.728 0
 -15437924.556 8 -11439458.742 7  21027871.685 0  21027874.321 0
 88  3  2  8 24 59.0800000  0  4  3 13 11  9
  -5062411.459 7  79710399.591 7  23148652.864 0  23148656.913 0
  -3336928.089 7  52054898.153 7  20767271.251 0  20767275.069 0
   1244392.786 7   1227938.699 7  22652126.180 0  22652129.435 0
 -15359289.837 7 -11378184.948 7  21042835.195 0  21042838.435 0
 88  3  2  8 25 29.0800000  0  4  3 13 11  9
  -5123223.048 7  79663013.958 7  23137079.918 0  23137085.572 0
  -3326098.139 7  52063337.092 7  20769331.919 0  20769335.794 0
   1310726.864 7   1279627.612 7  22664748.791 0  22664752.943 0
 -15280126.002 7 -11316498.862 6  21057899.120 0  21057902.313 0
 88  3  2  8 25 59.0800000  0  4  3 13 11  9
  -5183806.871 7  79615805.800 6  23125551.548 0  23125556.048 0
  -3314991.416 8  52071991.670 7  20771446.016 0  20771449.663 0
   1377093.786 7   1331342.090 7  22677377.879 0  22677381.639 0
 -15200435.563 7 -11254402.424 7  21073063.810 0  21073067.210 0
 88  3  2  8 26 29.0800000  0  4  3 13 11  9
  -5244163.066 7  79568775.008 7  23114065.989 0  23114069.552 0
  -3303609.689 8  52080860.551 7  20773611.083 0  20773615.989 0
   1443491.958 7   1383080.928 7  22690013.255 0  22690017.186 0
 -15120220.915 7 -11191897.510 7  21088328.704 0  21088330.831 0
 88  3  2  8 26 59.0800000  0  4  3 13 11  9
  -5304292.193 7  79521921.161 7  23102624.037 0  23102628.953 0
  -3291954.520 7  52089942.514 7  20775829.696 0  20775833.499 0
   1509920.124 8   1434843.139 7  22702654.500 0  22702657.642 0
 -15039484.742 7 -11128986.227 6  21103691.841 0  21103695.134 0
 88  3  2  8 27 29.0800000  0  4  3 13 11  9
  -5364194.467 7  79475244.067 7  23091225.406 0  23091229.836 0
  -3280027.734 8  52099236.121 7  20778099.506 0  20778101.421 0
   1576376.942 7   1486627.671 7  22715300.277 0  22715304.109 0
 -14958229.880 7 -11065670.764 7  21119155.034 0  21119158.146 0
 88  3  2  8 27 59.0800000  0  4  3 13 11  9
  -5423870.767 7  79428743.069 6  23079869.524 0  23079872.981 0
  -3267831.513 8  52108739.672 7  20780418.998 0  20780424.076 0
   1642861.065 7   1538433.469 8  22727951.234 0  22727956.281 0
 -14876459.215 8 -11001953.359 6  21134714.595 0  21134718.225 0
 88  3  2  8 28 29.0800000  0  4  3 13 11  9
  -5483321.342 7  79382417.956 7  23068556.699 0  23068560.106 0
  -3255367.581 8  52118451.825 6  20782791.777 0  20782796.927 0
   1709370.960 7   1590259.370 7  22740607.593 0  22740612.704 0
 -14794175.423 8 -10937836.131 7  21150372.840 0  21150376.058 0
 88  3  2  8 28 59.0800000  0  4  3 13 11  9
  -5542546.421 7  79336268.540 8  23057285.562 0  23057290.587 0
  -3242637.450 7  52128371.409 7  20785214.325 0  20785216.941 0
   1775905.521 7   1642104.475 7  22753268.298 0  22753273.567 0
 -14711381.085 8 -10873321.078 7  21166128.500 0  21166131.285 0
 88  3  2  8 29 29.0800000  0  4  3 13 11  9
  -5601545.868 7  79290294.969 7  23046059.208 0  23046062.285 0
  -3229641.939 7  52138497.794 7  20787686.611 0  20787690.743 0
   1842464.218 7   1693968.371 7  22765934.478 0  22765939.308 0
 -14628077.959 7 -10808409.562 7  21181979.752 0  21181982.319 0
 88  3  2  8 29 59.0800000  0  4  3 13 11  9
  -5660319.939 7  79244497.011 7  23034875.595 0  23034877.484 0
  -3216383.533 7  52148829.026 6  20790210.838 0  20790214.385 0
   1909045.601 7   1745849.958 7  22778604.154 0  22778609.892 0
 -14544269.311 7 -10743104.127 7  21197927.626 0  21197931.270 0
 88  3  2  8 30 29.0800000  0  4  3 13 11  9
  -5718868.965 7  79198874.375 7  23023732.606 0  23023737.815 0
  -3202863.571 7  52159364.065 7  20792783.346 0  20792785.632 0
   1975648.783 7   1797748.546 7  22791279.465 0  22791283.504 0
 -14459957.571 8 -10677406.682 7  21213971.949 0  21213975.314 0
 88  3  2  8 30 59.0800000  0  4  3 13 11  9
  -5777193.691 7  79153426.560 7  23012634.447 0  23012638.669 0
  -3189083.820 8  52170101.549 7  20795405.134 0  20795408.636 0
   2042272.322 8   1849662.994 7  22803957.370 0  22803961.685 0
 -14375145.725 7 -10611319.530 7  21230111.674 0  21230113.984 0
 88  3  2  8 31 29.0800000  0  4  3 13 11  9
  -5835294.690 7  79108153.046 7  23001578.572 0  23001581.248 0
  -3175046.176 8  52181039.982 6  20798076.946 0  20798079.691 0
   2108914.840 7   1901592.235 7  22816639.407 0  22816643.210 0
 -14289836.431 7 -10544844.768 7  21246345.267 0  21246347.975 0
 88  3  2  8 31 59.0800000  0  4  3 13 11  9
  -5893172.318 7  79063053.586 7  22990564.652 0  22990568.443 0
  -3160752.338 8  52192178.038 7  20800796.094 0  20800799.940 0
   2175574.969 8   1953535.205 7  22829324.230 0  22829328.824 0
 -14204033.140 7 -10477985.064 7  21262673.077 0  21262677.183 0
 88  3  2  8 32 29.0800000  0  4  3 13 11  9
  -5950826.324 7  79018128.400 7  22979593.829 0  22979598.051 0
  -3146203.464 7  52203514.834 7  20803564.007 0  20803568.841 0
   2242251.947 8   2005491.295 8  22842012.334 0  22842016.079 0
 -14117737.811 7 -10410741.957 7  21279094.740 0  21279098.808 0
 88  3  2  8 32 59.0800000  0  4  3 13 11  9
  -6008257.733 7  78973376.656 7  22968663.977 0  22968667.918 0
  -3131401.308 8  52215048.993 7  20806382.720 0  20806384.590 0
   2308944.943 7   2057459.872 7  22854703.888 0  22854707.476 0
 -14030953.532 7 -10343117.862 7  21295609.251 0  21295612.693 0
 88  3  2  8 33 29.0800000  0  4  3 13 11  9
  -6065466.542 7  78928798.392 7  22957777.436 0  22957781.743 0
  -3116347.610 7  52226779.159 6  20809247.048 0  20809249.349 0
   2375652.923 8   2109440.119 7  22867397.887 0  22867401.128 0
 -13943682.862 7 -10275114.744 7  21312216.240 0  21312219.747 0
 88  3  2  8 33 59.0800000  0  4  3 13 11  9
  -6122451.908 7  78884394.217 7  22946934.030 0  22946938.602 0
  -3101043.841 7  52238704.180 6  20812157.997 0  20812162.558 0
   2442375.267 7   2161431.553 7  22880095.463 0  22880098.926 0
 -13855928.033 8 -10206734.366 7  21328914.385 0  21328919.372 0
 88  3  2  8 34 29.0800000  0  4  3 13 11  9
  -6179215.464 7  78840162.885 7  22936131.635 0  22936135.564 0
  -3085491.468 8  52250822.921 7  20815117.996 0  20815122.072 0
   2509110.330 7   2213432.926 7  22892794.520 0  22892798.133 0
 -13767692.272 7 -10137979.243 7  21345706.997 0  21345709.285 0
 88  3  2  8 34 59.0800000  0  4  3 13 11  9
  -6235758.324 7  78796103.518 6  22925373.162 0  22925375.002 0
  -3069692.952 8  52263133.465 7  20818124.330 0  20818127.146 0
   2575856.469 7   2265442.922 7  22905495.921 0  22905499.262 0
 -13678978.934 8 -10068851.977 7  21362588.008 0  21362590.802 0
 88  3  2  8 35 29.0800000  0  4  3 13 11  9
  -6292080.574 7  78752216.057 7  22914655.149 0  22914658.053 0
  -3053649.995 7  52275634.464 7  20821176.681 0  20821180.585 0
   2642612.626 6   2317460.696 7  22918198.287 0  22918202.387 0
 -13589791.249 7  -9999355.076 7  21379559.595 0  21379562.435 0
 88  3  2  8 35 59.0800000  0  4  3 13 11  9
  -6348181.639 7  78708500.944 7  22903978.202 0  22903983.103 0
  -3037363.354 8  52288325.367 6  20824276.625 0  20824280.457 0
   2709379.044 7   2369486.437 7  22930902.142 0  22930908.446 0
 -13500130.626 7  -9929489.672 7  21396621.695 0  21396624.302 0
 88  3  2  8 36 29.0800000  0  4  3 13 11  9
  -6404062.650 8  78664957.337 6  22893345.644 0  22893347.890 0
  -3020835.627 7  52301204.133 7  20827421.071 0  20827425.532 0
   2776153.448 7   2421518.447 7  22943610.354 0  22943614.110 0
 -13410001.141 8  -9859258.912 7  21413772.795 0  21413776.643 0
 88  3  2  8 36 59.0800000  0  4  3 13 11  9
  -6459724.305 7  78621584.606 7  22882751.669 0  22882757.105 0
  -3004068.055 7  52314269.782 6  20830611.564 0  20830616.168 0
   2842935.011 7   2473556.031 7  22956318.423 0  22956321.878 0
 -13319405.307 7  -9788664.750 7  21431011.862 0  21431015.671 0
 88  3  2  8 37 29.0800000  0  4  3 13 11  9
  -6515166.627 8  78578382.841 7  22872203.721 0  22872206.216 0
  -2987062.611 7  52327520.789 7  20833848.218 0  20833851.562 0
   2909722.933 7   2525598.571 7  22969027.590 0  22969031.892 0
 -13228346.216 7  -9717709.627 7  21448340.721 0  21448343.533 0
 88  3  2  8 37 59.0800000  0  4  3 13 11  9
  -6570390.519 7  78535351.226 7  22861694.090 0  22861696.946 0
  -2969821.338 8  52340955.551 7  20837129.631 0  20837132.403 0
   2976515.923 7   2577645.050 7  22981737.207 0  22981741.975 0
 -13136826.972 7  -9646395.925 7  21465756.476 0  21465759.387 0
 88  3  2  8 38 29.0800000  0  4  3 13 11  9
  -6625396.185 7  78492489.689 7  22851225.873 0  22851230.738 0
  -2952345.284 7  52354573.267 7  20840454.373 0  20840458.332 0
   3043313.523 7   2629695.112 7  22994449.387 0  22994453.598 0
 -13044850.062 7  -9574725.613 7  21483258.289 0  21483262.527 0
 88  3  2  8 38 59.0800000  0  4  3 13 11  9
  -6680184.481 8  78449797.513 7  22840802.135 0  22840805.870 0
  -2934636.389 7  52368372.407 6  20843824.587 0  20843827.876 0
   3110114.068 7   2681747.467 7  23007161.186 0  23007165.884 0
 -12952418.926 7  -9502701.360 7  21500848.022 0  21500850.702 0
 88  3  2  8 39 29.0800000  0  4  3 13 11  9
  -6734756.057 7  78407274.218 7  22830414.062 0  22830418.506 0
  -2916696.842 7  52382351.284 7  20847238.018 0  20847242.965 0
   3176915.820 7   2733800.787 7  23019873.366 0  23019877.680 0
 -12859537.406 8  -9430326.150 7  21518522.100 0  21518526.132 0
 88  3  2  8 39 59.0800000  0  4  3 13 11  9
  -6789110.758 8  78364919.905 6  22820073.682 0  22820076.802 0
  -2898527.336 7  52396509.351 7  20850695.662 0  20850699.910 0
   3243718.809 8   2785855.061 8  23032586.024 0  23032588.373 0
 -12766207.496 8  -9357601.528 7  21536282.471 0  21536285.658 0
 88  3  2  8 40 29.0800000  0  4  3 13 11  9
  -6843249.640 7  78322733.766 7  22809770.907 0  22809775.543 0
  -2880130.226 8  52410844.771 6  20854196.893 0  20854201.198 0
   3310522.193 7   2837909.659 7  23045298.464 0  23045301.448 0
 -12672432.170 8  -9284529.852 7  21554127.286 0  21554131.941 0
 88  3  2  8 40 59.0800000  0  4  3 13 11  9
  -6897174.370 6  78280714.516 7  22799508.948 0  22799512.799 0
  -2861508.340 7  52425355.327 6  20857739.993 0  20857744.397 0
   3377323.842 7   2889962.894 7  23058009.702 0  23058012.810 0
 -12578216.025 8  -9211114.680 7  21572056.233 0  21572059.123 0
 88  3  2  8 41 29.0800000  0  4  3 13 11  9
  -6950884.588 7  78238862.380 6  22789288.215 0  22789290.769 0
  -2842662.557 8  52440040.376 7  20861326.564 0  20861329.595 0
   3444123.132 8   2942014.295 8  23070720.417 0  23070724.692 0
 -12483561.069 8  -9137357.569 7  21590068.664 0  21590071.003 0
 88  3  2  8 41 59.0800000  0  4  3 13 11  9
  -7004380.276 7  78197177.451 7  22779109.072 0  22779111.582 0
  -2823594.020 8  52454898.972 7  20864955.032 0  20864957.704 0
   3510919.692 7   2994063.557 7  23083431.309 0  23083435.421 0
 -12388470.518 8  -9063261.052 7  21608163.261 0  21608167.062 0
 88  3  2  8 42 29.0800000  0  4  3 13 11  9
  -7057662.579 8  78155658.782 6  22768969.199 0  22768974.316 0
  -2804304.098 7  52469930.097 7  20868625.368 0  20868630.832 0
   3577712.446 7   3046109.840 7  23096141.990 0  23096145.535 0
 -12292947.017 8  -8988827.162 7  21626340.643 0  21626345.339 0
 88  3  2  8 42 59.0800000  0  4  3 13 11  9
  -7110731.546 7  78114306.338 7  22758870.130 0  22758873.643 0
  -2784794.624 8  52485132.293 7  20872338.834 0  20872342.279 0
   3644500.501 7   3098152.473 7  23108852.205 0  23108855.835 0
 -12196993.717 8  -8914058.354 7  21644599.239 0  21644603.416 0
 88  3  2  8 43 29.0800000  0  4  3 13 11  9
  -7163587.320 7  78073120.031 7  22748812.758 0  22748815.002 0
  -2765067.051 7  52500504.440 6  20876092.077 0  20876096.167 0
   3711283.101 7   3150190.879 7  23121559.715 0  23121563.960 0
 -12100613.152 7  -8838956.628 7  21662940.783 0  21662943.945 0
 88  3  2  8 43 59.0800000  0  4  3 13 11  9
  -7216229.561 8  78032100.095 7  22738794.978 0  22738797.489 0
  -2745122.636 7  52516045.534 7  20879887.878 0  20879891.782 0
   3778060.284 7   3202225.053 7  23134267.316 0  23134270.044 0
 -12003808.524 7  -8763524.461 7  21681362.485 0  21681365.405 0
 88  3  2  8 44 29.0800000  0  4  3 13 11  9
  -7268659.799 7  77991245.403 7  22728817.036 0  22728822.323 0
  -2724963.426 8  52531754.023 7  20883724.202 0  20883727.203 0
   3844830.839 7   3254254.045 6  23146972.601 0  23146977.008 0
 -11906582.496 7  -8687763.920 6  21699864.128 0  21699867.355 0
 88  3  2  8 44 59.0800000  0  4  3 13 11  9
  -7320878.721 8  77950555.329 6  22718881.727 0  22718883.116 0
  -2704590.934 8  52547628.699 7  20887600.735 0  20887603.708 0
   3911593.496 7   3306276.913 6  23159679.161 0  23159680.704 0
 -11808938.915 7  -8611678.017 7  21718444.368 0  21718448.314 0
 88  3  2  8 45 29.0800000  0  4  3 13 11  9
  -7372887.104 6  77910029.322 7  22708983.179 0  22708987.623 0
  -2684006.893 7  52563668.222 7  20891517.332 0  20891521.278 0
   3978347.582 7   3358293.057 7  23172379.155 0  23172383.955 0
 -11710880.819 7  -8535269.116 7  21737104.428 0  21737107.136 0
 88  3  2  8 45 59.0800000  0  4  3 13 11  9
  -7424685.219 7  77869667.175 7  22699127.439 0  22699130.986 0
  -2663213.184 8  52579871.120 7  20895474.054 0  20895478.730 0
   4045091.803 7   3410301.517 7  23185080.319 0  23185085.559 0
 -11612411.462 8  -8458539.741 7  21755843.145 0  21755844.935 0
 88  3  2  8 46 29.0800000  0  4  3 13 11  9
  -7476273.291 6  77829468.693 7  22689309.467 0  22689313.358 0
  -2642210.242 7  52596237.048 7  20899470.296 0  20899475.402 0
   4111825.891 7   3462302.097 7  23197780.833 0  23197784.853 0
 -11513533.403 8  -8381491.912 7  21774658.612 0  21774662.572 0
 88  3  2  8 46 59.0800000  0  4  3 13 11  9
  -7527652.405 7  77789433.028 7  22679533.533 0  22679535.385 0
  -2621001.179 7  52612763.603 7  20903507.062 0  20903511.610 0
   4178548.571 7   3514293.789 7  23210477.865 0  23210480.712 0
 -11414250.701 7  -8304128.793 7  21793550.972 0  21793554.674 0
 88  3  2  8 47 29.0800000  0  4  3 13 11  9
  -7578822.949 7  77749559.888 7  22669794.039 0  22669800.356 0
  -2599587.312 7  52629449.742 7  20907582.093 0  20907587.026 0
   4245259.395 7   3566276.238 7  23223172.057 0  23223176.121 0
 -11314565.936 7  -8226452.364 7  21812520.389 0  21812524.116 0
 88  3  2  8 47 59.0800000  0  4  3 13 11  9
  -7629785.001 7  77709849.179 7  22660098.102 0  22660101.057 0
  -2577969.504 8  52646294.783 7  20911696.244 0  20911699.574 0
   4311957.772 7   3618249.006 7  23235863.319 0  23235867.701 0
 -11214482.230 8  -8148465.060 7  21831566.082 0  21831570.365 0
 88  3  2  8 48 29.0800000  0  4  3 13 11  9
  -7680539.586 7  77670300.147 7  22650439.734 0  22650444.027 0
  -2556149.047 7  52663297.741 7  20915847.712 0  20915851.315 0
   4378643.060 7   3670211.554 7  23248553.702 0  23248558.441 0
 -11114002.508 7  -8070169.183 7  21850686.556 0  21850690.314 0
 88  3  2  8 48 59.0800000  0  4  3 13 11  9
  -7731087.600 7  77630912.118 7  22640820.839 0  22640823.921 0
  -2534128.190 7  52680456.853 7  20920038.131 0  20920042.564 0
   4445314.068 8   3722162.988 7  23261241.546 0  23261244.485 0
 -11013130.596 7  -7991567.725 7  21869882.192 0  21869886.584 0
 88  3  2  8 49 29.0800000  0  4  3 13 11  9
  -7781428.956 7  77591685.055 7  22631241.400 0  22631245.035 0
  -2511908.853 8  52697770.633 6  20924266.641 0  20924271.217 0
   4511970.187 8   3774102.819 7  23273925.900 0  23273929.441 0
 -10911869.608 8  -7912663.063 7  21889151.172 0  21889154.929 0
 88  3  2  8 49 59.0800000  0  4  3 13 11  9
  -7831564.771 6  77552618.213 7  22621700.232 0  22621705.576 0
  -2489491.830 7  52715238.449 7  20928532.613 0  20928536.459 0
   4578610.404 7   3826030.265 8  23286606.832 0  23286610.884 0
 -10810222.506 7  -7833457.542 7  21908494.010 0  21908497.877 0
 88  3  2  8 50 29.0800000  0  4  3 13 11  9
  -7881495.822 7  77513710.924 6  22612200.138 0  22612202.219 0
  -2466879.433 7  52732858.501 7  20932835.588 0  20932839.233 0
   4645234.395 8   3877945.073 7  23299284.968 0  23299288.882 0
 -10708192.472 7  -7753953.641 7  21927909.882 0  21927913.305 0
 88  3  2  8 50 59.0800000  0  4  3 13 11  9
  -7931222.429 7  77474962.934 6  22602735.673 0  22602739.587 0
  -2444073.368 7  52750629.471 7  20937175.652 0  20937179.297 0
   4711841.460 7   3929846.677 7  23311960.584 0  23311964.684 0
 -10605782.798 7  -7674153.923 7  21947397.954 0  21947401.531 0
 88  3  2  8 51 29.0800000  0  4  3 13 11  9
  -7980745.148 7  77436373.814 7  22593312.176 0  22593316.769 0
  -2421075.023 7  52768550.249 7  20941552.490 0  20941556.165 0
   4778430.359 8   3981734.132 8  23324631.624 0  23324635.294 0
 -10502996.442 7  -7594060.683 7  21966957.594 0  21966960.709 0
 88  3  2  8 51 59.0800000  0  4  3 13 11  9
  -8030064.344 7  77397943.265 7  22583926.585 0  22583930.641 0
  -2397885.213 8  52786620.238 7  20945964.845 0  20945968.162 0
   4845001.007 7   4033607.357 8  23337298.665 0  23337303.737 0
 -10399836.944 7  -7513676.674 7  21986588.344 0  21986591.764 0
 88  3  2  8 52 29.0800000  0  4  3 13 11  9
  -8079180.433 7  77359670.992 6  22574580.779 0  22574584.014 0
  -2374505.709 8  52804838.037 7  20950413.545 0  20950417.462 0
   4911552.455 6   4085465.604 7  23349963.241 0  23349968.030 0
 -10296307.664 7  -7433004.538 7  22006288.596 0  22006292.342 0
 88  3  2  8 52 59.0800000  0  4  3 13 11  9
  -8128094.313 7  77321556.297 7  22565271.713 0  22565276.214 0
  -2350937.691 8  52823202.716 7  20954898.646 0  20954901.991 0
   4978084.370 6   4137308.630 8  23362624.561 0  23362628.292 0
 -10192411.773 8  -7352046.719 7  22026059.297 0  22026063.528 0
 88  3  2  8 53 29.0800000  0  4  3 13 11  9
  -8176806.014 7  77283599.131 6  22556002.512 0  22556005.595 0
  -2327182.321 7  52841713.410 7  20959419.264 0  20959422.982 0
   5044596.969 6   4189136.605 6  23375279.832 0  23375284.532 0
 -10088151.344 8  -7270804.847 7  22045899.443 0  22045903.604 0
 88  3  2  8 53 59.0800000  0  4  3 13 11  9
  -8225316.300 8  77245798.921 7  22546772.233 0  22546775.052 0
  -2303241.860 8  52860368.326 7  20963975.083 0  20963977.927 0
   5111088.860 6   4240948.464 7  23387934.793 0  23387938.363 0
  -9983530.051 7  -7189281.784 7  22065808.868 0  22065812.294 0
 88  3  2  8 54 29.0800000  0  4  3 13 11  9
  -8273626.186 7  77208154.864 7  22537578.676 0  22537583.284 0
  -2279117.881 8  52879166.217 7  20968565.787 0  20968569.131 0
   5177559.196 6   4292743.525 8  23400581.926 0  23400585.935 0
  -9878552.079 7  -7107480.786 7  22085784.694 0  22085788.708 0
 88  3  2  8 54 59.0800000  0  4  3 13 11  9
  -8321736.639 7  77170666.194 7  22528423.170 0  22528427.655 0
  -2254812.462 7  52898105.509 7  20973191.091 0  20973194.765 0
   5244006.693 6   4344520.760 7  23413226.436 0  23413231.304 0
  -9773220.861 7  -7025404.530 7  22105828.980 0  22105832.366 0
 88  3  2  8 55 29.0800000  0  4  3 13 11  9
  -8369648.139 8  77133332.551 7  22519306.998 0  22519311.212 0
  -2230326.020 7  52917185.852 7  20977849.935 0  20977853.852 0
   5310431.431 6   4396280.285 7  23425867.005 0  23425871.132 0
  -9667539.105 7  -6943055.126 7  22125939.312 0  22125942.828 0
 88  3  2  8 55 59.0800000  0  4  3 13 11  9
  -8417361.461 7  77096153.360 7  22510226.385 0  22510230.828 0
  -2205660.771 8  52936405.537 7  20982544.038 0  20982547.097 0
   5376832.399 7   4448021.289 7  23438502.612 0  23438507.172 0
  -9561510.375 7  -6860435.369 7  22146116.083 0  22146120.217 0
 88  3  2  8 56 29.0800000  0  4  3 13 11  9
  -8464877.349 7  77059127.993 7  22501184.973 0  22501189.223 0
  -2180818.488 7  52955763.157 7  20987271.451 0  20987275.398 0
   5443208.739 7   4499743.117 7  23451134.756 0  23451137.736 0
  -9455138.642 8  -6777548.322 7  22166359.411 0  22166361.186 0
 88  3  2  8 56 59.0800000  0  4  3 13 11  9
  -8512196.279 7  77022256.110 7  22492180.071 0  22492184.756 0
  -2155800.446 7  52975257.735 7  20992032.750 0  20992034.950 0
   5509560.379 7   4551445.702 7  23463761.044 0  23463764.253 0
  -9348426.302 7  -6694395.858 7  22186664.743 0  22186668.867 0
 88  3  2  8 57 29.0800000  0  4  3 13 11  9
  -8559319.156 7  76985536.964 7  22483212.756 0  22483217.973 0
  -2130608.670 8  52994887.699 7  20996826.501 0  20996829.160 0
   5575886.538 8   4603128.445 7  23476382.506 0  23476386.408 0
  -9241377.019 7  -6610980.848 7  22207036.201 0  22207038.750 0
 88  3  2  8 57 59.0800000  0  4  3 13 11  9
  -8606246.775 8  76948970.020 6  22474283.707 0  22474286.655 0
  -2105243.902 7  53014652.461 7  21001652.477 0  21001655.865 0
   5642186.653 8   4654790.914 6  23488998.710 0  23489002.487 0
  -9133994.153 8  -6527305.916 7  22227469.628 0  22227472.829 0
 88  3  2  8 58 29.0800000  0  4  3 13 11  9
  -8652979.123 7  76912555.207 6  22465389.930 0  22465395.553 0
  -2079706.792 8  53034551.502 7  21006511.794 0  21006516.369 0
   5708460.535 7   4706432.912 7  23501610.442 0  23501613.979 0
  -9026280.658 8  -6443373.336 7  22247966.322 0  22247970.117 0
 88  3  2  8 58 59.0800000  0  4  3 13 11  9
  -8699517.180 7  76876291.801 6  22456533.734 0  22456538.047 0
  -2054000.323 8  53054582.527 7  21011403.706 0  21011407.723 0
   5774707.518 7   4758053.935 7  23514217.012 0  23514220.864 0
  -8918240.068 8  -6359185.889 7  22268526.623 0  22268529.760 0
 88  3  2  8 59 29.0800000  0  4  3 13 11  9
  -8745861.524 8  76840179.328 6  22447715.802 0  22447720.024 0
  -2028125.018 8  53074745.097 7  21016328.043 0  21016331.746 0
   5840927.190 7   4809653.674 8  23526817.887 0  23526822.655 0
  -8809875.657 7  -6274746.103 7  22289147.475 0  22289151.084 0
 88  3  2  8 59 59.0800000  0  4  3 13 11  9
  -8792012.447 7  76804217.570 7  22438932.492 0  22438937.844 0
  -2002082.962 7  53095037.611 7  21021283.574 0  21021287.507 0
   5907118.663 7   4861231.447 8  23539413.863 0  23539417.799 0
  -8701190.766 7  -6190056.601 7  22309829.785 0  22309833.262 0
 88  3  2  9  0 29.0800000  0  4  3 13 11  9
  -8837970.924 7  76768405.782 7  22430187.021 0  22430192.294 0
  -1975875.319 8  53115459.149 7  21026270.728 0  21026273.458 0
   5973281.514 7   4912786.917 7  23552004.919 0  23552008.554 0
  -8592189.156 8  -6105120.315 7  22330571.571 0  22330575.749 0
 88  3  2  9  0 59.0800000  0  4  3 13 11  9
  -8883738.075 7  76732743.074 7  22421477.768 0  22421482.562 0
  -1949503.685 7  53136008.474 7  21031288.820 0  21031292.337 0
   6039415.078 7   4964319.573 8  23564589.532 0  23564592.525 0
  -8482873.893 7  -6019939.598 7  22351373.665 0  22351377.943 0
 88  3  2  9  1 29.0800000  0  4  3 13 11  9
  -8929315.104 7  76697228.514 7  22412804.631 0  22412809.446 0
  -1922969.316 8  53156684.606 7  21036337.962 0  21036342.180 0
   6105518.902 6   5015829.059 7  23577168.152 0  23577172.684 0
  -8373248.568 7  -5934517.288 7  22372235.082 0  22372238.510 0
 88  3  2  9  1 59.0800000  0  4  3 13 11  9
  -8974702.193 8  76661861.969 6  22404168.626 0  22404173.026 0
  -1896274.386 7  53177485.856 6  21041417.611 0  21041422.271 0
   6171592.459 7   5067314.945 7  23589740.725 0  23589745.942 0
  -8263316.638 7  -5848856.065 6  22393154.811 0  22393157.766 0
 88  3  2  9  2 29.0800000  0  4  3 13 11  9
  -9019899.988 7  76626642.918 7  22395566.670 0  22395570.047 0
  -1869419.623 7  53198411.645 7  21046528.540 0  21046531.685 0
   6237635.436 5   5118776.979 7  23602307.224 0  23602312.660 0
  -8153081.683 8  -5762958.710 6  22414131.587 0  22414134.842 0
 88  3  2  9  2 59.0800000  0  4  3 13 11  9
  -9064909.138 7  76591570.859 7  22387003.419 0  22387007.069 0
  -1842406.381 8  53219460.933 7  21051669.003 0  21051672.391 0
   6303647.393 5   5170214.811 8  23614869.493 0  23614874.969 0
  -8042546.377 7  -5676827.311 8  22435165.212 0  22435169.401 0
 88  3  2  9  3 29.0800000  0  4  3 13 11  9
  -9109730.494 6  76556645.135 7  22378472.688 0  22378478.111 0
  -1815236.859 8  53240631.982 7  21056838.714 0  21056842.589 0
   6369627.150 5   5221627.557 7  23627424.603 0  23627430.137 0
  -7931715.076 7  -5590465.283 7  22456256.598 0  22456260.107 0
 88  3  2  9  3 59.0800000  0  4  3 13 11  9
  -9154364.450 7  76521865.442 6  22369979.659 0  22369983.889 0
  -1787912.252 7  53261923.894 7  21062038.017 0  21062042.664 0
   6435574.742 6   5273015.276 7  23639973.210 0  23639980.230 0
  -7820590.559 7  -5503874.781 7  22477402.921 0  22477406.110 0
 88  3  2  9  4 29.0800000  0  4  3 13 11  9
  -9198812.662 8  76487230.468 7  22361521.926 0  22361525.869 0
  -1760434.157 7  53283335.397 7  21067267.856 0  21067271.987 0
   6501489.370 6   5324377.308 8  23652517.938 0  23652522.107 0
  -7709176.831 7  -5417058.898 7  22498603.730 0  22498606.982 0
 88  3  2  9  4 59.0800000  0  4  3 13 11  9
  -9243075.882 7  76452739.690 7  22353098.692 0  22353102.462 0
  -1732803.663 8  53304865.653 7  21072525.339 0  21072530.028 0
   6567370.721 7   5375713.431 8  23665055.017 0  23665060.691 0
  -7597476.916 8  -5330020.020 7  22519859.989 0  22519863.649 0
 88  3  2  9  5 29.0800000  0  4  3 13 11  9
  -9287154.489 8  76418392.718 6  22344709.628 0  22344714.743 0
  -1705022.385 7  53326513.408 7  21077812.357 0  21077816.402 0
   6633218.475 7   5427023.364 7  23677584.893 0  23677589.072 0
  -7485494.349 7  -5242760.895 7  22541168.668 0  22541172.248 0
 88  3  2  9  5 59.0800000  0  4  3 13 11  9
  -9331048.704 7  76384189.453 7  22336358.240 0  22336361.925 0
  -1677091.883 8  53348277.426 7  21083127.277 0  21083131.753 0
   6699032.086 7   5478306.692 7  23690109.055 0  23690114.480 0
  -7373232.616 7  -5155284.252 7  22562531.673 0  22562535.096 0
 88  3  2  9  6 29.0800000  0  4  3 13 11  9
  -9374759.415 8  76350129.183 6  22328039.305 0  22328043.462 0
  -1649012.585 8  53370157.410 7  21088470.560 0  21088474.434 0
   6764811.621 7   5529563.470 7  23702626.838 0  23702631.921 0
  -7260694.459 8  -5067592.200 7  22583947.008 0  22583950.827 0
 88  3  2  9  6 59.0800000  0  4  3 13 11  9
  -9418287.489 7  76316211.206 7  22319756.552 0  22319761.452 0
  -1620786.248 7  53392151.955 7  21093841.859 0  21093845.676 0
   6830556.705 7   5580793.405 7  23715137.945 0  23715142.047 0
  -7147883.524 7  -4979687.581 7  22605414.281 0  22605418.587 0
 88  3  2  9  7 29.0800000  0  4  3 13 11  9
  -9461633.311 7  76282435.293 7  22311509.536 0  22311512.634 0
  -1592414.357 8  53414259.939 7  21099240.860 0  21099244.020 0
   6896266.955 8   5631996.226 6  23727642.397 0  23727645.919 0
  -7034803.327 7  -4891573.152 7  22626933.213 0  22626936.247 0
 88  3  2  9  7 59.0800000  0  4  3 13 11  9
  -9504797.647 7  76248800.753 6  22303293.418 0  22303296.832 0
  -1563897.929 7  53436480.535 6  21104667.363 0  21104670.838 0
   6961942.076 8   5683171.666 6  23740139.741 0  23740144.098 0
  -6921457.048 7  -4803251.400 7  22648501.656 0  22648505.183 0
 88  3  2  9  8 29.0800000  0  4  3 13 11  9
  -9547781.546 7  76215306.858 7  22295114.336 0  22295119.444 0
  -1535238.792 8  53458812.326 7  21110120.883 0  21110124.257 0
   7027581.394 7   5734319.226 6  23752630.836 0  23752633.729 0
  -6807848.415 8  -4714725.196 7  22670121.362 0  22670124.931 0
 88  3  2  9  8 59.0800000  0  4  3 13 11  9
  -9590585.480 7  76181953.151 7  22286969.887 0  22286972.942 0
  -1506438.112 8  53481254.423 7  21115601.734 0  21115604.664 0
   7093184.865 8   5785438.838 7  23765114.422 0  23765118.521 0
  -6693980.717 7  -4625997.146 7  22691789.285 0  22691792.749 0
 88  3  2  9  9 29.0800000  0  4  3 13 11  9
  -9633210.324 7  76148739.006 7  22278858.229 0  22278861.677 0
  -1477496.746 7  53503806.138 7  21121108.684 0  21121112.802 0
   7158752.164 8   5836530.264 7  23777591.440 0  23777595.629 0
  -6579856.791 7  -4537069.411 7  22713506.155 0  22713510.328 0
 88  3  2  9  9 59.0800000  0  4  3 13 11  9
  -9675656.366 7  76115664.191 7  22270780.204 0  22270785.033 0
  -1448416.335 7  53526466.197 7  21126642.794 0  21126646.367 0
   7224283.145 8   5887593.374 7  23790062.054 0  23790065.350 0
  -6465480.661 7  -4447945.171 7  22735271.768 0  22735274.520 0
 88  3  2  9 10 29.0800000  0  4  3 13 11  9
  -9717924.972 7  76082727.645 7  22262738.008 0  22262741.450 0
  -1419198.703 8  53549233.189 7  21132202.516 0  21132205.803 0
   7289776.902 7   5938627.468 7  23802524.577 0  23802527.912 0
  -6350855.907 7  -4358627.204 7  22757083.934 0  22757086.728 0
 88  3  2  9 10 59.0800000  0  4  3 13 11  9
  -9760016.835 7  76049928.830 7  22254728.396 0  22254731.264 0
  -1389844.348 8  53572106.714 7  21137789.225 0  21137792.757 0
   7355233.090 6   5989632.275 8  23814980.183 0  23814984.771 0
  -6235985.933 7  -4269118.145 8  22778943.519 0  22778946.741 0
 88  3  2  9 11 29.0800000  0  4  3 13 11  9
  -9801932.611 8  76017267.195 7  22246751.421 0  22246756.424 0
  -1360354.885 7  53595085.518 7  21143400.088 0  21143403.348 0
   7420651.578 6   6040607.702 7  23827428.100 0  23827433.486 0
  -6120873.879 7  -4179420.453 7  22800847.705 0  22800852.040 0
 88  3  2  9 11 59.0800000  0  4  3 13 11  9
  -9843672.433 7  75984742.713 7  22238808.138 0  22238812.353 0
  -1330730.840 7  53618169.195 7  21149038.111 0  21149041.028 0
   7486032.510 6   6091553.845 7  23839869.862 0  23839875.615 0
  -6005523.142 7  -4089536.779 7  22822798.908 0  22822801.963 0
 88  3  2  9 12 29.0800000  0  4  3 13 11  9
  -9885237.887 7  75952354.064 7  22230897.387 0  22230901.760 0
  -1300974.985 8  53641355.578 6  21154699.514 0  21154702.659 0
   7551375.374 6   6142470.336 7  23852304.878 0  23852309.498 0
  -5889937.422 7  -3999469.998 7  22844794.041 0  22844797.610 0
 88  3  2  9 12 59.0800000  0  4  3 13 11  9
  -9926629.748 7  75920100.715 7  22223023.098 0  22223025.824 0
  -1271088.313 8  53664643.895 7  21160387.275 0  21160390.234 0
   7616679.437 7   6193356.597 7  23864731.542 0  23864736.512 0
  -5774120.220 7  -3909222.830 7  22866832.990 0  22866835.912 0
 88  3  2  9 13 29.0800000  0  4  3 13 11  9
  -9967848.840 7  75887981.949 7  22215178.542 0  22215181.968 0
  -1241071.777 7  53688033.406 7  21166100.050 0  21166102.307 0
   7681944.457 7   6244212.452 8  23877151.024 0  23877155.889 0
  -5658075.271 8  -3818798.196 7  22888915.592 0  22888919.361 0
 88  3  2  9 13 59.0800000  0  4  3 13 11  9
 -10008895.489 8  75855997.590 7  22207367.196 0  22207370.653 0
  -1210926.281 8  53711523.416 7  21171835.574 0  21171838.577 0
   7747170.980 6   6295038.313 7  23889562.406 0  23889567.160 0
  -5541805.232 7  -3728198.163 7  22911040.843 0  22911044.822 0
 88  3  2  9 14 29.0800000  0  4  3 13 11  9
 -10049769.261 7  75824147.893 7  22199590.288 0  22199594.223 0
  -1180652.308 8  53735113.516 7  21177596.599 0  21177600.259 0
   7812359.038 6   6345834.194 8  23901967.724 0  23901972.944 0
  -5425313.211 7  -3637425.189 8  22933208.036 0  22933212.769 0
 88  3  2  9 14 59.0800000  0  4  3 13 11  9
 -10090471.852 7  75792431.631 7  22191844.322 0  22191847.570 0
  -1150251.560 8  53758802.415 7  21183381.433 0  21183384.563 0
   7877508.133 7   6396599.705 7  23914366.082 0  23914369.622 0
  -5308602.826 7  -3546482.048 6  22955418.042 0  22955421.900 0
 88  3  2  9 15 29.0800000  0  4  3 13 11  9
 -10131003.511 7  75760848.538 7  22184130.578 0  22184134.349 0
  -1119725.215 8  53782589.183 7  21189189.993 0  21189194.868 0
   7942618.170 7   6447334.802 7  23926755.871 0  23926760.843 0
  -5191677.422 7  -3455371.354 7  22977668.530 0  22977672.214 0
 88  3  2  9 15 59.0800000  0  4  3 13 11  9
 -10171366.432 7  75729396.929 7  22176451.587 0  22176454.643 0
  -1089075.909 8  53806471.749 7  21195023.765 0  21195026.666 0
   8007688.356 7   6498038.840 7  23939138.874 0  23939143.646 0
  -5074541.405 7  -3364096.523 7  22999958.799 0  22999961.697 0
 88  3  2  9 16 29.0800000  0  4  3 13 11  9
 -10211560.527 7  75698076.881 7  22168800.621 0  22168805.499 0
  -1058303.581 7  53830450.186 7  21200878.771 0  21200882.202 0
   8072718.756 8   6548711.881 7  23951513.435 0  23951517.606 0
  -4957197.292 7  -3272659.572 7  23022288.169 0  23022292.809 0
 88  3  2  9 16 59.0800000  0  4  3 13 11  9
 -10251586.756 7  75666887.622 7  22161185.770 0  22161188.438 0
  -1027409.347 7  53854523.623 7  21206758.018 0  21206761.522 0
   8137709.514 8   6599354.028 7  23963881.166 0  23963884.685 0
  -4839648.488 7  -3181063.120 7  23044657.211 0  23044660.849 0
 88  3  2  9 17 29.0800000  0  4  3 13 11  9
 -10291444.797 7  75635829.434 7  22153600.397 0  22153603.822 0
   -996394.473 8  53878691.052 7  21212659.874 0  21212663.576 0
   8202660.697 7   6649965.342 7  23976241.074 0  23976245.395 0
  -4721898.247 7  -3089309.688 7  23067065.228 0  23067067.480 0
 88  3  2  9 17 59.0800000  0  4  3 13 11  9
 -10331134.976 8  75604902.076 7  22146047.017 0  22146051.187 0
   -965258.978 8  53902952.487 7  21218585.511 0  21218587.783 0
   8267572.216 7   6700545.740 7  23988592.568 0  23988596.223 0
  -4603949.669 7  -2997401.718 7  23089509.110 0  23089512.465 0
 88  3  2  9 18 29.0800000  0  4  3 13 11  9
 -10370658.799 7  75574104.301 7  22138526.493 0  22138528.831 0
   -934004.943 8  53927306.278 7  21224531.925 0  21224534.683 0
   8332443.922 7   6751095.116 7  24000938.048 0  24000942.296 0
  -4485806.496 8  -2905342.096 7  23111991.123 0  23111995.125 0
 88  3  2  9 18 59.0800000  0  4  3 13 11  9
 -10410016.962 7  75543435.628 7  22131036.002 0  22131041.083 0
   -902633.760 7  53951751.352 6  21230501.977 0  21230505.737 0
   8397275.345 7   6801613.112 6  24013275.121 0  24013278.512 0
  -4367472.182 7  -2813133.551 7  23134509.904 0  23134512.794 0
 88  3  2  9 19 29.0800000  0  4  3 13 11  9
 -10449211.049 7  75512894.811 7  22123578.066 0  22123581.679 0
   -871146.670 7  53976286.760 7  21236493.294 0  21236497.068 0
   8462066.254 7   6852099.543 6  24025604.696 0  24025607.329 0
  -4248950.459 7  -2720778.973 7  23157063.892 0  23157067.279 0
 88  3  2  9 19 59.0800000  0  4  3 13 11  9
 -10488241.505 8  75482481.495 7  22116150.472 0  22116154.816 0
   -839544.987 7  54000911.447 7  21242507.476 0  21242510.607 0
   8526816.486 7   6902554.294 6  24037925.125 0  24037929.125 0
  -4130244.793 7  -2628281.060 7  23179651.020 0  23179656.028 0
 88  3  2  9 20 29.0800000  0  4  3 13 11  9
 -10527108.626 7  75452195.467 7  22108755.340 0  22108757.744 0
   -807829.253 7  54025625.010 7  21248542.492 0  21248546.023 0
   8591526.360 7   6952977.604 6  24050239.191 0  24050243.984 0
  -4011358.382 7  -2535642.311 7  23202275.935 0  23202279.541 0
 88  3  2  9 20 59.0800000  0  4  3 13 11  9
 -10565813.150 7  75422036.102 7  22101388.803 0  22101393.532 0
   -776000.434 7  54050426.688 7  21254599.460 0  21254603.034 0
   8656195.395 6   7003369.083 6  24062545.346 0  24062549.389 0
  -3892294.302 7  -2442865.110 7  23224933.172 0  23224935.701 0
 88  3  2  9 21 29.0800000  0  4  3 13 11  9
 -10604356.064 7  75392002.713 7  22094055.807 0  22094058.313 0
   -744060.355 7  54075315.065 7  21260676.602 0  21260681.350 0
   8720823.537 6   7053728.672 6  24074843.080 0  24074846.621 0
  -3773057.003 7  -2349952.933 7  23247622.901 0  23247626.516 0
 88  3  2  9 21 59.0800000  0  4  3 13 11  9
 -10642738.206 7  75362094.557 7  22086750.672 0  22086755.273 0
   -712010.303 7  54100289.125 7  21266776.582 0  21266778.626 0
   8785410.811 6   7104056.388 6  24087134.777 0  24087138.360 0
  -3653648.589 7  -2256907.440 7  23270345.254 0  23270350.154 0
 88  3  2  9 22 29.0800000  0  4  3 13 11  9
 -10680960.657 7  75332310.862 7  22079476.080 0  22079482.375 0
   -679851.097 8  54125348.255 7  21272895.536 0  21272898.839 0
   8849956.199 6   7154351.472 7  24099415.480 0  24099421.550 0
  -3534073.909 7  -2163732.364 7  23293099.689 0  23293103.656 0
 88  3  2  9 22 59.0800000  0  4  3 13 11  9
 -10719023.942 7  75302651.185 7  22072236.129 0  22072237.251 0
   -647583.919 8  54150491.519 7  21279035.612 0  21279040.016 0
   8914460.197 7   7204614.313 8  24111692.778 0  24111695.878 0
  -3414336.108 7  -2070430.183 7  23315885.193 0  23315888.347 0
 88  3  2  9 23 29.0800000  0  4  3 13 11  9
 -10756928.469 7  75273115.191 7  22065019.912 0  22065026.508 0
   -615209.214 8  54175718.559 7  21285197.178 0  21285200.293 0
   8978923.354 7   7254845.335 8  24123957.941 0  24123962.723 0
  -3294437.569 7  -1977002.728 7  23338700.702 0  23338705.038 0
 88  3  2  9 23 59.0800000  0  4  3 13 11  9
 -10794675.385 7  75243702.051 7  22057839.402 0  22057840.996 0
   -582728.264 8  54201028.379 7  21291377.376 0  21291381.408 0
   9043345.495 7   7305044.376 7  24136217.828 0  24136221.952 0
  -3174382.537 8  -1883453.352 7  23361547.214 0  23361551.352 0
 88  3  2  9 24 29.0800000  0  4  3 13 12  9
 -10832265.282 7  75214411.228 7  22050684.388 0  22050687.852 0
   -550141.966 8  54226420.314 7  21297578.804 0  21297581.504 0
         -.494 8         -.124 7  21068491.970 0          .000 0
  -3054174.187 7  -1789784.504 7  23384421.309 0  23384425.524 0
 88  3  2  9 24 59.0800000  0  4  3 13 12  9
 -10869699.682 7  75185241.601 7  22043561.982 0  22043565.629 0
   -517453.126 7  54251892.130 7  21303799.068 0  21303802.856 0
     49541.622 8 120245736.393 7  21077950.279 0  21077955.066 0
  -2933816.430 7  -1695999.232 7  23407324.310 0  23407328.093 0
 88  3  2  9 25 29.0800000  0  4  3 13 12  9
 -10906978.539 7  75156193.149 6  22036468.513 0  22036471.120 0
   -484661.225 7  54277444.261 7  21310038.881 0  21310042.743 0
     99664.311 8 120284793.008 7  21087488.678 0  21087493.088 0
  -2813312.029 7  -1602099.681 6  23430257.064 0  23430260.060 0
 88  3  2  9 25 59.0800000  0  4  3 13 12  9
 -10944102.078 7  75127265.743 7  22029403.464 0  22029407.358 0
   -451767.329 8  54303075.869 7  21316298.437 0  21316302.707 0
    150365.693 8 120324300.553 7  21097137.329 0  21097141.958 0
  -2692664.732 8  -1508088.797 6  23453215.104 0  23453218.806 0
 88  3  2  9 26 29.0800000  0  4  3 13 12  9
 -10981071.532 7  75098458.387 7  22022368.107 0  22022371.960 0
   -418772.318 7  54328786.272 7  21322577.252 0  21322581.785 0
    201643.571 8 120364257.316 7  21106895.084 0  21106899.396 0
  -2571877.083 7  -1413968.527 8  23476200.379 0  23476203.761 0
 88  3  2  9 26 59.0800000  0  4  3 13 12  9
 -11017887.365 7  75069770.755 7  22015362.181 0  22015365.861 0
   -385676.848 6  54354574.947 7  21328874.834 0  21328878.015 0
    253496.340 6 120404662.040 7  21116762.442 0  21116766.087 0
  -2450953.195 7  -1319742.118 7  23499210.274 0  23499214.323 0
 88  3  2  9 27 29.0800000  0  4  3 13 12  9
 -11054550.334 7  75041202.214 7  22008384.904 0  22008388.641 0
   -352482.370 8  54380440.778 7  21335191.856 0  21335195.902 0
    305921.926 8 120445513.137 7  21126738.138 0  21126742.606 0
  -2329895.923 7  -1225411.778 7  23522246.933 0  23522250.905 0
 88  3  2  9 27 59.0800000  0  4  3 13 12  9
 -11091061.469 7  75012751.991 7  22001438.282 0  22001441.105 0
   -319190.210 8  54406382.718 7  21341527.700 0  21341531.313 0
    358917.589 8 120486808.433 7  21136823.098 0  21136827.887 0
  -2208708.429 7  -1130979.987 7  23545307.562 0  23545312.379 0
 88  3  2  9 28 29.0800000  0  4  3 13 12  9
 -11127421.547 7  74984419.477 7  21994519.200 0  21994521.946 0
   -285801.533 8  54432399.878 7  21347880.438 0  21347885.510 0
    412481.463 8 120528546.489 7  21147015.910 0  21147020.428 0
  -2087395.581 7  -1036450.489 7  23568393.344 0  23568397.416 0
 88  3  2  9 28 59.0800000  0  4  3 13 12  9
 -11163631.660 7  74956203.810 6  21987629.307 0  21987631.317 0
   -252317.382 8  54458491.421 8  21354252.626 0  21354256.257 0
    466610.687 8 120570725.083 7  21157316.250 0  21157320.031 0
  -1965960.634 7   -941825.860 7  23591502.591 0  23591505.389 0
 88  3  2  9 29 29.0800000  0  4  3 13 12  9
 -11199692.398 8  74928104.532 7  21980766.013 0  21980768.971 0
   -218737.790 8  54484657.337 7  21360642.332 0  21360646.862 0
    521303.587 8 120613342.913 6  21167723.996 0  21167728.459 0
  -1844405.673 7   -847107.708 7  23614632.513 0  23614637.065 0
 88  3  2  9 29 59.0800000  0  4  3 13 12  9
 -11235604.520 8  74900121.075 7  21973931.686 0  21973937.017 0
   -185064.694 7  54510896.117 7  21367050.466 0  21367054.092 0
    576558.034 8 120656398.292 7  21178238.522 0  21178243.008 0
  -1722735.494 7   -752299.767 7  23637786.245 0  23637790.144 0
 88  3  2  9 30 29.0800000  0  4  3 13 12  9
 -11271368.777 7  74872252.826 6  21967126.917 0  21967129.329 0
   -151298.539 8  54537207.411 7  21373475.973 0  21373479.791 0
    632371.587 8 120699889.349 7  21188859.815 0  21188863.188 0
  -1600953.038 7   -657404.352 7  23660960.451 0  23660964.187 0
 88  3  2  9 30 59.0800000  0  4  3 13 12  9
 -11306985.190 7  74844499.788 7  21960349.086 0  21960351.813 0
   -117440.064 7  54563590.641 7  21379918.256 0  21379923.517 0
    688742.351 7 120743814.596 7  21199586.613 0  21199592.054 0
  -1479060.616 8   -562423.241 7  23684155.623 0  23684158.381 0
 88  3  2  9 31 29.0800000  0  4  3 13 12  9
 -11342455.289 7  74816860.759 7  21953599.250 0  21953603.481 0
    -83491.102 8  54590044.385 7  21386378.601 0  21386382.436 0
    745667.779 7 120788172.048 7  21210419.828 0  21210423.386 0
  -1357062.602 7   -467359.848 7  23707371.343 0  23707375.045 0
 88  3  2  9 31 59.0800000  0  4  3 13 12  9
 -11377779.725 7  74789335.243 6  21946877.636 0  21946879.334 0
    -49452.098 7  54616568.291 7  21392856.990 0  21392860.366 0
    803145.396 7 120832959.771 7  21221357.020 0  21221361.270 0
  -1234962.274 7   -372216.711 6  23730607.088 0  23730610.083 0
 88  3  2  9 32 29.0800000  0  4  3 13 12  9
 -11412959.294 8  74761922.581 7  21940182.577 0  21940186.350 0
    -15323.678 8  54643161.865 7  21399351.334 0  21399354.484 0
    861173.352 8 120878176.334 7  21232399.661 0  21232404.287 0
  -1112763.170 7   -276996.618 6  23753860.010 0  23753863.150 0
 88  3  2  9 32 59.0800000  0  4  3 13 12  9
 -11447994.248 8  74734622.655 7  21933515.683 0  21933520.156 0
     18892.919 7  54669824.148 7  21405862.749 0  21405865.504 0
    919749.759 7 120923820.263 6  21243546.943 0  21243550.289 0
   -990468.171 7   -181701.803 7  23777132.864 0  23777134.978 0
 88  3  2  9 33 29.0800000  0  4  3 13 12  9
 -11482885.282 7  74707434.829 6  21926876.233 0  21926878.629 0
     53197.423 8  54696554.917 7  21412389.931 0  21412393.543 0
    978872.254 7 120969889.708 7  21254796.793 0  21254800.689 0
   -868080.362 7    -86334.657 6  23800422.365 0  23800425.489 0
 88  3  2  9 33 59.0800000  0  4  3 13 12  9
 -11517633.519 7  74680358.288 7  21920263.567 0  21920267.064 0
     87588.583 7  54723353.238 7  21418934.641 0  21418938.952 0
   1038537.906 8 121016382.412 7  21266151.042 0  21266155.196 0
   -745603.729 7      9101.683 7  23823727.099 0  23823731.331 0
 88  3  2  9 34 29.0800000  0  4  3 13 12  9
 -11552238.942 7  74653393.034 7  21913678.545 0  21913681.886 0
    122066.279 7  54750218.960 7  21425495.604 0  21425499.194 0
   1098744.279 8 121063296.447 7  21277608.146 0  21277612.198 0
   -623040.816 7    104605.280 7  23847050.230 0  23847054.690 0
 88  3  2  9 34 59.0800000  0  4  3 13 12  9
 -11586702.655 8  74626538.209 7  21907120.543 0  21907124.328 0
    156629.202 7  54777151.122 7  21432072.342 0  21432076.008 0
   1159489.663 8 121110630.474 7  21289166.972 0  21289171.815 0
   -500395.259 7    200173.246 7  23870389.644 0  23870393.870 0
 88  3  2  9 35 29.0800000  0  4  3 13 12  9
 -11621025.361 7  74599793.245 7  21900588.323 0  21900591.208 0
    191276.307 8  54804148.864 7  21438665.529 0  21438669.733 0
   1220771.542 8 121158382.563 7  21300829.167 0  21300832.807 0
   -377670.577 8    295802.868 7  23893742.887 0  23893746.862 0
 88  3  2  9 35 59.0800000  0  4  3 13 12  9
 -11655207.509 8  74573157.821 7  21894084.564 0  21894088.167 0
    226006.623 8  54831211.434 7  21445274.322 0  21445278.546 0
   1282586.936 8 121206550.377 7  21312591.981 0  21312596.589 0
   -254869.922 6    391491.699 7  23917111.950 0  23917115.615 0
 88  3  2  9 36 29.0800000  0  4  3 13 12  9
 -11689249.883 7  74546631.301 6  21887606.595 0  21887609.819 0
    260819.447 8  54858338.297 7  21451898.954 0  21451903.145 0
   1344934.164 8 121255132.603 7  21324456.223 0  21324460.970 0
   -131996.723 6    487237.039 7  23940492.478 0  23940497.170 0
 88  3  2  9 36 59.0800000  0  4  3 13 12  9
 -11723153.567 7  74520212.852 6  21881153.978 0  21881157.349 0
    295714.104 7  54885528.948 7  21458539.385 0  21458542.688 0
   1407809.944 8 121304126.692 7  21336420.960 0  21336425.375 0
     -9054.419 7    583036.232 7  23963887.812 0  23963892.262 0
 88  3  2  9 37 29.0800000  0  4  3 13 12  9
 -11756919.614 7  74493901.685 7  21874729.192 0  21874731.777 0
    330689.374 7  54912782.405 7  21465194.868 0  21465199.746 0
   1471211.108 8 121353530.174 7  21348486.637 0  21348490.289 0
    113953.290 7    678886.389 7  23987295.848 0  23987299.467 0
 88  3  2  9 37 59.0800000  0  4  3 13 12  9
 -11790548.262 8  74467697.549 7  21868329.477 0  21868333.076 0
    365745.135 7  54940098.584 6  21471866.306 0  21471869.809 0
   1535136.238 8 121403341.942 7  21360650.031 0  21360654.878 0
    237023.626 7    774785.363 7  24010715.348 0  24010719.128 0
 88  3  2  9 38 29.0800000  0  4  3 13 12  9
 -11824040.223 7  74441599.939 6  21861956.966 0  21861960.105 0
    400880.286 7  54967476.611 7  21478552.263 0  21478556.466 0
   1599582.316 7 121453559.631 7  21372914.455 0  21372918.793 0
    360153.210 7    870730.514 8  24034146.347 0  24034150.178 0
 88  3  2  9 38 59.0800000  0  4  3 13 12  9
 -11857396.084 7  74415608.356 7  21855608.818 0  21855612.319 0
    436093.886 8  54994915.777 7  21485252.514 0  21485256.197 0
   1664546.897 7 121504181.368 8  21385276.713 0  21385280.907 0
    483338.757 7    966719.270 7  24057587.712 0  24057590.827 0
 88  3  2  9 39 29.0800000  0  4  3 13 12  9
 -11890616.824 8  74389722.098 7  21849287.588 0  21849290.803 0
    471384.796 8  55022415.185 7  21491968.826 0  21491972.440 0
   1730027.267 8 121555205.008 7  21397737.701 0  21397740.935 0
    606576.601 8   1062748.792 7  24081039.424 0  24081043.224 0
 88  3  2  9 39 59.0800000  0  4  3 13 12  9
 -11923702.950 7  74363940.717 7  21842991.059 0  21842994.840 0
    506752.967 8  55049974.795 7  21498698.722 0  21498703.442 0
   1796020.959 8 121606628.629 7  21410295.689 0  21410300.269 0
    729863.813 7   1158816.751 7  24104500.867 0  24104503.033 0
 88  3  2  9 40 29.0800000  0  4  3 13 12  9
 -11956655.072 7  74338263.754 7  21836720.438 0  21836724.354 0
    542197.530 7  55077593.925 7  21505443.560 0  21505448.130 0
   1862525.221 7 121658450.114 8  21422951.666 0  21422956.141 0
    853197.389 8   1254920.855 7  24127969.482 0  24127973.840 0
 88  3  2  9 40 59.0800000  0  4  3 13 12  9
 -11989473.805 7  74312690.712 7  21830475.749 0  21830478.648 0
    577717.680 8  55105271.955 7  21512202.472 0  21512207.235 0
   1929537.736 7 121710667.640 7  21435702.554 0  21435706.559 0
    976573.524 7   1351058.125 7  24151448.011 0  24151450.296 0
 88  3  2  9 41 29.0800000  0  4  3 13 12  9
 -12022159.708 7  74287221.184 7  21824255.344 0  21824259.585 0
    613312.822 8  55133008.428 7  21518976.559 0  21518979.773 0
   1997055.769 8 121763279.067 7  21448551.631 0  21448556.066 0
   1099989.639 7   1447226.530 7  24174932.704 0  24174935.681 0
 88  3  2  9 41 59.0800000  0  4  3 13 12  9
 -12054713.777 8  74261854.382 7  21818059.520 0  21818064.392 0
    648982.308 7  55160802.835 7  21525763.879 0  21525767.625 0
   2065076.620 8 121816282.319 7  21461495.738 0  21461499.380 0
   1223442.010 8   1543423.197 7  24198424.402 0  24198428.439 0
 88  3  2  9 42 29.0800000  0  4  3 13 12  9
 -12087136.101 7  74236590.244 7  21811891.071 0  21811894.437 0
    684725.657 7  55188654.784 7  21532565.395 0  21532569.645 0
   2133597.824 8 121869675.444 7  21474533.705 0  21474538.471 0
   1346927.643 7   1639645.805 6  24221924.463 0  24221925.898 0
 88  3  2  9 42 59.0800000  0  4  3 13 12  9
 -12119427.127 7  74211428.398 7  21805746.530 0  21805749.471 0
    720542.433 7  55216563.961 7  21539382.265 0  21539386.349 0
   2202616.408 8 121923456.133 7  21487667.826 0  21487672.385 0
   1470443.730 7   1735892.157 7  24245427.871 0  24245431.385 0
 88  3  2  9 43 29.0800000  0  4  3 13 12  9
 -12151587.632 7  74186368.286 7  21799624.873 0  21799630.716 0
    756431.609 7  55244529.561 7  21546210.927 0  21546214.365 0
   2272130.256 8 121977622.755 8  21500896.147 0  21500900.291 0
   1593986.709 7   1832159.409 7  24268935.493 0  24268941.388 0
 88  3  2  9 43 59.0800000  0  4  3 13 12  9
 -12183618.832 7  74161408.937 7  21793531.757 0  21793533.943 0
    792392.020 8  55272550.643 7  21553055.421 0  21553057.963 0
   2342136.006 7 122032172.665 7  21514216.115 0  21514221.770 0
   1717553.111 7   1928444.976 6  24292451.020 0  24292455.125 0
 88  3  2  9 44 29.0800000  0  4  3 13 12  9
 -12215521.149 7  74136549.983 6  21787459.869 0  21787462.691 0
    828423.863 7  55300627.405 7  21559911.168 0  21559913.915 0
   2412630.736 7 122087103.598 7  21527632.523 0  21527636.449 0
   1841139.517 7   2024746.081 6  24315967.536 0  24315972.099 0
 88  3  2  9 44 59.0800000  0  4  3 13 12  9
 -12247295.596 7  74111790.691 7  21781413.303 0  21781417.373 0
    864526.062 8  55328758.976 7  21566781.027 0  21566785.588 0
   2483611.797 8 122142413.500 7  21541139.763 0  21541143.852 0
   1964742.654 6   2121060.203 7  24339488.883 0  24339493.086 0
 88  3  2  9 45 29.0800000  0  4  3 13 12  9
 -12278942.504 7  74087130.781 7  21775392.150 0  21775393.946 0
    900697.506 8  55356944.516 7  21573663.867 0  21573667.651 0
   2555076.129 7 122198099.967 7  21554738.499 0  21554743.387 0
   2088359.186 6   2217384.765 8  24363013.046 0  24363016.591 0
 88  3  2  9 45 59.0800000  0  4  3 13 12  9
 -12310462.780 8  74062569.515 7  21769392.863 0  21769396.706 0
    936937.673 8  55385183.595 6  21580560.891 0  21580563.638 0
   2627021.104 8 122254160.952 7  21568429.545 0  21568434.520 0
   2211985.927 7   2313717.310 7  24386538.308 0  24386541.567 0
 88  3  2  9 46 29.0800000  0  4  3 13 12  9
 -12341856.898 7  74038106.576 7  21763418.703 0  21763422.560 0
    973246.626 7  55413476.294 7  21587469.311 0  21587474.047 0
   2699443.364 8 122310593.874 7  21582211.787 0  21582214.856 0
   2335620.102 8   2410055.634 7  24410065.036 0  24410069.001 0
 88  3  2  9 46 59.0800000  0  4  3 13 12  9
 -12373125.970 7  74013741.059 7  21757468.769 0  21757472.654 0
   1009623.270 7  55441821.713 6  21594391.577 0  21594395.874 0
   2772340.119 7 122367396.523 7  21596082.538 0  21596087.352 0
   2459257.987 7   2506396.858 7  24433592.152 0  24433595.603 0
 88  3  2  9 47 29.0800000  0  4  3 13 12  9
 -12404269.809 7  73989473.126 7  21751541.385 0  21751545.699 0
   1046066.721 7  55470219.200 7  21601326.931 0  21601330.210 0
   2845708.880 8 122424566.958 7  21610043.799 0  21610049.104 0
   2582896.691 7   2602738.720 7  24457120.631 0  24457124.525 0
 88  3  2  9 47 59.0800000  0  4  3 13 12  9
 -12435289.629 7  73965301.842 7  21745639.446 0  21745643.128 0
   1082576.449 8  55498668.328 7  21608274.359 0  21608277.986 0
   2919546.654 7 122482102.866 7  21624095.650 0  21624099.720 0
   2706532.957 7   2699078.679 7  24480647.582 0  24480651.035 0
 88  3  2  9 48 29.0800000  0  4  3 13 12  9
 -12466185.678 7  73941227.009 7  21739759.553 0  21739762.824 0
   1119151.967 7  55527168.730 7  21615233.895 0  21615238.628 0
   2993850.887 8 122540002.246 7  21638234.840 0  21638239.581 0
   2830163.823 7   2795414.442 7  24504174.120 0  24504176.409 0
 88  3  2  9 48 59.0800000  0  4  3 13 12  9
 -12496958.256 7  73917248.370 7  21733905.259 0  21733907.244 0
   1155793.416 8  55555720.497 7  21622206.799 0  21622211.039 0
   3068618.688 8 122598262.860 7  21652462.825 0  21652467.564 0
   2953786.202 6   2891743.563 6  24527698.489 0  24527702.486 0
 88  3  2  9 49 29.0800000  0  4  3 13 12  9
 -12527608.211 8  73893365.291 7  21728072.175 0  21728075.645 0
   1192499.775 8  55584322.850 7  21629192.204 0  21629196.443 0
   3143846.574 8 122656881.970 7  21666779.033 0  21666783.285 0
   3077396.820 7   2988063.525 7  24551221.365 0  24551224.649 0
 88  3  2  9 49 59.0800000  0  4  3 13 12  9
 -12558136.703 7  73869576.855 7  21722263.043 0  21722265.284 0
   1229270.536 8  55612975.382 7  21636189.013 0  21636193.607 0
   3219531.538 7 122715857.253 6  21681181.050 0  21681185.233 0
   3200992.092 7   3084371.556 7  24574740.399 0  24574742.756 0
 88  3  2  9 50 29.0800000  0  4  3 13 12  9
 -12588543.380 8  73845883.330 7  21716475.491 0  21716478.761 0
   1266105.963 7  55641678.299 7  21643198.547 0  21643202.658 0
   3295671.563 7 122775187.120 7  21695669.062 0  21695673.948 0
   3324569.505 7   3180665.640 7  24598255.187 0  24598259.948 0
 88  3  2  9 50 59.0800000  0  4  3 13 12  9
 -12618829.206 8  73822283.987 7  21710713.149 0  21710717.250 0
   1303004.735 7  55670430.577 7  21650220.838 0  21650224.436 0
   3372262.975 8 122834868.719 7  21710244.372 0  21710249.703 0
   3448125.747 8   3276943.236 7  24621767.868 0  24621772.641 0
 88  3  2  9 51 29.0800000  0  4  3 13 12  9
 -12648995.252 7  73798777.982 7  21704971.558 0  21704975.397 0
   1339965.944 7  55699231.515 7  21657254.517 0  21657257.045 0
   3449302.514 7 122894899.502 7  21724904.077 0  21724909.807 0
   3571657.124 7   3373201.479 7  24645274.678 0  24645278.005 0
 88  3  2  9 51 59.0800000  0  4  3 13 12  9
 -12679041.489 7  73775365.313 7  21699254.933 0  21699258.991 0
   1376989.419 8  55728080.969 7  21664299.245 0  21664303.750 0
   3526787.578 7 122955277.435 7  21739649.320 0  21739653.782 0
   3695161.325 7   3469438.527 6  24668776.644 0  24668780.885 0
 88  3  2  9 52 29.0800000  0  4  3 13 12  9
 -12708969.336 7  73752044.915 7  21693559.974 0  21693563.531 0
   1414073.802 7  55756977.886 6  21671355.603 0  21671360.026 0
   3604714.696 8 123015999.859 6  21754478.454 0  21754483.546 0
   3818634.359 7   3565651.271 7  24692273.992 0  24692276.861 0
 88  3  2  9 52 59.0800000  0  4  3 13 12  9
 -12738778.718 7  73728816.837 7  21687887.279 0  21687889.877 0
   1451219.538 8  55785922.599 7  21678424.291 0  21678429.613 0
   3683080.971 8 123077064.465 7  21769391.261 0  21769395.500 0
   3942073.305 7   3661837.457 7  24715763.184 0  24715766.937 0
 88  3  2  9 53 29.0800000  0  4  3 13 12  9
 -12768470.182 7  73705680.621 7  21682237.352 0  21682241.152 0
   1488426.910 8  55814915.356 7  21685505.446 0  21685510.405 0
   3761883.401 7 123138468.931 7  21784386.186 0  21784392.086 0
   4065475.246 6   3757994.819 7  24739246.176 0  24739248.934 0
 88  3  2  9 53 59.0800000  0  4  3 13 12  9
 -12798044.601 7  73682635.645 7  21676609.033 0  21676613.032 0
   1525694.314 7  55843954.899 7  21692597.759 0  21692601.065 0
   3841119.217 8 123200211.113 7  21799465.343 0  21799470.411 0
   4188837.077 6   3854120.905 7  24762720.131 0  24762724.635 0
 88  3  2  9 54 29.0800000  0  4  3 13 12  9
 -12827502.196 7  73659681.663 7  21671004.647 0  21671006.601 0
   1563021.562 8  55873041.064 7  21699700.415 0  21699704.119 0
   3920784.851 8 123262288.212 8  21814624.869 0  21814628.990 0
   4312155.627 6   3950213.297 6  24786187.303 0  24786190.757 0
 88  3  2  9 54 59.0800000  0  4  3 13 12  9
 -12856843.791 7  73636818.063 7  21665421.075 0  21665424.243 0
   1600408.407 8  55902173.669 6  21706814.701 0  21706818.327 0
   4000877.210 7 123324697.830 7  21829865.977 0  21829870.552 0
   4435427.972 7   4046269.656 6  24809645.324 0  24809648.342 0
 88  3  2  9 55 29.0800000  0  4  3 13 12  9
 -12886069.620 7  73614044.687 7  21659859.316 0  21659862.375 0
   1637854.347 7  55931352.323 6  21713940.335 0  21713944.437 0
   4081393.499 8 123387437.764 7  21845187.822 0  21845193.216 0
   4558651.085 7   4142287.707 7  24833093.574 0  24833097.219 0
 88  3  2  9 55 59.0800000  0  4  3 13 12  9
 -12915179.734 7  73591361.491 6  21654319.527 0  21654322.084 0
   1675359.676 8  55960577.242 7  21721076.959 0  21721081.701 0
   4162330.691 7 123450505.687 7  21860590.187 0  21860594.509 0
   4681822.039 7   4238265.076 6  24856532.002 0  24856536.496 0
 88  3  2  9 56 29.0800000  0  4  3 13 12  9
 -12944175.124 7  73568767.682 7  21648801.945 0  21648804.487 0
   1712922.876 8  55989847.266 7  21728225.364 0  21728228.589 0
   4243685.667 7 123513899.150 7  21876070.382 0  21876074.663 0
   4804937.574 7   4334199.272 6  24879960.952 0  24879964.227 0
 88  3  2  9 56 59.0800000  0  4  3 13 12  9
 -12973056.097 8  73546263.033 6  21643305.856 0  21643310.099 0
   1750544.071 8  56019162.493 7  21735385.147 0  21735389.723 0
   4325455.208 8 123577615.658 7  21891631.317 0  21891635.521 0
   4927994.572 8   4430087.843 7  24903377.939 0  24903381.326 0
 88  3  2  9 57 29.0800000  0  4  3 13 12  9
 -13001823.367 7  73523846.978 6  21637831.160 0  21637834.714 0
   1788223.073 7  56048522.748 7  21742555.483 0  21742558.440 0
   4407636.110 8 123641652.717 7  21907269.155 0  21907274.676 0
   5050990.251 7   4525928.646 7  24926783.571 0  24926786.271 0
 88  3  2  9 57 59.0800000  0  4  3 13 12  9
 -13030477.477 7  73501519.103 7  21632378.698 0  21632382.968 0
   1825959.672 7  56077927.892 7  21749735.336 0  21749739.685 0
   4490225.208 8 123706007.827 7  21922986.513 0  21922991.075 0
   5173921.449 7   4621719.189 7  24950176.438 0  24950179.107 0
 88  3  2  9 58 29.0800000  0  4  3 13 12  9
 -13059018.675 7  73479279.215 7  21626947.029 0  21626950.915 0
   1863753.319 8  56107377.488 6  21756927.865 0  21756931.555 0
   4573219.631 7 123770678.789 7  21938779.315 0  21938783.218 0
   5296785.305 7   4717457.231 7  24973556.170 0  24973559.875 0
 88  3  2  9 58 59.0800000  0  3  3 13 12
 -13087447.703 8  73457126.732 6  21621537.422 0  21621541.354 0
   1901603.092 8  56136870.813 7  21764130.343 0  21764133.724 0
   4656615.999 8 123835662.955 7  21954649.198 0  21954652.603 0
 88  3  2  9 59 29.0800000  0  3  3 13 12
 -13115765.310 7  73435061.065 6  21616149.324 0  21616152.453 0
   1939508.987 7  56166407.873 7  21771343.443 0  21771347.858 0
   4740410.062 7 123900957.021 7  21970593.936 0  21970598.533 0
 88  3  2  9 59 59.0800000  0  3  3 13 12
 -13143971.869 7  73413081.941 7  21610781.789 0  21610784.471 0
   1977470.504 7  56195988.275 7  21778567.040 0  21778571.228 0
   4824599.332 8 123966559.023 7  21986615.065 0  21986619.177 0
 88  3  2 10  0 29.0800000  0  3  3 13 12
 -13172067.899 8  73391188.937 7  21605435.129 0  21605439.504 0
   2015487.215 8  56225611.679 7  21785801.960 0  21785805.007 0
   4909181.214 8 124032466.976 6  22002710.406 0  22002715.442 0
 88  3  2 10  0 59.0800000  0  3  3 13 12
 -13200053.786 8  73369381.751 7  21600109.718 0  21600113.503 0
   2053559.017 8  56255278.031 7  21793047.074 0  21793050.405 0
   4994152.003 7 124098677.958 7  22018879.842 0  22018884.177 0
 88  3  2 10  1 29.0800000  0  3  3 13 12
 -13227929.864 7  73347660.133 7  21594806.387 0  21594807.971 0
   2091686.160 8  56284987.483 8  21800301.485 0  21800305.505 0
   5079508.246 8 124165189.306 7  22035122.604 0  22035127.168 0
 88  3  2 10  1 59.0800000  0  3  3 13 12
 -13255696.809 7  73326023.565 7  21589521.147 0  21589524.329 0
   2129867.708 7  56314739.331 7  21807567.901 0  21807572.248 0
   5165246.456 8 124231998.278 7  22051438.830 0  22051443.343 0
 88  3  2 10  2 29.0800000  0  3  3 13 12
 -13283354.764 7  73304471.917 7  21584256.977 0  21584261.751 0
   2168103.757 8  56344533.647 7  21814843.324 0  21814847.013 0
   5251363.654 7 124299102.571 8  22067825.436 0  22067831.236 0
 88  3  2 10  2 59.0800000  0  3  3 13 12
 -13310903.842 8  73283005.111 6  21579015.175 0  21579019.005 0
   2206394.028 7  56374370.212 7  21822130.376 0  21822134.038 0
   5337857.324 8 124366500.216 7  22084284.832 0  22084289.720 0
 88  3  2 10  3 29.0800000  0  3  3 13 12
 -13338344.710 7  73261622.612 6  21573794.238 0  21573797.065 0
   2244738.756 7  56404249.224 7  21829426.785 0  21829430.369 0
   5424724.099 7 124434188.595 7  22100815.539 0  22100819.932 0
 88  3  2 10  3 59.0800000  0  3  3 13 12
 -13365677.753 7  73240324.141 7  21568592.176 0  21568595.731 0
   2283136.856 8  56434169.817 7  21836733.604 0  21836737.383 0
   5511960.326 7 124502164.862 8  22117415.251 0  22117421.176 0
 88  3  2 10  4 29.0800000  0  3  3 13 12
 -13392903.139 7  73219109.557 7  21563410.772 0  21563415.058 0
   2321588.431 8  56464132.068 7  21844051.382 0  21844053.954 0
   5599562.698 7 124570426.438 8  22134085.907 0  22134091.088 0
 88  3  2 10  4 59.0800000  0  3  3 13 12
 -13420022.197 7  73197977.825 7  21558250.707 0  21558254.878 0
   2360093.316 7  56494135.876 7  21851377.764 0  21851381.364 0
   5687527.266 7 124638970.224 8  22150824.171 0  22150829.507 0
 88  3  2 10  5 29.0800000  0  3  3 13 12
 -13447035.462 7  73176928.545 7  21553110.800 0  21553113.498 0
   2398650.245 7  56524180.229 7  21858715.002 0  21858719.093 0
   5775850.696 7 124707793.660 8  22167632.439 0  22167636.824 0
 88  3  2 10  5 59.0800000  0  3  3 13 12
 -13473942.859 7  73155961.740 7  21547990.098 0  21547994.041 0
   2437260.153 7  56554265.866 7  21866062.795 0  21866067.060 0
   5864530.328 7 124776894.659 7  22184507.452 0  22184511.945 0
 88  3  2 10  6 29.0800000  0  3  3 13 12
 -13500744.469 7  73135077.391 6  21542889.456 0  21542893.068 0
   2475922.777 8  56584392.582 7  21873420.142 0  21873424.025 0
   5953562.800 7 124846270.585 7  22201449.322 0  22201454.980 0
 88  3  2 10  6 59.0800000  0  3  3 13 12
 -13527440.764 8  73114275.091 7  21537809.622 0  21537813.906 0
   2514637.452 8  56614559.855 6  21880786.379 0  21880791.599 0
   6042944.427 7 124915918.586 7  22218458.675 0  22218463.283 0
 88  3  2 10  7 29.0800000  0  3  3 13 12
 -13554032.052 7  73093554.605 7  21532749.174 0  21532752.401 0
   2553404.138 7  56644767.665 7  21888163.227 0  21888167.682 0
   6132672.255 7 124985836.371 7  22235533.033 0  22235538.268 0
 88  3  2 10  7 59.0800000  0  3  3 13 12
 -13580518.985 7  73072915.444 7  21527709.362 0  21527713.222 0
   2592222.965 7  56675016.111 7  21895550.366 0  21895554.499 0
   6222742.317 8 125056020.814 7  22252673.080 0  22252678.605 0
 88  3  2 10  8 29.0800000  0  3  3 13 12
 -13606901.859 7  73052357.362 7  21522688.352 0  21522692.954 0
   2631093.161 7  56705304.568 7  21902948.421 0  21902951.947 0
   6313151.559 7 125126469.555 8  22269876.985 0  22269881.857 0
 88  3  2 10  8 59.0800000  0  3  3 13 12
 -13633180.990 7  73031880.136 7  21517688.932 0  21517691.547 0
   2670015.593 8  56735633.733 7  21910354.438 0  21910358.413 0
   6403897.045 7 125197180.314 7  22287145.953 0  22287150.998 0
 88  3  2 10  9 29.0800000  0  3  3 13 12
 -13659356.636 7  73011483.527 7  21512705.988 0  21512709.770 0
   2708989.971 7  56766003.373 7  21917770.835 0  21917774.786 0
   6494975.219 7 125268150.314 7  22304476.587 0  22304481.338 0
 88  3  2 10  9 59.0800000  0  3  3 13 12
 -13685429.130 7  72991167.312 7  21507744.992 0  21507749.605 0
   2748015.294 7  56796412.713 7  21925197.222 0  21925201.101 0
   6586382.359 7 125339376.648 7  22321871.928 0  22321876.490 0
 88  3  2 10 10 29.0800000  0  3  3 13 12
 -13711398.413 8  72970931.520 7  21502803.607 0  21502807.496 0
   2787092.616 8  56826862.574 7  21932632.783 0  21932637.204 0
   6678115.993 8 125410857.389 7  22339327.381 0  22339333.262 0
 88  3  2 10 10 59.0800000  0  3  3 13 12
 -13737264.954 7  72950775.789 7  21497881.105 0  21497885.788 0
   2826221.590 7  56857352.680 7  21940079.552 0  21940082.820 0
   6770172.545 8 125482589.771 8  22356845.787 0  22356850.728 0
 88  3  2 10 11 29.0800000  0  3  3 13 12
 -13763029.461 7  72930699.563 7  21492978.806 0  21492981.600 0
   2865401.269 8  56887882.298 7  21947535.330 0  21947538.122 0
   6862547.893 7 125554570.558 7  22374424.128 0  22374428.897 0
 88  3  2 10 11 59.0800000  0  3  3 13 12
 -13788691.539 7  72910703.144 6  21488095.861 0  21488099.016 0
   2904632.480 7  56918452.071 7  21955000.159 0  21955003.595 0
   6955239.231 8 125626797.552 7  22392063.194 0  22392067.489 0
 88  3  2 10 12 29.0800000  0  3  3 13 12
 -13814252.203 7  72890785.751 6  21483231.151 0  21483235.637 0
   2943914.845 7  56949061.696 7  21962475.016 0  21962479.437 0
   7048242.512 7 125699267.640 7  22409761.258 0  22409764.905 0
 88  3  2 10 12 59.0800000  0  3  3 13 12
 -13839711.342 8  72870947.476 7  21478386.072 0  21478390.202 0
   2983248.290 8  56979711.133 7  21969960.258 0  21969964.069 0
   7141554.796 7 125771978.493 7  22427517.277 0  22427521.897 0
 88  3  2 10 13 29.0800000  0  3  3 13 12
 -13865068.772 7  72851188.454 6  21473561.784 0  21473563.795 0
   3022632.975 8  57010400.503 6  21977455.967 0  21977458.663 0
   7235172.442 7 125844927.293 7  22445332.375 0  22445337.440 0
 88  3  2 10 13 59.0800000  0  3  3 13 12
 -13890325.689 7  72831507.732 7  21468754.882 0  21468758.282 0
   3062068.206 7  57041129.251 7  21984959.679 0  21984963.875 0
   7329091.590 7 125918111.030 7  22463204.025 0  22463209.386 0
 88  3  2 10 14 29.0800000  0  3  3 13 12
 -13915482.560 8  72811904.993 7  21463968.069 0  21463972.284 0
   3101553.392 8  57071896.925 7  21992472.941 0  21992476.891 0
   7423308.735 7 125991526.968 7  22481132.943 0  22481138.816 0
 88  3  2 10 14 59.0800000  0  3  3 13 12
 -13940539.017 7  72792380.497 7  21459199.462 0  21459203.376 0
   3141089.964 7  57102704.639 8  21999995.748 0  22000001.045 0
   7517820.971 7 126065172.864 8  22499118.378 0  22499123.100 0
 88  3  2 10 15 29.0800000  0  3  3 13 12
 -13965495.184 7  72772934.139 7  21454449.739 0  21454453.724 0
   3180677.853 7  57133552.344 7  22007529.681 0  22007534.251 0
   7612624.912 7 126139046.058 7  22517158.619 0  22517164.063 0
 88  3  2 10 15 59.0800000  0  3  3 13 12
 -13990352.099 7  72753565.131 6  21449720.420 0  21449723.964 0
   3220316.422 8  57164439.540 7  22015072.276 0  22015076.814 0
   7707716.702 8 126213143.547 7  22535254.443 0  22535258.765 0
 88  3  2 10 16 29.0800000  0  3  3 13 12
 -14015109.471 7  72734273.676 7  21445008.890 0  21445012.462 0
   3260005.182 8  57195365.836 7  22022625.947 0  22022629.732 0
   7803093.238 7 126287462.912 7  22553403.567 0  22553408.844 0
 88  3  2 10 16 59.0800000  0  3  3 13 12
 -14039767.284 7  72715059.813 7  21440318.008 0  21440320.677 0
   3299744.929 8  57226331.878 7  22030188.002 0  22030191.004 0
   7898750.633 7 126362001.139 7  22571606.808 0  22571611.205 0
 88  3  2 10 17 29.0800000  0  3  3 13 12
 -14064325.918 7  72695923.226 7  21435644.395 0  21435647.322 0
   3339535.194 7  57257337.279 7  22037758.835 0  22037763.367 0
   7994685.692 7 126436755.725 6  22589863.011 0  22589867.784 0
 88  3  2 10 17 59.0800000  0  3  3 13 12
 -14088785.698 8  72676863.663 7  21430989.917 0  21430992.686 0
   3379376.420 7  57288382.381 7  22045341.837 0  22045344.181 0
   8090894.859 8 126511723.897 8  22608170.941 0  22608175.621 0
 88  3  2 10 18 29.0800000  0  3  3 13 12
 -14113147.065 7  72657880.780 7  21426354.424 0  21426356.733 0
   3419267.710 7  57319466.494 7  22052932.291 0  22052936.765 0
   8187374.495 7 126586902.821 7  22626530.842 0  22626535.664 0
 88  3  2 10 18 59.0800000  0  3  3 13 12
 -14137410.376 7  72638974.330 7  21421736.488 0  21421738.957 0
   3459209.705 7  57350590.122 7  22060531.701 0  22060536.896 0
   8284121.183 7 126662289.817 7  22644940.955 0  22644945.438 0
 88  3  2 10 19 29.0800000  0  3  3 13 12
 -14161575.796 8  72620144.151 6  21417136.927 0  21417140.758 0
   3499202.330 7  57381753.208 7  22068143.412 0  22068147.772 0
   8381131.601 7 126737882.335 7  22663401.254 0  22663405.868 0
 88  3  2 10 19 59.0800000  0  3  3 13 12
 -14185643.143 8  72601390.377 7  21412558.171 0  21412561.042 0
   3539245.805 7  57412955.901 7  22075762.474 0  22075767.571 0
   8478401.877 7 126813677.329 7  22681910.938 0  22681915.374 0
 88  3  2 10 20 29.0800000  0  3  3 13 12
 -14209613.007 7  72582712.572 6  21407996.702 0  21408000.786 0
   3579340.215 8  57444198.299 7  22083392.521 0  22083396.643 0
   8575928.439 8 126889672.049 7  22700468.816 0  22700473.846 0
 88  3  2 10 20 59.0800000  0  3  3 13 12
 -14233485.320 7  72564110.775 7  21403454.090 0  21403457.045 0
   3619485.767 7  57475480.545 7  22091032.150 0  22091036.510 0
   8673708.523 7 126965864.311 7  22719076.573 0  22719080.187 0
 88  3  2 10 21 29.0800000  0  3  3 13 12
 -14257259.694 7  72545585.286 7  21398930.082 0  21398932.419 0
   3659682.566 8  57506802.727 7  22098681.549 0  22098685.557 0
   8771738.533 8 127042251.334 7  22737731.451 0  22737736.946 0
 88  3  2 10 21 59.0800000  0  3  3 13 12
 -14280936.500 7  72527135.844 7  21394425.459 0  21394427.346 0
   3699930.613 7  57538164.838 7  22106340.535 0  22106344.066 0
   8870014.828 7 127118830.242 7  22756432.774 0  22756437.063 0
 88  3  2 10 22 29.0800000  0  3  3 13 12
 -14304516.390 8  72508761.908 7  21389937.440 0  21389940.896 0
   3740229.556 7  57569566.617 7  22114009.613 0  22114012.914 0
   8968533.359 7 127195597.927 7  22775179.864 0  22775185.050 0
 88  3  2 10 22 59.0800000  0  3  3 13 12
 -14327998.576 8  72490464.111 7  21385468.606 0  21385472.336 0
   3780580.301 8  57601008.750 7  22121688.432 0  22121691.978 0
   9067291.288 7 127272552.158 7  22793973.140 0  22793978.199 0
 88  3  2 10 23 29.0800000  0  3  3 13 12
 -14351383.949 8  72472241.749 7  21381018.690 0  21381022.287 0
   3820982.330 7  57632490.852 7  22129376.188 0  22129380.422 0
   9166284.359 7 127349689.614 7  22812811.598 0  22812815.768 0
 88  3  2 10 23 59.0800000  0  3  3 13 12
 -14374672.966 8  72454094.469 6  21376586.747 0  21376590.901 0
   3861435.374 8  57664012.708 7  22137074.208 0  22137077.202 0
   9265509.374 7 127427007.806 7  22831692.411 0  22831698.163 0
 88  3  2 10 24 29.0800000  0  3  3 13 12
 -14397865.149 7  72436022.653 7  21372173.534 0  21372176.631 0
   3901940.459 8  57695575.119 7  22144783.105 0  22144785.294 0
   9364963.319 7 127504504.365 8  22850618.648 0  22850623.062 0
 88  3  2 10 24 59.0800000  0  3  3 13 12
 -14420961.075 7  72418025.831 8  21367777.178 0  21367781.191 0
   3942497.526 7  57727178.031 7  22152500.132 0  22152503.517 0
   9464642.279 7 127582176.277 7  22869586.599 0  22869591.155 0
 88  3  2 10 25 29.0800000  0  3  3 13 12
 -14443960.409 8  72400104.277 7  21363401.797 0  21363405.325 0
   3983106.649 7  57758821.506 7  22160227.674 0  22160230.832 0
   9564542.970 8 127660020.962 7  22888597.461 0  22888602.335 0
 88  3  2 10 25 59.0800000  0  3  3 13 12
 -14466862.786 8  72382258.284 7  21359044.146 0  21359047.144 0
   4023767.978 7  57790505.656 7  22167965.581 0  22167969.361 0
   9664661.943 8 127738035.759 7  22907649.763 0  22907654.068 0
 88  3  2 10 26 29.0800000  0  3  3 13 12
 -14489668.485 7  72364487.613 7  21354703.281 0  21354707.397 0
   4064481.947 7  57822230.829 7  22175713.448 0  22175716.423 0
   9764995.700 8 127816217.907 6  22926742.073 0  22926746.229 0
 88  3  2 10 26 59.0800000  0  3  3 13 12
 -14512377.657 8  72346792.168 7  21350383.023 0  21350385.245 0
   4105248.396 8  57853996.891 7  22183470.621 0  22183473.567 0
   9865539.898 7 127894564.026 8  22945875.224 0  22945880.208 0
 88  3  2 10 27 29.0800000  0  3  3 13 12
 -14534990.880 7  72329171.475 7  21346079.759 0  21346083.245 0
   4146067.853 7  57885804.275 7  22191238.626 0  22191241.852 0
   9966291.819 8 127973072.000 7  22965047.063 0  22965052.229 0
 88  3  2 10 27 59.0800000  0  3  3 13 12
 -14557507.767 7  72311625.865 7  21341793.816 0  21341797.039 0
   4186940.324 8  57917652.948 8  22199014.498 0  22199019.862 0
  10067247.914 8 128051739.085 7  22984258.194 0  22984262.797 0
 88  3  2 10 28 29.0800000  0  3  3 13 12
 -14579928.628 7  72294155.057 7  21337527.225 0  21337531.180 0
   4227865.692 8  57949542.835 7  22206803.361 0  22206806.341 0
  10168404.198 8 128130562.144 7  23003507.663 0  23003513.572 0
 88  3  2 10 28 59.0800000  0  3  3 13 12
 -14602254.011 7  72276758.670 7  21333279.355 0  21333282.639 0
   4268843.478 8  57981473.584 7  22214600.850 0  22214605.194 0
  10269756.825 7 128209538.227 7  23022794.332 0  23022799.166 0
 88  3  2 10 29 29.0800000  0  3  3 13 12
 -14624483.300 8  72259437.155 8  21329049.401 0  21329052.300 0
   4309874.855 8  58013446.087 7  22222408.596 0  22222413.601 0
  10371303.184 7 128288665.249 7  23042117.983 0  23042123.286 0
 88  3  2 10 29 59.0800000  0  3  3 13 12
 -14646616.601 7  72242190.441 7  21324837.588 0  21324841.618 0
   4350959.657 7  58045460.214 7  22230226.701 0  22230232.263 0
  10473038.851 7 128367939.772 7  23061477.157 0  23061483.096 0
 88  3  2 10 30 29.0800000  0  3  3 13 12
 -14668653.683 7  72225018.689 7  21320644.107 0  21320647.193 0
   4392098.431 7  58077516.396 7  22238054.851 0  22238060.024 0
  10574960.897 7 128447359.550 7  23080872.655 0  23080878.623 0
 88  3  2 10 30 59.0800000  0  3  3 13 12
 -14690594.941 7  72207921.612 6  21316468.299 0  21316472.313 0
   4433291.364 7  58109614.783 7  22245893.731 0  22245899.021 0
  10677065.640 8 128526921.695 7  23100303.557 0  23100307.476 0
 88  3  2 10 31 29.0800000  0  3  3 13 12
 -14712440.363 7  72190899.217 7  21312311.694 0  21312314.834 0
   4474538.433 8  58141755.345 7  22253743.296 0  22253747.089 0
  10779349.322 8 128606623.262 7  23119767.228 0  23119771.374 0
 88  3  2 10 31 59.0800000  0  3  3 13 12
 -14734189.464 8  72173951.875 7  21308173.316 0  21308176.986 0
   4515840.055 8  58173938.430 7  22261603.793 0  22261606.879 0
  10881808.793 8 128686461.816 8  23139264.647 0  23139269.364 0
 88  3  2 10 32 29.0800000  0  3  3 13 12
 -14755842.466 7  72157079.417 7  21304052.683 0  21304056.084 0
   4557196.176 8  58206163.974 7  22269472.647 0  22269476.775 0
  10984440.339 8 128766434.462 7  23158794.467 0  23158798.580 0
 88  3  2 10 32 59.0800000  0  3  3 13 12
 -14777399.074 8  72140282.067 7  21299950.210 0  21299953.007 0
   4598608.185 8  58238433.072 7  22277353.407 0  22277356.790 0
  11087240.421 9 128846538.436 7  23178357.100 0  23178362.070 0
 88  3  2 10 33 29.0800000  0  3  3 13 12
 -14798859.295 7  72123559.831 7  21295866.551 0  21295869.909 0
   4640075.360 7  58270745.158 7  22285243.486 0  22285248.698 0
  11190205.004 8 128926770.574 7  23197950.011 0  23197954.960 0
 88  3  2 10 33 59.0800000  0  3  3 13 12
 -14820222.435 7  72106913.240 7  21291801.007 0  21291804.152 0
   4681598.739 7  58303101.036 7  22293145.783 0  22293149.723 0
  11293331.762 7 129007129.080 7  23217574.909 0  23217580.364 0
 88  3  2 10 34 29.0800000  0  3  3 13 12
 -14841488.974 7  72090341.918 7  21287754.396 0  21287757.999 0
   4723178.386 8  58335500.743 7  22301058.788 0  22301063.037 0
  11396617.248 7 129087611.271 8  23237228.749 0  23237234.599 0
 88  3  2 10 34 59.0800000  0  3  3 13 12
 -14862658.495 8  72073846.193 7  21283725.845 0  21283729.215 0
   4764814.948 8  58367944.821 7  22308980.890 0  22308985.661 0
  11500057.967 7 129168214.418 7  23256913.337 0  23256918.146 0
 88  3  2 10 35 29.0800000  0  3  3 13 12
 -14883731.227 8  72057425.889 7  21279716.165 0  21279719.178 0
   4806508.130 7  58400433.001 7  22316915.206 0  22316918.902 0
  11603649.891 7 129248935.368 7  23276626.286 0  23276630.907 0
 88  3  2 10 35 59.0800000  0  3  3 13 12
 -14904706.520 7  72041081.522 7  21275724.270 0  21275727.370 0
   4848259.258 8  58432966.345 7  22324860.700 0  22324863.999 0
  11707390.079 7 129329771.876 8  23296366.054 0  23296372.106 0
 88  3  2 10 36 29.0800000  0  3  3 13 12
 -14925584.135 8  72024813.258 7  21271751.196 0  21271754.280 0
   4890068.267 7  58465544.792 7  22332816.868 0  22332820.465 0
  11811274.958 7 129410721.106 7  23316134.960 0  23316141.169 0
 88  3  2 10 36 59.0800000  0  3  3 13 12
 -14946364.146 7  72008621.043 7  21267796.691 0  21267800.419 0
   4931935.018 7  58498168.237 7  22340783.634 0  22340786.941 0
  11915300.987 7 129491780.346 7  23335930.825 0  23335936.492 0
 88  3  2 10 37 29.0800000  0  3  3 13 12
 -14967047.065 7  71992504.491 6  21263860.834 0  21263863.791 0
   4973860.082 7  58530837.107 7  22348760.808 0  22348764.540 0
  12019464.160 7 129572946.436 7  23355752.696 0  23355758.120 0
 88  3  2 10 37 59.0800000  0  3  3 13 12
 -14987633.120 7  71976463.423 7  21259943.162 0  21259947.536 0
   5015843.432 7  58563551.401 7  22356750.348 0  22356753.415 0
  12123760.697 8 129654216.461 7  23375600.076 0  23375604.524 0
 88  3  2 10 38 29.0800000  0  3  3 13 12
 -15008121.607 7  71960498.377 6  21256045.254 0  21256047.225 0
   5057885.146 7  58596311.179 7  22364751.426 0  22364754.007 0
  12228187.355 7 129735587.897 7  23395471.959 0  23395477.551 0
 88  3  2 10 38 59.0800000  0  3  3 13 12
 -15028512.422 7  71944609.443 7  21252165.228 0  21252168.685 0
   5099986.108 8  58629117.113 7  22372762.248 0  22372766.235 0
  12332740.660 8 129817058.017 7  23415367.629 0  23415373.303 0
 88  3  2 10 39 29.0800000  0  3  3 13 12
 -15048805.822 7  71928796.413 6  21248303.190 0  21248305.805 0
   5142146.136 7  58661969.078 7  22380785.327 0  22380788.909 0
  12437417.012 8 129898624.038 7  23435286.782 0  23435290.426 0
 88  3  2 10 39 59.0800000  0  3  3 13 12
 -15069001.290 7  71913059.684 7  21244460.670 0  21244463.870 0
   5184366.221 7  58694867.844 7  22388819.594 0  22388823.597 0
  12542212.848 8 129980283.168 6  23455228.766 0  23455232.899 0
 88  3  2 10 40 29.0800000  0  3  3 13 12
 -15089098.267 7  71897399.711 7  21240636.595 0  21240639.196 0
   5226646.574 7  58727813.566 7  22396865.052 0  22396869.223 0
  12647124.602 8 130062032.603 7  23475192.808 0  23475196.878 0
 88  3  2 10 40 59.0800000  0  3  3 13 12
 -15109096.560 8  71881816.636 7  21236829.964 0  21236834.436 0
   5268987.607 8  58760806.566 7  22404921.815 0  22404926.066 0
  12752149.500 8 130143870.205 7  23495178.876 0  23495183.220 0
 88  3  2 10 41 29.0800000  0  3  3 13 12
 -15128995.807 7  71866310.741 7  21233043.522 0  21233046.619 0
   5311389.253 8  58793846.807 7  22412991.513 0  22412994.701 0
  12857283.833 8 130225793.074 7  23515184.831 0  23515189.987 0
 88  3  2 10 41 59.0800000  0  3  3 13 12
 -15148796.836 7  71850881.372 7  21229275.453 0  21229278.440 0
   5353852.351 7  58826934.919 7  22421071.533 0  22421075.707 0
  12962523.539 7 130307798.060 7  23535211.453 0  23535216.003 0
 88  3  2 10 42 29.0800000  0  3  3 13 12
 -15168498.668 7  71835529.297 7  21225526.188 0  21225529.086 0
   5396377.364 8  58860071.287 7  22429163.345 0  22429168.086 0
  13067865.835 7 130389882.970 7  23555256.500 0  23555261.528 0
 88  3  2 10 42 59.0800000  0  3  3 13 12
 -15188100.909 7  71820254.847 7  21221796.554 0  21221799.652 0
   5438965.077 7  58893256.503 7  22437267.707 0  22437271.358 0
  13173306.682 7 130472044.667 7  23575321.893 0  23575326.119 0
 88  3  2 10 43 29.0800000  0  3  3 13 12
 -15207603.646 7  71805057.903 7  21218083.932 0  21218088.047 0
   5481615.100 8  58926490.278 7  22445384.243 0  22445388.754 0
  13278842.618 7 130554280.456 7  23595404.576 0  23595408.784 0
 88  3  2 10 43 59.0800000  0  3  3 13 12
 -15227006.136 7  71789939.090 7  21214392.534 0  21214396.220 0
   5524328.333 8  58959773.318 7  22453512.036 0  22453515.254 0
  13384470.866 7 130636588.172 7  23615504.199 0  23615509.552 0
 88  3  2 10 44 29.0800000  0  3  3 13 12
 -15246308.571 8  71774898.246 7  21210719.506 0  21210723.104 0
   5567105.469 8  58993106.145 7  22461652.204 0  22461656.376 0
  13490187.154 7 130718964.493 7  23635621.628 0  23635627.094 0
 88  3  2 10 44 59.0800000  0  3  3 13 12
 -15265510.609 7  71759935.618 7  21207065.441 0  21207069.624 0
   5609946.373 8  59026488.652 7  22469805.095 0  22469809.455 0
  13595988.296 8 130801406.948 7  23655755.018 0  23655759.847 0
 88  3  2 10 45 29.0800000  0  3  3 13 12
 -15284611.823 8  71745051.556 7  21203430.631 0  21203433.400 0
   5652851.280 7  59059921.049 8  22477969.213 0  22477972.906 0
  13701871.560 7 130883913.407 7  23675903.128 0  23675908.755 0
 88  3  2 10 45 59.0800000  0  3  3 13 12
 -15303612.106 7  71730246.146 7  21199815.343 0  21199818.038 0
   5695821.199 8  59093404.093 7  22486146.078 0  22486149.571 0
  13807833.041 7 130966480.793 7  23696068.026 0  23696073.046 0
 88  3  2 10 46 29.0800000  0  3  3 13 12
 -15322511.363 7  71715519.461 6  21196218.525 0  21196222.079 0
   5738856.439 7  59126938.035 7  22494335.230 0  22494339.923 0
  13913868.840 8 131049106.107 7  23716245.624 0  23716251.490 0
 88  3  2 10 46 59.0800000  0  3  3 13 12
 -15341308.579 7  71700872.277 7  21192641.169 0  21192645.183 0
   5781957.638 8  59160523.370 7  22502536.971 0  22502542.483 0
  14019976.152 7 131131787.128 8  23736437.905 0  23736442.676 0
 88  3  2 10 47 29.0800000  0  3  3 13 12
 -15360003.899 7  71686304.500 7  21189083.748 0  21189087.831 0
   5825125.649 8  59194160.780 7  22510752.778 0  22510755.711 0
  14126151.601 8 131214521.266 7  23756642.571 0  23756646.670 0
 88  3  2 10 47 59.0800000  0  3  3 13 12
 -15378596.541 7  71671816.727 7  21185546.481 0  21185548.683 0
   5868360.770 7  59227850.475 7  22518978.339 0  22518982.968 0
  14232391.652 8 131297305.756 7  23776858.876 0  23776864.103 0
 88  3  2 10 48 29.0800000  0  3  3 13 12
 -15397086.102 7  71657409.276 7  21182027.209 0  21182030.851 0
   5911663.095 8  59261592.540 7  22527220.033 0  22527224.413 0
  14338692.790 8 131380137.839 7  23797087.000 0  23797091.488 0
 88  3  2 10 48 59.0800000  0  3  3 13 12
 -15415471.834 8  71643082.739 7  21178528.439 0  21178532.824 0
   5955033.632 7  59295387.761 7  22535472.528 0  22535475.952 0
  14445051.855 7 131463015.058 7  23817327.158 0  23817331.624 0
 88  3  2 10 49 29.0800000  0  3  3 13 12
 -15433754.101 8  71628836.819 7  21175050.089 0  21175052.429 0
   5998472.659 7  59329236.343 7  22543739.270 0  22543743.014 0
  14551465.163 7 131545934.536 7  23837577.547 0  23837581.103 0
 88  3  2 10 49 59.0800000  0  3  3 13 12
 -15451932.792 7  71614671.610 7  21171590.755 0  21171594.268 0
   6041980.328 7  59363138.421 7  22552017.693 0  22552022.308 0
  14657928.821 7 131628893.235 7  23857835.765 0  23857840.681 0
 88  3  2 10 50 29.0800000  0  3  3 13 12
 -15470007.689 7  71600587.277 7  21168150.338 0  21168154.311 0
   6085556.735 7  59397094.046 7  22560309.519 0  22560314.804 0
  14764439.383 7 131711888.489 7  23878103.201 0  23878107.969 0
 88  3  2 10 50 59.0800000  0  3  3 13 12
 -15487978.124 7  71586584.349 7  21164731.672 0  21164735.441 0
   6129202.904 7  59431104.045 7  22568617.262 0  22568619.970 0
  14870993.984 7 131794918.062 6  23898379.883 0  23898385.662 0
 88  3  2 10 51 29.0800000  0  3  3 13 12
 -15505843.358 8  71572663.390 7  21161331.405 0  21161335.636 0
   6172919.287 7  59465168.742 7  22576934.463 0  22576938.750 0
  14977589.273 6 131877979.339 7  23918665.637 0  23918669.728 0
 88  3  2 10 51 59.0800000  0  3  3 13 12
 -15523603.216 7  71558824.532 7  21157953.105 0  21157956.061 0
   6216706.692 7  59499288.794 7  22585267.238 0  22585270.894 0
  15084222.002 7 131961069.794 7  23938956.399 0  23938961.781 0
 88  3  2 10 52 29.0800000  0  3  3 13 12
 -15541256.633 7  71545068.636 7  21154593.163 0  21154596.577 0
   6260565.571 7  59533464.534 7  22593613.231 0  22593617.278 0
  15190888.536 7 132044186.590 7  23959254.970 0  23959259.528 0
 88  3  2 10 52 59.0800000  0  3  3 13 12
 -15558803.500 7  71531395.755 7  21151253.957 0  21151257.098 0
   6304496.394 7  59567696.335 7  22601973.108 0  22601976.949 0
  15297585.566 8 132127327.150 6  23979558.225 0  23979563.054 0
 88  3  2 10 53 29.0800000  0  3  3 13 12
 -15576243.615 8  71517806.059 7  21147934.909 0  21147938.653 0
   6348499.983 7  59601984.833 8  22610346.733 0  22610351.032 0
  15404309.921 7 132210488.996 7  23999867.319 0  23999870.979 0
 88  3  2 10 53 59.0800000  0  3  3 13 12
 -15593576.448 7  71504299.960 7  21144636.752 0  21144640.439 0
   6392576.737 7  59636330.348 7  22618734.228 0  22618738.741 0
  15511058.063 7 132293669.372 7  24020181.283 0  24020186.276 0
 88  3  2 10 54 29.0800000  0  3  3 13 12
 -15610801.549 8  71490877.815 6  21141358.832 0  21141362.288 0
   6436726.970 7  59670733.122 7  22627136.150 0  22627140.060 0
  15617826.710 7 132376865.715 8  24040498.712 0  24040503.621 0
 88  3  2 10 54 59.0800000  0  3  3 13 12
 -15627918.076 7  71477540.265 7  21138101.401 0  21138105.602 0
   6480951.717 7  59705193.941 7  22635552.263 0  22635556.747 0
  15724612.514 8 132460075.445 7  24060819.355 0  24060823.825 0
 88  3  2 10 55 29.0800000  0  3  3 13 12
 -15644925.370 7  71464287.833 7  21134865.020 0  21134868.603 0
   6525251.230 8  59739713.030 7  22643981.045 0  22643986.210 0
  15831412.470 7 132543296.206 7  24081142.693 0  24081147.792 0
 88  3  2 10 55 59.0800000  0  3  3 13 12
 -15661822.280 7  71451121.420 7  21131649.701 0  21131653.870 0
   6569627.434 7  59774291.869 7  22652426.453 0  22652430.122 0
  15938223.944 7 132626525.937 7  24101468.057 0  24101472.459 0
 88  3  2 10 56 29.0800000  0  3  3 13 12
 -15678609.748 7  71438040.274 7  21128454.972 0  21128458.571 0
   6614078.953 8  59808929.414 7  22660885.287 0  22660888.244 0
  16045041.804 8 132709760.647 7  24121794.793 0  24121799.421 0
 88  3  2 10 56 59.0800000  0  3  3 13 12
 -15695287.004 7  71425045.015 7  21125281.320 0  21125284.678 0
   6658606.541 7  59843626.221 7  22669358.026 0  22669362.344 0
  16151862.949 8 132792997.925 7  24142122.072 0  24142126.659 0
 88  3  2 10 57 29.0800000  0  3  3 13 12
 -15711853.550 7  71412136.026 7  21122128.675 0  21122132.161 0
   6703210.956 7  59878382.891 7  22677845.905 0  22677849.944 0
  16258684.928 8 132876235.839 7  24162449.682 0  24162453.989 0
 88  3  2 10 57 59.0800000  0  3  3 13 12
 -15728309.372 7  71399313.322 7  21118997.595 0  21119000.852 0
   6747893.044 7  59913200.094 7  22686348.016 0  22686352.649 0
  16365503.626 7 132959471.204 7  24182776.056 0  24182781.528 0
 88  3  2 10 58 29.0800000  0  3  3 13 12
 -15744653.262 7  71386577.820 7  21115887.980 0  21115890.120 0
   6792653.436 8  59948078.304 7  22694866.298 0  22694870.625 0
  16472316.142 7 133042701.757 7  24203102.393 0  24203107.150 0
 88  3  2 10 58 59.0800000  0  3  3 13 12
 -15760884.872 7  71373929.815 7  21112799.310 0  21112801.736 0
   6837492.183 7  59983017.596 7  22703399.548 0  22703403.327 0
  16579118.952 7 133125924.730 7  24223426.439 0  24223430.732 0
 88  3  2 10 59 29.0800000  0  3  3 13 12
 -15777003.817 7  71361369.613 7  21109732.277 0  21109733.417 0
   6882409.949 7  60018018.428 7  22711947.353 0  22711950.948 0
  16685908.710 7 133209137.528 7  24243747.209 0  24243752.525 0
 88  3  2 10 59 59.0800000  0  3  3 13 12
 -15793009.174 7  71348897.905 7  21106685.621 0  21106689.049 0
   6927407.967 8  60053081.799 7  22720509.824 0  22720513.576 0
  16792682.655 7 133292338.012 7  24264065.804 0  24264071.747 0
 88  3  2 11  0 29.0800000  0  3  3 13 12
 -15808900.073 8  71336515.391 7  21103661.375 0  21103664.942 0
   6972486.248 7  60088207.718 7  22729087.267 0  22729091.037 0
  16899437.124 7 133375523.331 7  24284380.679 0  24284384.870 0
 88  3  2 11  0 59.0800000  0  3  3 13 12
 -15824676.508 7  71324222.081 7  21100659.132 0  21100662.842 0
   7017645.866 7  60123397.019 7  22737681.664 0  22737684.799 0
  17006168.914 7 133458690.977 7  24304690.460 0  24304694.888 0
 88  3  2 11  1 29.0800000  0  3  3 13 12
 -15840337.313 7  71312018.848 7  21097679.758 0  21097683.554 0
   7062887.688 7  60158650.372 7  22746290.732 0  22746295.138 0
  17112875.016 8 133541838.589 7  24324996.285 0  24325000.405 0
 88  3  2 11  1 59.0800000  0  3  3 13 12
 -15855881.893 7  71299906.185 7  21094721.015 0  21094724.758 0
   7108211.832 8  60193967.888 7  22754915.781 0  22754919.256 0
  17219552.480 7 133624963.895 7  24345295.919 0  24345301.386 0
 88  3  2 11  2 29.0800000  0  3  3 13 12
 -15871310.069 7  71287884.234 6  21091785.501 0  21091789.884 0
   7153619.482 8  60229350.442 7  22763556.853 0  22763559.857 0
  17326197.309 7 133708063.766 7  24365590.582 0  24365595.303 0
 88  3  2 11  2 59.0800000  0  3  3 13 12
 -15886620.671 8  71275953.898 7  21088872.160 0  21088874.987 0
   7199110.767 8  60264798.207 7  22772213.904 0  22772217.242 0
  17432807.058 7 133791136.311 7  24385876.898 0  24385882.506 0
 88  3  2 11  3 29.0800000  0  3  3 13 12
 -15901813.302 8  71264115.487 6  21085981.777 0  21085984.014 0
   7244685.816 7  60300311.214 7  22780885.477 0  22780889.667 0
  17539377.979 7 133874178.591 7  24406156.694 0  24406162.257 0
 88  3  2 11  3 59.0800000  0  3  3 13 12
 -15916887.504 8  71252369.350 6  21083112.681 0  21083115.880 0
   7290346.052 8  60335890.603 7  22789574.593 0  22789578.609 0
  17645906.832 7 133957188.115 6  24426428.854 0  24426434.220 0
 88  3  2 11  4 29.0800000  0  3  3 13 12
 -15931842.587 7  71240716.038 7  21080266.554 0  21080269.010 0
   7336092.214 7  60371536.959 7  22798281.105 0  22798283.038 0
  17752390.230 7 134040162.206 7  24446692.515 0  24446696.793 0
 88  3  2 11  4 59.0800000  0  3  3 13 12
 -15946678.166 7  71229155.847 7  21077443.850 0  21077445.975 0
   7381924.286 8  60407250.243 7  22807001.596 0  22807004.797 0
  17858824.955 7 134123098.370 7  24466945.610 0  24466949.894 0
 88  3  2 11  5 29.0800000  0  3  3 13 12
 -15961393.510 8  71217689.350 7  21074644.228 0  21074647.297 0
   7427842.464 7  60443030.625 7  22815739.752 0  22815744.222 0
  17965207.716 7 134205994.067 6  24487189.899 0  24487194.649 0
 88  3  2 11  5 59.0800000  0  3  3 13 12
 -15975987.631 7  71206317.303 7  21071867.212 0  21071869.910 0
   7473848.474 7  60478879.453 6  22824493.885 0  22824496.664 0
  18071535.853 8 134288847.188 6  24507423.391 0  24507427.488 0
 88  3  2 11  6 29.0800000  0  3  3 13 12
 -15990460.048 7  71195040.101 7  21069112.120 0  21069115.303 0
   7519942.498 7  60514796.877 7  22833265.472 0  22833268.775 0
  18177805.470 8 134371654.704 7  24527645.435 0  24527649.734 0
 88  3  2 11  6 59.0800000  0  3  3 13 12
 -16004810.074 7  71183858.256 6  21066380.782 0  21066384.680 0
   7566124.988 8  60550783.216 7  22842052.919 0  22842058.070 0
  18284013.536 7 134454414.263 7  24547856.867 0  24547861.068 0
 88  3  2 11  7 29.0800000  0  2  3 13
 -16019036.649 7  71172772.617 7  21063674.041 0  21063677.008 0
   7612397.125 7  60586839.415 7  22850858.593 0  22850862.863 0
 88  3  2 11  7 59.0800000  0  2  3 13
 -16033138.642 7  71161784.046 7  21060990.765 0  21060993.149 0
   7658759.544 7  60622965.950 7  22859681.500 0  22859685.584 0
 88  3  2 11  8 29.0800000  0  2  3 13
 -16047115.442 7  71150893.032 7  21058331.601 0  21058334.500 0
   7705213.192 8  60659163.591 7  22868521.689 0  22868525.325 0
 88  3  2 11  8 59.0800000  0  2  3 13
 -16060966.348 8  71140100.115 6  21055696.077 0  21055698.687 0
   7751758.848 7  60695432.907 7  22877379.367 0  22877382.407 0
 88  3  2 11  9 29.0800000  0  2  3 13
 -16074690.379 7  71129406.064 7  21053083.574 0  21053087.431 0
   7798396.659 7  60731774.054 7  22886254.203 0  22886257.761 0
 88  3  2 11  9 59.0800000  0  2  3 13
 -16088287.019 7  71118811.285 7  21050496.200 0  21050498.554 0
   7845127.726 7  60768187.841 7  22895145.909 0  22895149.988 0
 88  3  2 11 10 29.0800000  0  2  3 13
 -16101755.634 7  71108316.259 6  21047933.579 0  21047935.463 0
   7891952.632 7  60804674.774 7  22904057.418 0  22904061.716 0
 88  3  2 11 10 59.0800000  0  2  3 13
 -16115095.977 8  71097921.188 7  21045394.800 0  21045398.040 0
   7938871.238 7  60841234.688 7  22912983.052 0  22912988.052 0
 88  3  2 11 11 29.0800000  0  2  3 13
 -16128306.870 7  71087626.994 6  21042880.832 0  21042882.713 0
   7985884.894 7  60877868.711 6  22921932.604 0  22921934.166 0
 88  3  2 11 11 59.0800000  0  2  3 13
 -16141387.343 7  71077434.405 7  21040392.093 0  21040395.087 0
   8032994.220 7  60914577.243 6  22930894.830 0  22930901.292 0
 88  3  2 11 12 29.0800000  0  2  3 13
 -16154336.616 7  71067344.058 7  21037927.003 0  21037930.160 0
   8080199.580 8  60951360.631 7  22939879.901 0  22939882.509 0
 88  3  2 11 12 59.0800000  0  2  3 13
 -16167154.507 7  71057356.095 7  21035487.872 0  21035491.269 0
   8127502.174 7  60988219.795 7  22948878.072 0  22948885.440 0
 88  3  2 11 13 29.0800000  0  2  3 13
 -16179839.663 8  71047471.556 7  21033074.182 0  21033077.252 0
   8174902.425 7  61025155.008 6  22957899.267 0  22957904.704 0
 88  3  2 11 13 59.0800000  0  2  3 13
 -16192390.992 7  71037691.314 7  21030685.747 0  21030688.733 0
   8222400.935 7  61062166.832 7  22966938.688 0  22966942.932 0
 88  3  2 11 14 29.0800000  0  2  3 13
 -16204807.936 8  71028015.771 7  21028322.142 0  21028326.714 0
   8269998.302 7  61099255.661 7  22975996.658 0  22976001.126 0
 88  3  2 11 14 59.0800000  0  2  3 13
 -16217089.915 7  71018445.394 7  21025985.233 0  21025989.305 0
   8317694.732 8  61136421.692 7  22985072.310 0  22985077.352 0
 88  3  2 11 15 29.0800000  0  2  3 13
 -16229235.912 7  71008980.976 7  21023674.802 0  21023677.742 0
   8365491.144 7  61173665.635 7  22994168.317 0  22994171.334 0
 88  3  2 11 15 59.0800000  0  2  3 13
 -16241245.837 7  70999622.595 7  21021389.092 0  21021392.246 0
   8413388.290 7  61210988.087 7  23003282.922 0  23003287.222 0
 88  3  2 11 16 29.0800000  0  2  3 13
 -16253118.222 7  70990371.386 7  21019130.198 0  21019132.481 0
   8461387.650 8  61248390.133 7  23012414.725 0  23012420.979 0
 88  3  2 11 16 59.0800000  0  2  3 13
 -16264851.756 8  70981228.380 7  21016896.560 0  21016900.962 0
   8509488.947 7  61285871.685 7  23021570.510 0  23021573.518 0
 88  3  2 11 17 29.0800000  0  2  3 13
 -16276445.731 7  70972194.099 7  21014691.729 0  21014694.110 0
   8557693.798 7  61323433.862 7  23030743.140 0  23030747.898 0
 88  3  2 11 17 59.0800000  0  2  3 13
 -16287899.286 7  70963269.256 7  21012512.323 0  21012514.192 0
   8606002.324 8  61361076.862 7  23039937.017 0  23039939.910 0
 88  3  2 11 18 29.0800000  0  2  3 13
 -16299211.216 7  70954454.766 7  21010357.874 0  21010362.203 0
   8654415.153 7  61398801.107 7  23049148.713 0  23049152.185 0
 88  3  2 11 18 59.0800000  0  2  3 13
 -16310380.544 8  70945751.389 7  21008233.444 0  21008236.455 0
   8702933.174 7  61436607.365 7  23058381.757 0  23058385.379 0
 88  3  2 11 19 29.0800000  0  2  3 13
 -16321407.294 7  70937159.113 7  21006134.372 0  21006138.528 0
   8751556.538 8  61474495.672 7  23067633.539 0  23067637.972 0
 88  3  2 11 19 59.0800000  0  2  3 13
 -16332290.577 7  70928678.632 7  21004063.559 0  21004066.902 0
   8800285.912 8  61512466.615 7  23076906.744 0  23076910.881 0
 88  3  2 11 20 29.0800000  0  2  3 13
 -16343029.091 7  70920310.971 7  21002021.633 0  21002024.089 0
   8849122.877 8  61550521.370 7  23086201.175 0  23086204.545 0
 88  3  2 11 20 59.0800000  0  2  3 13
 -16353621.230 7  70912057.347 6  21000004.768 0  21000009.526 0
   8898068.182 8  61588660.541 7  23095513.808 0  23095518.047 0
 88  3  2 11 21 29.0800000  0  2  3 13
 -16364066.443 8  70903918.226 7  20998017.579 0  20998020.147 0
   8947122.129 7  61626884.402 7  23104849.839 0  23104853.110 0
 88  3  2 11 21 59.0800000  0  2  3 13
 -16374363.798 7  70895894.307 7  20996057.704 0  20996061.416 0
   8996285.573 8  61665193.549 7  23114203.931 0  23114208.113 0
 88  3  2 11 22 29.0800000  0  2  3 13
 -16384512.370 8  70887986.328 7  20994126.534 0  20994130.076 0
   9045559.215 8  61703588.608 7  23123581.691 0  23123584.570 0
 88  3  2 11 22 59.0800000  0  2  3 13
 -16394510.631 7  70880195.479 7  20992224.067 0  20992226.839 0
   9094944.175 7  61742070.362 8  23132978.252 0  23132983.645 0
 88  3  2 11 23 29.0800000  0  2  3 13
 -16404357.616 7  70872522.498 7  20990349.734 0  20990352.993 0
   9144440.769 7  61780639.131 7  23142397.947 0  23142401.506 0
 88  3  2 11 23 59.0800000  0  2  3 13
 -16414052.762 8  70864967.834 7  20988504.480 0  20988509.368 0
   9194049.727 8  61819295.445 7  23151838.161 0  23151841.717 0
 88  3  2 11 24 29.0800000  0  2  3 13
 -16423594.669 8  70857532.580 7  20986689.701 0  20986693.527 0
   9243771.714 7  61858039.843 8  23161299.917 0  23161304.357 0
 88  3  2 11 24 59.0800000  0  2  3 13
 -16432982.698 8  70850217.231 7  20984902.651 0  20984906.711 0
   9293607.503 8  61896872.909 7  23170782.893 0  23170786.818 0
 88  3  2 11 25 29.0800000  0  2  3 13
 -16442215.640 7  70843022.733 7  20983145.756 0  20983149.655 0
   9343558.016 7  61935795.367 8  23180288.737 0  23180292.859 0
 88  3  2 11 25 59.0800000  0  2  3 13
 -16451291.992 7  70835950.255 7  20981418.852 0  20981421.504 0
   9393624.152 8  61974807.919 7  23189816.760 0  23189819.609 0
 88  3  2 11 26 29.0800000  0  2  3 13
 -16460211.549 7  70828999.952 7  20979720.833 0  20979725.006 0
   9443805.896 7  62013910.562 7  23199364.932 0  23199368.292 0
 88  3  2 11 26 59.0800000  0  2  3 13
 -16468973.324 7  70822172.593 7  20978054.041 0  20978058.126 0
   9494103.936 7  62053103.799 8  23208935.864 0  23208941.714 0
 88  3  2 11 27 29.0800000  0  2  3 13
 -16477575.450 7  70815469.640 7  20976417.268 0  20976421.442 0
   9544519.658 7  62092388.781 7  23218530.590 0  23218534.102 0
 88  3  2 11 27 59.0800000  0  2  3 13
 -16486016.981 7  70808891.816 7  20974810.803 0  20974814.919 0
   9595053.737 7  62131765.938 7  23228145.020 0  23228151.354 0
 88  3  2 11 28 29.0800000  0  2  3 13
 -16494297.665 7  70802439.343 7  20973234.659 0  20973238.905 0
   9645706.342 7  62171235.519 7  23237786.300 0  23237789.801 0
 88  3  2 11 28 59.0800000  0  2  3 13
 -16502416.084 7  70796113.300 7  20971689.437 0  20971693.424 0
   9696478.957 7  62210798.556 7  23247447.847 0  23247451.163 0
 88  3  2 11 29 29.0800000  0  2  3 13
 -16510370.737 8  70789914.869 7  20970176.354 0  20970179.854 0
   9747371.897 6  62250455.364 7  23257129.953 0  23257136.732 0
 88  3  2 11 29 59.0800000  0  2  3 13
 -16518160.593 8  70783844.849 7  20968694.250 0  20968697.934 0
   9798386.442 7  62290206.936 8  23266840.830 0  23266843.221 0
 88  3  2 11 30 29.0800000  0  2  3 13
 -16525784.221 8  70777904.364 7  20967243.185 0  20967246.840 0
   9849523.198 6  62330053.731 8  23276568.665 0  23276575.218 0
 88  3  2 11 30 59.0800000  0  2  3 13
 -16533241.151 7  70772093.762 7  20965824.110 0  20965827.769 0
   9900782.379 7  62369995.913 8  23286324.610 0  23286329.675 0
 88  3  2 11 31 29.0800000  0  2  3 13
 -16540530.173 7  70766414.009 7  20964438.037 0  20964440.290 0
   9952164.609 6  62410033.993 7  23296101.978 0  23296105.924 0
 88  3  2 11 31 59.0800000  0  2  3 13
 -16547649.843 7  70760866.221 7  20963082.612 0  20963086.009 0
  10003671.052 7  62450168.843 8  23305902.141 0  23305908.505 0
 88  3  2 11 32 29.0800000  0  2  3 13
 -16554599.875 7  70755450.608 7  20961760.842 0  20961763.009 0
  10055302.162 7  62490400.862 8  23315728.906 0  23315733.793 0
 88  3  2 11 32 59.0800000  0  2  3 13
 -16561378.620 8  70750168.468 7  20960470.095 0  20960473.606 0
  10107058.692 7  62530730.592 8  23325576.049 0  23325582.193 0
 88  3  2 11 33 29.0800000  0  2  3 13
 -16567984.572 7  70745020.988 7  20959212.202 0  20959216.715 0
  10158941.490 7  62571158.716 7  23335450.739 0  23335456.083 0
 88  3  2 11 33 59.0800000  0  2  3 13
 -16574416.636 7  70740008.982 7  20957989.309 0  20957992.220 0
  10210951.296 7  62611685.824 7  23345345.537 0  23345352.353 0
 88  3  2 11 34 29.0800000  0  2  3 13
 -16580673.136 7  70735133.797 7  20956798.236 0  20956801.264 0
  10263088.971 7  62652312.567 7  23355269.466 0  23355273.489 0
 88  3  2 11 34 59.0800000  0  2  3 13
 -16586753.327 8  70730395.974 7  20955641.139 0  20955644.908 0
  10315355.774 7  62693039.908 7  23365214.988 0  23365219.448 0
 88  3  2 11 35 29.0800000  0  2  3 13
 -16592656.571 7  70725796.053 7  20954518.568 0  20954521.121 0
  10367751.121 8  62733867.421 6  23375185.308 0  23375189.610 0
 88  3  2 11 35 59.0800000  0  2  3 13
 -16598381.888 7  70721334.765 7  20953428.375 0  20953432.077 0
  10420275.703 7  62774795.661 7  23385181.509 0  23385186.486 0
 88  3  2 11 36 29.0800000  0  2  3 13
 -16603927.802 8  70717013.268 7  20952373.619 0  20952377.315 0
  10472930.372 7  62815825.225 7  23395201.838 0  23395205.063 0
 88  3  2 11 36 59.0800000  0  2  3 13
 -16609293.215 7  70712832.431 7  20951352.984 0  20951355.895 0
  10525716.095 7  62856956.949 7  23405244.877 0  23405250.995 0
 88  3  2 11 37 29.0800000  0  2  3 13
 -16614476.689 7  70708793.359 7  20950365.508 0  20950369.247 0
  10578633.588 8  62898191.338 7  23415316.081 0  23415320.087 0
 88  3  2 11 37 59.0800000  0  2  3 13
 -16619477.411 7  70704896.692 7  20949413.759 0  20949418.002 0
  10631683.309 8  62939528.792 7  23425410.431 0  23425415.128 0
 88  3  2 11 38 29.0800000  0  2  3 13
 -16624294.271 7  70701143.284 7  20948497.483 0  20948500.808 0
  10684866.134 8  62980969.904 7  23435530.676 0  23435535.459 0
 88  3  2 11 38 59.0800000  0  2  3 13
 -16628925.439 7  70697534.601 7  20947616.121 0  20947619.476 0
  10738183.398 8  63022515.872 6  23445677.832 0  23445679.536 0
 88  3  2 11 39 29.0800000  0  2  3 13
 -16633370.224 7  70694071.123 7  20946769.233 0  20946774.688 0
  10791635.012 8  63064166.425 7  23455849.044 0  23455853.041 0
 88  3  2 11 39 59.0800000  0  2  3 13
 -16637626.663 7  70690754.419 8  20945959.827 0  20945963.757 0
  10845221.663 8  63105922.252 6  23466047.044 0  23466048.086 0
 88  3  2 11 40 29.0800000  0  2  3 13
 -16641693.892 7  70687585.158 7  20945186.747 0  20945190.030 0
  10898944.673 7  63147784.342 7  23476268.435 0  23476272.265 0
 88  3  2 11 40 59.0800000  0  2  3 13
 -16645570.838 7  70684564.159 7  20944450.050 0  20944452.045 0
  10952804.743 8  63189753.170 6  23486518.349 0  23486524.486 0
 88  3  2 11 41 29.0800000  0  2  3 13
 -16649256.723 7  70681692.031 7  20943747.398 0  20943750.637 0
  11006801.216 8  63231828.374 6  23496793.503 0  23496795.681 0
 88  3  2 11 41 59.0800000  0  2  3 13
 -16652750.168 8  70678969.877 7  20943082.861 0  20943085.261 0
  11060935.326 8  63274010.792 6  23507095.437 0  23507099.715 0
 88  3  2 11 42 29.0800000  0  2  3 13
 -16656049.379 7  70676399.057 7  20942454.144 0  20942457.886 0
  11115208.196 7  63316301.297 7  23517422.256 0  23517427.018 0
 88  3  2 11 42 59.0800000  0  2  3 13
 -16659153.503 7  70673980.263 7  20941864.231 0  20941866.771 0
  11169620.500 8  63358700.516 6  23527777.981 0  23527780.258 0
 88  3  2 11 43 29.0800000  0  2  3 13
 -16662060.789 7  70671714.857 7  20941310.336 0  20941314.405 0
  11224172.990 7  63401208.905 7  23538156.409 0  23538162.845 0
 88  3  2 11 43 59.0800000  0  2  3 13
 -16664770.656 7  70669603.265 7  20940794.990 0  20940798.587 0
  11278866.159 8  63443826.936 7  23548566.349 0  23548570.549 0
 88  3  2 11 44 29.0800000  0  2  3 13
 -16667281.747 8  70667646.575 7  20940317.033 0  20940321.177 0
  11333700.711 8  63486555.159 7  23558999.649 0  23559004.166 0
 88  3  2 11 44 59.0800000  0  2  3 13
 -16669592.570 8  70665845.929 7  20939876.724 0  20939881.165 0
  11388677.104 8  63529393.879 6  23569463.409 0  23569466.132 0
 88  3  2 11 45 29.0800000  0  2  3 13
 -16671702.812 8  70664201.593 7  20939475.608 0  20939479.221 0
  11443795.430 7  63572343.197 7  23579947.773 0  23579954.728 0
 88  3  2 11 45 59.0800000  0  2  3 13
 -16673609.942 7  70662715.507 7  20939112.108 0  20939116.279 0
  11499057.514 8  63615404.538 7  23590468.520 0  23590471.045 0
 88  3  2 11 46 29.0800000  0  2  3 13
 -16675312.872 8  70661388.545 7  20938788.378 0  20938792.632 0
  11554463.457 7  63658577.980 7  23601008.958 0  23601014.666 0
